[[{"header":{"parameterUnit":"m.s-1","parameterCategory":1,"la1":30.6,"la2":29.2853,"lo1":-89.7004,"lo2":-87.6739,"dy":0.0162,"dx":0.0183,"nx":112,"ny":82,"refTime":"2024-06-10T00:00:00:Z","depth":0,"parameterNumber":2,"parameterNumberName":"U-component_of_WINDS"},"data":[0.0,0.0,0.0,0.0,0.0,0.0,0.0,0.0,0.0,0.0,0.0,0.0,0.0,0.0,0.0,0.0,0.0,0.0,0.0,0.0,0.0,0.0,0.0,0.0,0.0,0.0,0.0,0.0,0.0,0.0,0.0,0.0,0.0,0.0,0.0,0.0,0.0,0.0,0.0,0.0,0.0,0.0,0.0,0.0,0.0,0.0,0.0,0.0,0.0,0.0,0.0,0.0,0.0,0.0,0.0,0.0,0.0,0.0,0.0,0.0,0.0,0.0,0.0,0.0,0.0,0.0,0.0,0.0,0.0,0.0,0.0,0.0,0.0,0.0,0.0,0.0,0.0,0.0,0.0,0.0,0.0,0.0,0.0,0.0,0.0,0.0,0.0,0.0,0.0,0.0,-0.8574,-0.983,-1.0705,-1.1323,-1.1642,-1.0716,-0.9777,-0.9026,0.0,0.0,0.0,0.0,0.0,0.0,0.0,0.0,0.0,0.0,0.0,0.0,0.0,0.0,0.0,0.0,0.0,0.0,0.0,0.0,0.0,0.0,0.0,0.0,0.0,0.0,0.0,0.0,0.0,0.0,0.0,0.0,0.0,0.0,0.0,0.0,0.0,0.0,0.0,0.0,0.0,0.0,0.0,0.0,0.0,0.0,0.0,0.0,0.0,0.0,0.0,0.0,0.0,0.0,0.0,0.0,0.0,0.0,0.0,0.0,0.0,0.0,0.0,0.0,0.0,0.0,0.0,0.0,0.0,0.0,0.0,0.0,0.0,0.0,0.0,0.0,0.0,0.0,0.0,0.0,0.0,0.0,0.0,0.0,0.0,0.0,0.0,0.0,0.0,0.0,0.0,0.0,0.0,0.0,0.0,0.0,0.0,0.0,0.0,0.0,0.0,0.0,0.0,0.0,-0.9151,-1.0594,-1.1368,-1.1715,-1.1519,-1.0677,-0.9785,-0.8904,0.0,0.0,0.0,0.0,0.0,0.0,0.0,0.0,0.0,0.0,0.0,0.0,0.0,0.0,0.0,0.0,0.0,0.0,0.0,0.0,0.0,0.0,0.0,0.0,0.0,0.0,0.0,0.0,0.0,0.0,0.0,0.0,0.0,0.0,0.0,0.0,0.0,0.0,0.0,0.0,0.0,0.0,0.0,0.0,0.0,0.0,0.0,0.0,0.0,0.0,0.0,0.0,0.0,0.0,0.0,0.0,0.0,0.0,0.0,0.0,0.0,0.0,0.0,0.0,0.0,0.0,0.0,0.0,0.0,0.0,0.0,0.0,0.0,0.0,0.0,0.0,0.0,0.0,0.0,0.0,0.0,0.0,0.0,0.0,0.0,0.0,0.0,0.0,0.0,0.0,0.0,0.0,0.0,0.0,0.0,0.0,0.0,0.0,0.0,0.0,0.0,0.0,0.0,-0.8714,-0.9932,-1.08,-1.1438,-1.1728,-1.1628,-1.0724,-0.9785,-0.8945,-0.7577,0.0,0.0,0.0,0.0,0.0,0.0,0.0,0.0,0.0,0.0,0.0,0.0,0.0,0.0,0.0,0.0,0.0,0.0,0.0,0.0,0.0,0.0,0.0,0.0,0.0,0.0,0.0,0.0,0.0,0.0,0.0,0.0,0.0,0.0,0.0,0.0,0.0,0.0,0.0,0.0,0.0,0.0,0.0,0.0,0.0,0.0,0.0,0.0,0.0,0.0,0.0,0.0,0.0,0.0,0.0,0.0,0.0,0.0,0.0,0.0,0.0,0.0,0.0,0.0,0.0,0.0,0.0,0.0,0.0,0.0,0.0,0.0,0.0,0.0,0.0,0.0,0.0,0.0,0.0,0.0,0.0,0.0,0.0,0.0,0.0,0.0,0.0,0.0,0.0,0.0,0.0,0.0,0.0,0.0,0.0,0.0,0.0,0.0,0.0,0.0,0.0,0.0,-0.9483,-1.0358,-1.0855,-1.1399,-1.1728,-1.1619,-1.0668,-0.9777,-0.8945,-0.7535,0.0,0.0,0.0,0.0,0.0,0.0,0.0,0.0,0.0,0.0,0.0,0.0,0.0,0.0,0.0,0.0,0.0,0.0,0.0,0.0,0.0,0.0,0.0,0.0,0.0,0.0,0.0,0.0,0.0,0.0,0.0,0.0,0.0,0.0,0.0,0.0,0.0,0.0,0.0,0.0,0.0,0.0,0.0,0.0,0.0,0.0,0.0,0.0,0.0,0.0,0.0,0.0,0.0,0.0,0.0,0.0,0.0,0.0,0.0,0.0,0.0,0.0,0.0,0.0,0.0,0.0,0.0,0.0,0.0,0.0,0.0,0.0,0.0,0.0,0.0,0.0,0.0,0.0,0.0,0.0,0.0,0.0,0.0,0.0,0.0,0.0,0.0,0.0,0.0,0.0,0.0,0.0,0.0,0.0,0.0,0.0,0.0,0.0,0.0,0.0,0.0,0.0,-0.9235,-1.0054,-1.0827,-1.1495,-1.1719,-1.1377,-1.063,-0.9741,-0.8709,-0.7347,0.0,0.0,0.0,0.0,0.0,0.0,0.0,0.0,0.0,0.0,0.0,0.0,0.0,0.0,0.0,0.0,0.0,0.0,0.0,0.0,0.0,0.0,0.0,0.0,0.0,0.0,0.0,0.0,0.0,0.0,0.0,0.0,0.0,0.0,0.0,0.0,0.0,0.0,0.0,0.0,0.0,0.0,0.0,0.0,0.0,0.0,0.0,0.0,0.0,0.0,0.0,0.0,0.0,0.0,0.0,0.0,0.0,0.0,0.0,0.0,0.0,0.0,0.0,0.0,0.0,0.0,0.0,0.0,0.0,0.0,0.0,0.0,0.0,0.0,0.0,0.0,0.0,0.0,0.0,0.0,0.0,0.0,0.0,0.0,0.0,0.0,0.0,0.0,0.0,0.0,0.0,0.0,0.0,0.0,0.0,0.0,0.0,0.0,0.0,0.0,0.0,0.0,-0.9349,-1.0139,0.0,-1.131,-1.1427,-1.1074,-1.0242,-0.9335,-0.8421,0.0,0.0,0.0,0.0,0.0,0.0,0.0,0.0,0.0,0.0,0.0,0.0,0.0,0.0,0.0,0.0,0.0,0.0,0.0,0.0,0.0,0.0,0.0,0.0,0.0,0.0,0.0,0.0,0.0,0.0,0.0,0.0,0.0,0.0,0.0,0.0,0.0,0.0,0.0,0.0,0.0,0.0,0.0,0.0,0.0,0.0,0.0,0.0,0.0,0.0,0.0,0.0,0.0,0.0,0.0,0.0,0.0,0.0,0.0,0.0,0.0,0.0,0.0,0.0,0.0,0.0,0.0,0.0,0.0,0.0,0.0,0.0,0.0,0.0,0.0,0.0,0.0,0.0,0.0,0.0,0.0,0.0,0.0,0.0,0.0,0.0,0.0,0.0,0.0,0.0,0.0,0.0,0.0,0.0,0.0,0.0,0.0,0.0,0.0,0.0,0.0,0.0,-0.8511,-0.9403,-1.0232,0.0,-1.1202,-1.1116,-1.0769,-0.9803,-0.8873,-0.8048,0.0,0.0,0.0,0.0,0.0,0.0,0.0,0.0,0.0,0.0,0.0,0.0,0.0,0.0,0.0,0.0,0.0,0.0,0.0,0.0,0.0,0.0,0.0,0.0,0.0,0.0,0.0,0.0,0.0,0.0,0.0,0.0,0.0,0.0,0.0,0.0,0.0,0.0,0.0,0.0,0.0,0.0,0.0,0.0,0.0,0.0,0.0,0.0,0.0,0.0,0.0,0.0,0.0,0.0,0.0,0.0,0.0,0.0,0.0,0.0,0.0,0.0,0.0,0.0,0.0,0.0,0.0,0.0,0.0,0.0,0.0,0.0,0.0,0.0,0.0,0.0,0.0,0.0,0.0,0.0,0.0,0.0,0.0,0.0,0.0,0.0,0.0,0.0,0.0,0.0,0.0,0.0,0.0,0.0,0.0,0.0,0.0,0.0,0.0,0.0,0.0,0.0,-0.852,-0.9403,-1.0197,-1.1031,-1.1103,-1.0913,-1.0454,-0.9466,-0.8513,0.0,0.0,0.0,0.0,0.0,0.0,0.0,0.0,0.0,0.0,0.0,0.0,0.0,0.0,0.0,0.0,0.0,0.0,0.0,0.0,0.0,0.0,0.0,0.0,0.0,0.0,0.0,0.0,0.0,0.0,0.0,0.0,0.0,0.0,0.0,0.0,0.0,0.0,0.0,0.0,0.0,0.0,0.0,0.0,0.0,0.0,0.0,0.0,0.0,0.0,0.0,0.0,0.0,0.0,0.0,0.0,0.0,0.0,0.0,0.0,0.0,0.0,0.0,0.0,0.0,0.0,0.0,0.0,0.0,0.0,0.0,0.0,0.0,0.0,0.0,0.0,0.0,0.0,0.0,0.0,0.0,0.0,0.0,0.0,0.0,0.0,0.0,0.0,0.0,0.0,0.0,0.0,0.0,0.0,0.0,0.0,0.0,0.0,0.0,0.0,0.0,0.0,0.0,-0.8733,-0.9589,-1.0357,-1.1175,-1.1057,-1.0769,-1.03,-0.9376,-0.8392,-0.737,0.0,0.0,0.0,0.0,0.0,0.0,0.0,0.0,0.0,0.0,0.0,0.0,0.0,0.0,0.0,0.0,0.0,0.0,0.0,0.0,0.0,0.0,0.0,0.0,0.0,0.0,0.0,0.0,0.0,0.0,0.0,0.0,0.0,0.0,0.0,0.0,0.0,0.0,0.0,0.0,0.0,0.0,0.0,0.0,0.0,0.0,0.0,0.0,0.0,0.0,0.0,0.0,0.0,0.0,0.0,0.0,0.0,0.0,0.0,0.0,0.0,0.0,0.0,0.0,0.0,0.0,0.0,0.0,0.0,0.0,0.0,0.0,0.0,0.0,0.0,0.0,0.0,0.0,0.0,0.0,0.0,0.0,0.0,0.0,0.0,0.0,0.0,0.0,0.0,0.0,0.0,0.0,0.0,0.0,0.0,0.0,0.0,0.0,0.0,0.0,0.0,0.0,-0.8819,-0.9588,-1.0335,-1.114,-1.0871,-1.0514,-1.0087,-0.9141,-0.8127,-0.7123,0.0,0.0,0.0,0.0,0.0,0.0,0.0,0.0,0.0,0.0,0.0,0.0,0.0,0.0,0.0,0.0,0.0,0.0,0.0,0.0,0.0,0.0,0.0,0.0,0.0,0.0,0.0,0.0,0.0,0.0,0.0,0.0,0.0,0.0,0.0,0.0,0.0,0.0,0.0,0.0,0.0,0.0,0.0,0.0,0.0,0.0,0.0,0.0,0.0,0.0,0.0,0.0,0.0,0.0,0.0,0.0,0.0,0.0,0.0,0.0,0.0,0.0,0.0,0.0,0.0,0.0,0.0,0.0,0.0,0.0,0.0,0.0,0.0,0.0,0.0,0.0,0.0,0.0,0.0,0.0,0.0,0.0,0.0,0.0,0.0,0.0,0.0,0.0,0.0,0.0,0.0,0.0,0.0,0.0,0.0,0.0,0.0,0.0,0.0,0.0,0.0,0.0,-0.8827,-0.9545,-1.0195,-1.099,-1.0616,-1.0154,-0.9814,-0.8799,-0.7827,-0.6993,0.0,0.0,0.0,0.0,0.0,0.0,0.0,0.0,0.0,0.0,0.0,0.0,0.0,0.0,0.0,0.0,0.0,0.0,0.0,0.0,0.0,0.0,0.0,0.0,0.0,0.0,0.0,0.0,0.0,0.0,0.0,0.0,0.0,0.0,0.0,0.0,0.0,0.0,0.0,0.0,0.0,0.0,0.0,0.0,0.0,0.0,0.0,0.0,0.0,0.0,0.0,0.0,0.0,0.0,0.0,0.0,0.0,0.0,0.0,0.0,0.011,0.0,0.0,0.0,0.0,0.0,0.0,0.0,0.0,0.0,0.0,0.0,0.0,0.0,0.0,0.0,0.0,0.0,0.0,0.0,0.0,0.0,0.0,0.0,0.0,0.0,0.0,0.0,0.0,0.0,0.0,0.0,0.0,0.0,0.0,0.0,0.0,0.0,0.0,0.0,0.0,0.0,-0.8862,-0.9545,-1.0148,-1.0897,-1.0514,-1.0095,-0.9814,-0.8882,-0.8001,-0.7326,-0.6149,0.0,0.0,0.0,0.0,0.0,0.0,0.0,0.0,0.0,0.0,0.0,0.0,0.0,0.0,0.0,0.0,0.0,0.0,0.0,0.0,0.0,0.0,0.0,0.0,0.0,0.0,0.0,0.0,0.0,0.0,0.0,0.0,0.0,0.0,0.0,0.0,0.0,0.0,0.0,0.0,0.0,0.0,0.0,0.0,0.0,0.0,0.0,0.0,0.0,0.0,0.0,0.0,0.0,0.0,0.0,0.0,0.0,0.0,0.0,0.0,-0.0369,0.0,0.0,0.0,0.0,0.0,0.0,0.0,0.0,0.0,0.0,0.0,0.0,0.0,0.0,0.0,0.0,0.0,0.0,0.0,0.0,0.0,0.0,0.0,0.0,0.0,0.0,0.0,0.0,0.0,0.0,0.0,0.0,0.0,0.0,0.0,0.0,0.0,0.0,0.0,0.0,-0.9153,-0.9779,-1.026,-1.0762,-1.0308,-0.9888,-0.9614,-0.8877,-0.8133,-0.7367,-0.6523,0.0,0.0,0.0,0.0,0.0,0.0,0.0,0.0,0.0,0.0,0.0,0.0,0.0,0.0,0.0,0.0,0.0,0.0,0.0,0.0,0.0,0.0,0.0,0.0,0.0,0.0,0.0,0.0,0.0,0.0,0.0,0.0,0.0,0.0,0.0,0.0,0.0,0.0,0.0,0.0,0.0,0.0,0.0,0.0,0.0,0.0,0.0,0.0,0.0,0.0,0.0,0.0,0.0,-0.2139,-0.2027,-0.2193,-0.1984,-0.1828,-0.1822,-0.1228,-0.1054,-0.1191,-0.1327,0.0,0.0,0.0,0.0,0.0,0.0,0.0,0.0,0.0,0.0,0.0,0.0,0.0,0.0,0.0,0.0,0.0,0.0,0.0,0.0,0.0,0.0,0.0,0.0,-0.7448,-0.7426,-0.7469,0.0,0.0,0.0,0.0,0.0,0.0,0.0,0.0,0.0,0.0,0.0,-0.9478,-1.0027,-1.0434,-1.0685,-1.0205,-0.974,-0.9465,-0.8982,-0.8296,-0.7465,-0.7024,-0.6276,0.0,0.0,0.0,0.0,0.0,0.0,0.0,0.0,0.0,0.0,0.0,0.0,0.0,0.0,0.0,0.0,0.0,0.0,0.0,0.0,0.0,0.0,0.0,0.0,0.0,0.0,0.0,0.0,0.0,0.0,0.0,0.0,0.0394,0.0243,0.0,0.0,0.0,0.0,0.0,0.0,0.0,0.0,0.0,0.0,0.0,0.0,0.0,-0.2901,-0.3172,-0.2696,-0.2934,-0.3823,-0.2644,-0.2385,-0.3045,-0.2335,-0.2038,-0.2098,-0.2259,0.0,-0.1891,-0.1942,0.0,0.0,0.0,0.0,0.0,0.0,0.0,0.0,0.0,0.0,0.0,0.0,0.0,0.0,0.0,0.0,0.0,0.0,0.0,0.0,0.0,0.0,-0.7775,-0.7623,-0.8154,-0.874,0.0,-0.8216,-0.7822,-0.7896,-0.7666,0.0,0.0,0.0,0.0,0.0,0.0,0.0,-0.9538,-1.0119,-1.0524,-1.0685,-1.036,-0.9991,-0.9614,-0.9177,-0.8764,-0.8279,-0.7475,-0.6877,-0.6473,-0.558,0.0,0.0,0.0,0.0,0.0,0.0,0.0,0.0,0.0,0.0,0.0,0.0,0.0,0.0,0.0,0.0,0.0,0.0,0.0,0.0,0.0,0.0,0.0,0.0,0.0,0.0,0.0,0.0,0.0,0.0226,-0.0071,-0.0363,-0.0638,-0.0947,0.0,0.0,0.0,0.0,0.0,0.0,0.0,0.0,0.0,-0.416,-0.4435,-0.4648,-0.4793,-0.424,-0.4154,-0.4565,-0.3598,-0.3254,-0.3557,-0.3254,-0.3132,-0.3134,-0.3256,-0.3218,-0.3044,-0.2724,-0.2821,-0.3167,0.0,0.0,0.0,0.0,-0.3381,-0.3651,-0.3941,-0.4048,-0.4196,-0.5056,0.0,0.0,0.0,0.0,0.0,0.0,0.0,0.0,0.0,0.0,-0.8394,-0.8404,-0.8976,-0.9573,-0.9634,-0.9681,-0.9558,0.0,-0.8757,-0.8598,-0.8836,0.0,0.0,0.0,0.0,-0.9874,-1.018,-1.0559,-1.0847,-1.0804,-1.0565,-1.0249,-0.9984,-0.9643,-0.9278,-0.8849,-0.8157,-0.7551,-0.7076,-0.6386,-0.5798,0.0,0.0,0.0,0.0,0.0,0.0,0.0,0.0,0.0,0.0,0.0,0.0,0.0,0.0,0.0,0.0,0.0,0.0,0.0,0.0,0.0,0.0,0.0,0.0,0.0,0.0,0.0,0.0,-0.0289,-0.0582,-0.1021,-0.1252,-0.1534,0.0,0.0,0.0,0.0,0.0,0.0,-0.3919,-0.413,-0.4613,-0.5358,-0.5635,-0.5932,-0.6129,-0.574,-0.5598,-0.5828,-0.5068,-0.4814,-0.5004,-0.4814,-0.4686,-0.4686,-0.4686,-0.4686,-0.4662,-0.3672,-0.3442,-0.3704,-0.3434,-0.3485,-0.3816,-0.3869,-0.4013,-0.43,-0.4895,-0.5033,-0.5098,-0.6006,-0.6278,-0.6273,-0.6554,0.0,0.0,0.0,0.0,-0.8099,-0.8099,-0.85,-0.8968,-0.9143,-0.9771,-1.0328,-1.0494,-1.0947,-1.1107,0.0,-0.9804,-0.9616,-0.9853,0.0,0.0,0.0,0.0,-1.0487,-1.0685,-1.0946,-1.1124,-1.0972,-1.0769,-1.0565,-1.036,-1.0138,-0.987,-0.9427,-0.8842,-0.8222,-0.7615,-0.712,-0.6481,-0.5706,0.0,0.0,0.0,0.0,0.0,0.0,0.0,0.0,0.0,0.0,0.0,0.0,0.0,0.0,0.0,0.0,0.0,0.0,0.0,0.0,0.0,0.0,0.0,0.0,0.0,0.0,0.0,0.0,0.0,-0.1547,-0.1886,0.0,0.0,0.0,0.0,-0.3508,-0.353,-0.3692,-0.4054,-0.4079,-0.4387,-0.5005,-0.5353,-0.5844,-0.6576,-0.6743,-0.7198,-0.8023,-0.7306,-0.7311,-0.7948,-0.7236,-0.6954,-0.6954,-0.6954,-0.6954,-0.676,-0.4677,-0.3978,-0.4163,-0.4146,-0.4258,-0.4439,-0.4917,-0.5104,-0.5239,-0.5771,-0.5955,-0.6083,-0.6889,-0.7506,-0.7952,-0.7985,-0.809,0.0,0.0,-0.8417,-0.8639,-0.8639,-0.9124,-0.955,-0.9653,-1.0397,-1.1189,-1.129,-1.1642,-1.1773,0.0,-1.0709,-1.0515,-1.0488,0.0,-1.0041,-1.0058,-1.0446,-1.0702,-1.072,-1.1045,-1.1226,-1.1124,-1.1074,-1.0972,-1.0718,-1.0667,-1.0454,-0.9976,-0.941,-0.8889,-0.8472,-0.7545,-0.6966,-0.6742,-0.5834,0.0,0.0,0.0,0.0,0.0,0.0,0.0,0.0,0.0,0.0,0.0,0.0,0.0,0.0,0.0,0.0,0.0,0.0,0.0,0.0,0.0,0.0,0.0,0.0,0.0,0.0,0.0,0.0,-0.2258,-0.2986,0.0,-0.3029,-0.3694,-0.4027,-0.3736,-0.376,-0.4348,-0.5619,-0.5706,-0.6319,-0.7683,-0.7836,-0.7986,-0.8265,-0.7929,-0.7864,-0.8226,-0.7438,-0.722,-0.7509,-0.7225,-0.7078,-0.7078,-0.7078,-0.7078,-0.7057,-0.6249,-0.5955,-0.5913,-0.5872,-0.5824,-0.5728,-0.5918,-0.5914,-0.5914,-0.6595,-0.6846,-0.7012,-0.7714,-0.8089,-0.8375,-0.8375,-0.8433,-0.8537,-0.8537,-0.9076,-0.9575,-0.9575,-1.0194,-1.0824,-1.087,-1.145,-1.2056,-1.2119,-1.2506,-1.2703,-1.2379,-1.1739,-1.1281,-1.131,-1.1072,-1.0865,-1.0865,-1.0985,-1.1079,-1.1079,-1.119,-1.1276,-1.1217,-1.1226,-1.1167,-1.1074,-1.1023,-1.0871,-1.0616,-0.9803,-0.9229,-0.8904,-0.8102,-0.7466,-0.6994,-0.6654,-0.5992,0.0,0.0,0.0,0.0,0.0,0.0,0.0,0.0,0.0,0.0,0.0,0.0,0.0,0.0,0.0,0.0,0.0,0.0,0.0,0.0,0.0,0.0,0.0,0.0,0.0,0.0,-0.2907,-0.3079,-0.3914,-0.4276,-0.3781,-0.4366,-0.47,-0.4556,-0.4601,-0.5249,-0.6728,-0.6823,-0.7377,-0.8845,-0.8928,-0.9111,-0.933,-0.898,-0.8799,-0.8799,-0.8283,-0.8065,-0.8065,-0.8065,-0.8065,-0.8065,-0.8065,-0.8061,-0.8133,-0.8065,-0.8054,-0.7972,-0.7219,-0.6772,-0.6666,-0.6999,-0.706,-0.7055,-0.7787,-0.8117,-0.8285,-0.8702,-0.8902,-0.9033,-0.9095,-0.9152,-0.927,-0.9575,-1.0004,-1.045,-1.0691,-1.1133,-1.1578,-1.1764,-1.2197,-1.2573,-1.2818,-1.3094,-1.3339,-1.3202,-1.2533,-1.1965,-1.1993,-1.1815,-1.161,-1.1482,-1.1464,-1.1422,-1.1285,-1.1326,-1.1326,-1.1326,-1.1326,-1.1326,-1.1326,-1.1226,-1.1074,-1.0922,-1.009,-0.9468,-0.9097,-0.8438,-0.7799,-0.7255,-0.693,-0.6325,-0.5346,0.0,0.0,0.0,0.0,0.0,0.0,0.0,0.0,0.0,0.0,0.0,0.0,0.0,0.0,0.0,0.0,0.0,0.0,0.0,0.0,0.0,0.0,0.0,-0.3171,-0.3805,-0.4254,-0.3983,-0.48,-0.5114,-0.4411,-0.4663,-0.5213,-0.6074,-0.6026,-0.6375,-0.7282,-0.719,-0.7522,-0.8255,-0.8442,-0.892,-0.9599,-0.982,-0.9933,-0.9943,-0.9943,-1.0019,-1.0019,-0.9938,-0.9943,-0.9938,-0.9933,-1.0003,-1.0154,-0.9997,-0.9992,-1.0018,-0.7956,-0.7166,-0.73,-0.8231,-0.8508,-0.8644,-0.9292,-0.9648,-0.9788,-0.9788,-0.9921,-1.0055,-1.0257,-1.0327,-1.0534,-1.1273,-1.127,-1.1193,-1.1898,-1.1851,-1.1725,-1.2343,-1.2528,-1.2712,-1.3381,-1.3511,-1.3511,-1.3511,-1.3101,-1.2687,-1.2475,-1.2398,-1.2269,-1.1856,-1.1797,0.0,-1.1336,-1.1335,-1.1326,-1.1326,-1.1326,-1.1326,-1.1326,-1.1326,-1.1175,-1.0922,-1.0194,-0.9614,-0.9159,-0.8547,-0.801,-0.7538,-0.6705,-0.6075,-0.5641,0.0,0.0,0.0,0.0,0.0,0.0,0.0,0.0,0.0,0.0,0.0,0.0,0.0,0.0,0.0,0.0,0.0,0.0,0.0,0.0,0.0,0.0,-0.4358,-0.4122,-0.4534,-0.4919,-0.5033,-0.6069,-0.6467,-0.5708,-0.6752,-0.7312,-0.6873,-0.6821,-0.7292,-0.844,-0.8263,-0.8591,-0.9677,-0.9578,-0.9679,-1.0094,-1.061,-1.1033,-1.1213,-1.1691,-1.1926,-1.1926,-1.1455,-1.1213,-1.1207,-1.0495,-1.0191,-1.0252,-0.9992,-0.9922,-0.9906,-0.9324,-0.9028,-0.8964,-0.9186,-0.9148,-0.9066,-0.9572,-0.9788,-0.9782,-0.9916,-1.0055,-1.0188,-1.0118,-1.0597,-1.1204,-1.141,-1.2162,-1.2846,-1.2491,-1.3099,-1.3631,-1.2973,-1.3233,-1.3596,-1.351,-1.3511,-1.3511,-1.3511,-1.3365,-1.3186,-1.2877,-1.2577,-1.2355,-1.2252,-1.2012,0.0,-1.1643,-1.1447,-1.1326,-1.1326,-1.1326,-1.1326,-1.1326,-1.1326,-1.1226,-1.1074,-1.0337,-0.9905,-0.9875,-0.9306,-0.8832,-0.8508,-0.796,-0.7375,0.0,0.0,0.0,0.0,0.0,0.0,0.0,0.0,0.0,0.0,0.0,0.0,0.0,0.0,0.0,0.0,0.0,0.0,0.0,0.0,0.0,0.0,-0.5906,-0.6075,-0.6229,-0.6021,-0.5816,-0.5817,-0.7108,-0.7631,-0.6791,-0.76,-0.8075,-0.7886,-0.7944,-0.8433,-0.9443,-0.9418,-0.9828,-1.0813,-1.0757,-1.0829,-1.1298,-1.1685,-1.1994,-1.2148,-1.2227,-1.2307,-1.2227,-1.1588,-1.1272,-1.1261,-1.0965,-1.075,-1.0586,-1.0662,-1.0672,0.0,0.0,0.0,0.0,0.0,-0.9772,-0.9791,-0.9946,-0.9946,-0.9946,-1.0085,-1.0228,-1.0444,-1.073,-1.1288,-1.1925,-1.227,-1.3087,-1.3739,-1.3316,-1.3905,-1.4493,-1.3802,-1.4011,-1.4281,-1.405,-1.387,-1.375,-1.375,-1.3622,0.0,-1.3237,-1.3014,-1.2809,-1.2663,-1.2458,-1.2201,-1.1831,-1.1644,-1.1447,-1.1344,-1.1326,-1.1326,-1.1326,-1.1326,0.0,0.0,0.0,-1.0178,-1.0056,-0.9608,0.0,0.0,0.0,0.0,0.0,0.0,0.0,0.0,-0.6278,-0.6185,0.0,0.0,0.0,0.0,0.0,0.0,0.0,0.0,0.0,0.0,0.0,0.0,0.0,0.0,0.0,0.0,-0.7683,-0.8314,-0.87,-0.7829,-0.694,-0.6521,-0.7939,-0.8599,-0.7739,-0.7961,-0.8337,-0.9034,-0.9285,-0.9807,-1.042,0.0,0.0,0.0,0.0,-1.192,-1.2597,-1.2597,-1.2696,-1.2808,-1.2234,-1.2073,-1.2073,-1.1358,-1.1039,-1.1033,-1.1641,-1.1548,-1.1151,-1.1599,-1.1902,-1.1854,-1.0622,-1.0149,-1.0144,-1.0225,-1.036,-1.0489,-1.0338,0.0,0.0,-1.0368,-1.0513,-1.0887,-1.1706,-1.2224,-1.2592,-1.3317,-1.3828,-1.4164,-1.4164,-1.4503,-1.4804,-1.4686,-1.4678,-1.4735,-1.4692,-1.441,-1.4153,-1.411,-1.381,-1.3562,-1.3519,-1.3511,-1.3399,-1.3083,-1.3006,-1.2732,-1.201,-1.1848,-1.1713,-1.137,0.0,0.0,-1.1326,-1.1326,-1.1226,-1.1124,-1.0804,-1.0401,-0.9918,-0.9796,-0.9741,-0.9793,-0.9562,-0.9376,-0.9268,-0.9182,-0.9011,-0.8877,-0.7656,-0.708,0.0,0.0,0.0,0.0,0.0,0.0,0.0,0.0,0.0,0.0,0.0,0.0,0.0,0.0,0.0,-0.8062,-0.8137,-0.8375,-0.8817,-0.8675,-0.8463,-0.8356,-0.8672,-0.8807,-0.8627,-0.9497,-1.0054,-0.999,-1.0806,-1.1318,-1.1438,-1.1478,-1.1828,-1.2466,-1.1433,-1.1213,-1.2152,-1.2152,-1.2508,-1.3233,0.0,0.0,-1.4655,-1.3971,-1.3638,-1.3625,-1.3054,-1.2713,-1.2613,-1.2555,-1.2227,-1.173,-1.1476,-1.1581,-1.1727,-1.0885,-1.0458,-1.0373,-1.0451,-1.0466,-1.0513,-1.1186,-1.1632,-1.1929,-1.2003,-1.2586,0.0,-1.3462,-1.3988,-1.4506,-1.4506,-1.5047,-1.5367,-1.4429,-1.4697,-1.5035,-1.4744,-1.4624,-1.4478,-1.4161,-1.4033,-1.3879,-1.3562,-1.3511,-1.3485,-1.3417,-1.316,-1.292,-1.2774,-1.2226,-1.1763,-1.1686,-1.1456,-1.1326,-1.1326,-1.1326,-1.1276,-1.1276,-1.1199,-1.0944,-1.0539,-1.0802,-1.0819,-1.0522,-1.0466,-1.0227,-0.9779,-0.973,-0.9619,-0.9416,-0.8954,-0.8713,0.0,0.0,0.0,0.0,0.0,0.0,0.0,0.0,0.0,0.0,0.0,-0.7372,0.0,0.0,-0.8875,-0.928,-0.9202,-0.925,-0.9657,-0.9703,-0.9441,-0.8918,-0.9311,-0.9601,-0.9566,-1.0153,-1.0466,-1.0466,-1.0994,-1.1373,-1.1373,-1.1415,-1.1981,-1.3054,-1.2395,-1.2539,-1.3682,-1.3682,-1.3921,-1.4412,-1.4405,-1.4566,-1.4915,-1.4237,-1.3893,-1.3886,-1.3734,-1.3502,-1.3246,-1.3434,-1.3451,-1.3437,-1.3437,-1.2613,-1.1416,-1.0956,-1.0729,-1.0704,-1.1236,-1.1534,-1.1704,-1.2313,-1.2505,-1.2485,-1.2553,-1.2732,-1.2952,-1.339,-1.4034,-1.4601,-1.4601,-1.5204,-1.5683,-1.5068,-1.5228,-1.5463,-1.5283,-1.5086,-1.4889,-1.4692,-1.4512,-1.4264,-1.387,-1.3802,-1.3733,-1.3536,-1.3357,-1.3177,-1.3006,-1.2646,-1.2269,-1.1831,-1.167,-1.1482,-1.1285,-1.1326,-1.1326,-1.1326,-1.1326,-1.119,-1.1011,-1.1173,-1.119,-1.1002,-1.1002,-1.0846,-1.059,-1.059,-1.0531,-1.0438,-1.0314,-0.9934,0.0,0.0,0.0,0.0,0.0,0.0,0.0,0.0,-0.7427,-0.8606,-0.8837,-0.8867,-0.9018,-0.9291,-0.9647,-1.0143,-1.0165,-1.0275,-1.0668,-1.06,-1.0213,-0.9345,-0.9823,-1.0239,-1.0288,-1.0336,-1.0455,-1.0686,-1.1084,-1.1304,-1.1472,-1.1577,-1.2375,-1.373,-1.3561,-1.3984,-1.5173,-1.509,-1.509,-1.5173,-1.465,-1.4482,-1.4566,-1.4153,-1.3899,-1.3984,-1.4566,-1.4566,-1.4062,-1.4643,-1.497,-1.522,-1.5304,-1.3672,-1.1415,-1.1659,-1.1711,-1.1739,-1.2437,-1.2718,-1.2877,-1.3397,-1.3175,-1.2752,-1.3202,-1.2963,-1.2735,-1.3477,-1.4178,-1.4609,-1.4752,-1.5275,-1.5805,-1.5805,-1.5805,-1.5805,-1.5805,-1.5557,-1.5309,-1.5232,-1.4983,-1.4641,-1.4179,-1.4093,-1.3964,-1.3571,-1.3511,-1.3408,-1.3117,-1.3023,-1.274,-1.2078,-1.1942,-1.1798,-1.1413,-1.1319,-1.1326,-1.1326,-1.1326,-1.1326,-1.1326,-1.1326,-1.1326,-1.1326,-1.1326,-1.1326,-1.1326,-1.1326,-1.131,-1.1379,-1.1379,-1.091,-0.7062,-0.74,-0.781,-0.8262,-0.8487,-0.8867,0.0,0.0,-0.9863,-1.0,-1.0307,-1.0306,-0.9346,-0.99,-1.0363,-1.0019,-1.0565,-1.1093,-1.1152,-1.1399,-1.1309,-1.0628,-1.0181,-1.0051,-1.0272,-1.0476,-1.0692,-1.0929,-1.1753,-1.2492,-1.3093,-1.3124,-1.3815,-1.509,-1.3984,-1.373,-1.4482,-1.3899,-1.3899,-1.4482,-1.4482,-1.4741,-1.5257,-1.5673,-1.5839,-1.5831,-1.6237,-1.6402,-1.6319,-1.6402,-1.6139,-1.5621,-1.5884,-1.5253,-1.4261,-1.4268,-1.4173,-1.3925,-1.4006,-1.36,-1.3068,-1.3818,-1.3583,-1.3138,-1.3672,-1.3804,-1.3821,-1.4328,-1.453,-1.4752,-1.5505,-1.5726,-1.5805,-1.5805,-1.5805,-1.5805,-1.5805,-1.5762,-1.5634,-1.5283,-1.518,-1.4923,-1.4221,-1.4093,-1.3964,-1.3571,-1.3511,-1.3494,-1.3459,-1.3177,-1.2946,-1.286,-1.2535,-1.2184,-1.1754,-1.1464,-1.1326,-1.1326,-1.1326,-1.1326,-1.1326,-1.1326,-1.1326,-1.1326,-1.1326,-1.1326,-1.1326,-1.1326,-1.1447,-1.1728,-1.1728,-1.1667,-0.8649,-0.8586,-0.8692,-0.9714,-0.9952,-1.0329,-1.1601,-1.157,-1.1455,-1.2035,-1.2164,-1.1969,-1.1504,-1.1546,-1.1718,0.0,-1.1714,-1.1818,-1.1818,-1.1566,-1.1341,-1.1036,-1.0377,-1.0073,-1.0455,-1.0579,-1.0953,-1.1753,-1.2219,-1.2705,-1.3392,-1.3398,-1.3815,-1.4824,-1.423,-1.4321,-1.4999,-1.4664,-1.4831,-1.5409,-1.5409,-1.5665,-1.6162,-1.6327,-1.6335,-1.6087,-1.6004,-1.5914,-1.5914,-1.5914,-1.5748,-1.5567,-1.6229,-1.6064,-1.5477,-1.5047,-1.4781,-1.475,-1.475,-1.459,-1.4462,-1.5076,-1.4771,-1.4309,-1.4766,-1.4668,-1.4372,-1.4793,-1.4919,-1.5098,-1.5635,-1.5805,-1.5805,-1.5805,-1.5805,-1.5805,-1.5805,-1.5805,-1.5754,-1.5583,-1.5557,-1.5386,-1.4838,-1.4572,-1.4307,-1.3913,-1.3656,-1.3511,-1.3511,-1.3382,-1.3211,-1.3006,-1.2629,-1.2329,-1.2175,-1.1824,-1.1601,-1.1601,-1.1396,-1.1326,-1.1326,-1.1326,-1.1326,-1.1326,-1.1326,-1.1379,-1.1601,-1.1601,-1.1798,-1.2158,-1.2158,-1.2286,-0.9774,-0.9813,-1.0022,-1.1052,-1.143,-1.1789,-1.3167,-1.3064,-1.2871,-1.3632,-1.3527,-1.3179,-1.2932,-1.2667,-1.2571,-1.2785,-1.2693,-1.2557,-1.2557,-1.2324,-1.206,-1.1741,-1.1188,-1.087,-1.1066,-1.095,-1.1314,-1.2322,-1.2534,-1.296,-1.3646,-1.3646,-1.4017,-1.4782,-1.4944,-1.524,-1.5856,-1.5856,-1.6025,-1.6362,-1.6278,-1.6354,-1.6598,-1.6773,-1.669,-1.653,-1.6362,-1.6141,-1.6058,-1.6217,-1.6246,-1.6162,-1.6812,-1.6894,-1.6574,-1.6049,-1.5621,-1.5296,-1.5296,-1.5387,-1.544,-1.5767,-1.5521,-1.5212,-1.5662,-1.5405,-1.511,-1.5546,-1.5601,-1.561,-1.5876,-1.5874,-1.5805,-1.5805,-1.5805,-1.5805,-1.5805,-1.5805,-1.5805,-1.5805,-1.5805,-1.5677,-1.5283,-1.5,-1.4701,-1.4316,-1.3922,-1.3631,-1.3519,-1.3511,-1.3408,-1.3151,-1.2783,-1.2552,-1.2552,-1.2209,-1.1995,-1.1995,-1.1738,-1.1576,-1.1576,-1.1576,-1.1576,-1.1576,-1.1576,-1.1713,-1.1995,-1.1995,-1.2184,-1.2552,-1.2552,-1.2757,-1.0431,-1.1138,-1.2058,-1.2401,-1.2972,-1.3689,-1.4598,-1.4583,-1.4374,-1.4414,-1.4138,-1.3601,-1.267,-1.2539,-1.2444,-1.2273,-1.2999,-1.3574,-1.3574,-1.4052,-1.4093,-1.3168,-1.3044,-1.2846,0.0,-1.1982,-1.1881,-1.2322,-1.2966,-1.3646,-1.4314,-1.4398,-1.4796,-1.5798,-1.6305,-1.6705,-1.7033,-1.7041,-1.7041,-1.7041,-1.6602,-1.6426,-1.6426,-1.6793,-1.7231,-1.7668,-1.8086,-1.8148,-1.7844,-1.833,-1.8275,-1.7959,-1.7951,-1.7951,-1.7959,-1.7951,-1.7131,-1.6049,-1.6049,-1.5809,-1.5394,-1.5387,-1.5379,-1.5486,-1.5958,-1.6095,-1.6181,-1.6699,-1.6636,-1.6345,-1.6328,-1.6062,-1.5805,-1.5805,-1.5805,-1.5805,-1.5805,-1.5805,-1.5805,-1.5805,-1.5805,-1.5677,-1.5283,-1.5206,-1.5078,-1.4718,-1.4333,-1.3939,-1.3554,-1.3511,-1.3502,-1.3494,-1.3168,-1.2963,-1.2963,-1.2603,-1.2372,-1.2372,-1.2363,-1.2355,-1.2355,-1.2355,-1.2355,-1.2355,-1.2355,-1.2363,-1.2372,-1.2372,-1.2577,-1.2963,-1.2963,-1.3151,-1.1834,-1.214,-1.2489,-1.3031,-1.366,-1.4282,-1.4816,-1.486,-1.4707,-1.454,-1.4209,-1.381,-1.3264,-1.3276,-1.3457,-1.3698,-1.4073,-1.4374,-1.4431,-1.4292,-1.3933,-1.3379,-1.3033,0.0,0.0,0.0,0.0,-1.3659,-1.3708,-1.4192,-1.5376,-1.5404,-1.5627,-1.6206,-1.6381,-1.652,-1.6632,-1.6984,-1.7072,-1.7079,-1.7501,-1.7597,-1.7262,-1.743,-1.743,-1.7262,-1.7159,-1.7003,-1.6888,-1.6838,-1.6769,-1.6645,-1.6668,-1.6574,-1.6327,-1.6656,-1.6237,-1.5643,-1.5974,-1.5966,-1.5891,-1.5891,-1.5891,-1.6034,-1.7065,-1.7354,-1.7359,-1.7311,-1.7192,-1.6978,-1.6178,-1.6113,-1.6024,-1.5556,-1.5576,-1.5805,-1.5805,-1.5805,-1.5805,-1.5805,-1.5805,-1.5762,-1.5625,-1.5386,-1.5095,-1.4735,-1.435,-1.3956,-1.3554,-1.3511,-1.3511,-1.3511,-1.3399,-1.3331,-1.3331,-1.2988,-1.2783,-1.2783,-1.2535,-1.2389,-1.2389,-1.2389,-1.2389,-1.2389,-1.2389,-1.2518,-1.2783,-1.2783,-1.2971,-1.3331,-1.3331,-1.3391,-1.2545,-1.2831,-1.3189,-1.3418,-1.407,-1.4662,-1.475,-1.486,-1.4816,-1.4462,-1.4109,-1.3778,-1.3526,-1.3611,-1.3863,-1.4328,-1.4697,-1.4967,-1.513,-1.4866,-1.4572,-1.4013,-1.3659,-1.3501,0.0,0.0,0.0,-1.4337,-1.4573,-1.4958,-1.5891,-1.6016,-1.6221,-1.6528,-1.6721,-1.6862,-1.6989,-1.7341,-1.7348,-1.7086,-1.7691,-1.7869,-1.7527,-1.7609,-1.743,-1.7079,-1.7079,-1.7004,-1.7062,-1.6858,-1.6718,-1.6645,-1.6514,-1.636,-1.6162,-1.6245,-1.6319,-1.6221,-1.5809,-1.5884,-1.6296,-1.6139,-1.6304,-1.6722,-1.7546,-1.7635,-1.7496,-1.7263,-1.7096,-1.6888,-1.6345,-1.6279,-1.6235,-1.5702,-1.577,-1.5959,-1.5831,-1.5805,-1.5805,-1.5805,-1.5805,-1.5805,-1.5805,-1.5591,-1.53,-1.4932,-1.4658,-1.4307,-1.3785,-1.3596,-1.3511,-1.3511,-1.3511,-1.3511,-1.3511,-1.3297,-1.3168,-1.3168,-1.2928,-1.2792,-1.2792,-1.2792,-1.2792,-1.2792,-1.2792,-1.292,-1.3168,-1.3168,-1.3288,-1.3511,-1.3511,-1.3579,-1.2645,-1.3319,-1.4126,-1.3667,-1.43,-1.4831,-1.4673,-1.4741,-1.4764,-1.426,-1.3925,-1.3573,0.0,0.0,-1.3607,-1.4165,-1.4891,-1.5413,-1.5435,-1.5784,-1.5808,0.0,0.0,0.0,0.0,0.0,0.0,-1.4482,0.0,-1.5913,-1.5965,-1.6235,-1.6543,-1.6872,-1.7334,-1.7758,-1.8087,-1.8087,-1.78,-1.7326,-1.7326,-1.7326,-1.7326,-1.7326,-1.7326,-1.7326,-1.78,-1.8171,-1.8237,-1.8213,-1.8073,-1.7793,-1.7371,-1.7239,-1.7261,-1.6844,-1.7155,-1.7627,-1.5477,-1.5636,-1.6617,-1.6214,-1.664,-1.731,-1.7392,-1.7066,-1.673,-1.673,-1.6492,-1.6301,-1.6673,-1.6591,-1.632,-1.6309,-1.6289,-1.6268,-1.5908,-1.5831,-1.5822,-1.5805,-1.5805,-1.5805,-1.5805,-1.5805,-1.5677,-1.53,-1.5232,-1.4941,-1.4196,-1.3768,-1.3528,-1.3511,-1.3511,-1.3511,-1.3511,-1.3511,-1.3511,-1.3511,-1.3511,-1.3511,-1.3511,-1.3511,-1.3511,-1.3511,-1.3511,-1.3511,-1.3511,-1.3511,-1.3511,-1.3511,-1.3528,-1.3742,-1.405,-1.4154,-1.4178,-1.4595,-1.5033,-1.5474,-1.5731,-1.5298,-1.4751,-1.4071,-1.324,-1.2386,0.0,0.0,0.0,-1.3286,-1.4103,0.0,-1.5238,-1.5457,0.0,-1.5313,0.0,-1.5672,-1.5672,-1.5796,0.0,0.0,-1.5682,-1.5862,-1.6579,-1.6689,-1.6879,-1.7201,-1.7294,-1.7431,-1.7512,-1.7512,-1.7613,-1.79,-1.79,-1.7707,-1.7326,-1.7707,-1.7707,-1.7333,-1.7426,-1.7561,-1.7557,-1.7318,-1.7206,-1.7115,-1.6778,-1.6485,-1.6292,-1.6122,-1.6301,-1.6409,-1.5506,-1.5906,-1.664,-1.6245,-1.6252,-1.65,-1.682,-1.7066,-1.7229,-1.7229,-1.6903,-1.6597,-1.6826,-1.6529,-1.621,-1.6304,-1.653,-1.6661,-1.6276,-1.6208,-1.6131,-1.5857,-1.5805,-1.5805,-1.5805,-1.5805,-1.5771,-1.5668,-1.5403,-1.4941,-1.4196,-1.4007,-1.3827,-1.3536,-1.3511,-1.3511,-1.3511,-1.3511,-1.3511,-1.3511,-1.3511,-1.3511,-1.3511,-1.3511,-1.3511,-1.3511,-1.3511,-1.3511,-1.3511,-1.3511,-1.3511,-1.3511,-1.381,-1.3999,-1.4132,-1.4044,-1.4133,-1.4486,-1.4666,-1.4793,-1.5186,-1.4601,-1.3897,-1.3469,-1.2695,-1.1975,-1.15,-1.1956,-1.2599,0.0,0.0,0.0,-1.5287,-1.5666,-1.5811,0.0,-1.5921,0.0,-1.6111,-1.6272,-1.6426,0.0,-1.6257,-1.6287,-1.6828,-1.6982,-1.7143,-1.7326,-1.7326,-1.7326,-1.7326,-1.7326,-1.7419,-1.7707,-1.7707,-1.7613,-1.7333,-1.7613,-1.7613,-1.7326,0.0,-1.7419,-1.7598,-1.7228,-1.7165,-1.7198,-1.6742,-1.6477,-1.6364,-1.6051,-1.6307,-1.6786,-1.5974,-1.6162,-1.6648,-1.6252,-1.6252,-1.6417,-1.6648,-1.6894,-1.6976,-1.664,-1.664,-1.6675,-1.6565,-1.6589,-1.6661,-1.653,-1.6842,-1.6979,-1.6454,-1.6444,-1.649,-1.6114,-1.5908,-1.5805,-1.5805,-1.5805,-1.5805,-1.5805,-1.5617,-1.5257,-1.4667,-1.4453,-1.4204,-1.381,-1.3768,-1.3691,-1.3528,-1.3511,-1.3511,-1.3511,-1.3511,-1.3511,-1.3511,-1.3511,-1.3511,-1.3511,-1.3511,-1.3511,-1.3511,-1.3682,-1.3768,-1.3776,-1.417,-1.4435,-1.363,-1.3521,-1.3998,-1.4118,-1.3844,-1.3715,-1.4076,-1.3508,-1.2845,-1.2671,0.0,-1.1889,-1.1709,-1.1906,-1.2389,-1.3429,0.0,-1.4707,-1.5301,-1.5989,-1.6305,-1.5965,-1.6243,-1.6448,-1.6491,-1.6499,-1.6616,-1.6901,-1.6916,-1.6916,-1.6916,-1.7179,-1.7326,-1.7326,-1.7326,-1.7326,-1.7326,-1.7326,-1.7326,-1.7326,-1.7326,-1.7326,-1.7326,-1.7326,-1.7326,-1.7326,-1.7326,-1.752,-1.7986,-1.7613,-1.7535,-1.7644,-1.7281,-1.7176,-1.7117,-1.6488,-1.6924,-1.7644,-1.6589,-1.6448,-1.6574,-1.6252,-1.6409,-1.6656,-1.6656,-1.6566,-1.6394,-1.556,-1.5891,-1.6394,-1.6221,-1.6722,-1.7147,-1.6979,-1.7229,-1.7293,-1.6621,-1.6725,-1.6807,-1.6504,-1.6088,-1.5857,-1.5814,-1.5805,-1.5805,-1.5805,-1.5805,-1.5677,-1.5334,-1.4975,-1.4607,-1.4213,-1.4179,-1.4016,-1.3622,-1.3588,-1.3562,-1.3511,-1.3511,-1.3511,-1.3511,-1.3554,-1.3588,-1.3588,-1.3639,-1.3665,-1.3665,-1.4007,-1.4179,-1.4187,-1.4572,-1.4923,-1.3918,-1.3697,-1.3785,-1.47,-1.4433,-1.4242,-1.5086,-1.408,0.0,0.0,-1.1559,-1.0933,-1.0639,-1.1107,-1.175,-1.2408,-1.3173,-1.3912,-1.4577,-1.5175,-1.5786,0.0,-1.6572,-1.6872,-1.7135,-1.7157,0.0,0.0,-1.7245,-1.7245,-1.7245,-1.7296,-1.7326,-1.7326,-1.7326,-1.7326,-1.7326,-1.7326,-1.7326,-1.7326,-1.7326,-1.7326,-1.7326,-1.7326,-1.7326,-1.7326,-1.7326,0.0,-1.7426,-1.78,-1.7956,-1.7995,-1.8364,-1.8336,-1.8021,-1.7966,-1.766,-1.7407,-1.7175,-1.6727,-1.6252,-1.6492,-1.6409,-1.617,-1.617,-1.6064,-1.5786,-1.5304,-1.522,-1.5455,-1.6198,-1.637,-1.6535,-1.7543,-1.7616,-1.7354,-1.7301,-1.7056,-1.6807,-1.6504,-1.6375,-1.6165,-1.5857,-1.5805,-1.5805,-1.5805,-1.5805,-1.578,-1.5711,-1.536,-1.4983,-1.4624,-1.4581,-1.4427,-1.4024,-1.399,-1.3853,-1.3528,-1.3511,-1.3511,-1.3511,-1.3819,-1.399,-1.399,-1.4316,-1.4478,-1.4478,-1.4547,-1.4581,-1.459,-1.4949,-1.5155,-1.405,-1.369,-1.3682,-1.4547,-1.3912,-1.3305,-1.4364,0.0,0.0,0.0,-1.099,-1.0524,-1.012,-1.059,0.0,-1.1943,-1.2796,-1.3668,-1.4471,-1.5301,-1.5926,-1.6316,-1.6799,-1.7165,0.0,-1.7326,-1.7326,-1.7326,-1.7326,-1.7326,-1.7326,-1.7326,-1.7326,-1.7326,-1.7326,-1.7326,-1.7326,-1.7326,-1.7326,-1.7326,-1.7326,-1.7326,-1.7326,-1.7326,-1.7326,-1.7326,-1.7326,-1.7326,-1.7326,-1.7613,-1.7707,-1.7707,-1.7893,-1.7887,-1.772,-1.7644,-1.7458,-1.7383,-1.704,-1.6653,-1.6408,-1.6629,-1.6154,-1.5575,-1.5575,-1.5387,-1.5032,-1.4378,-1.4538,-1.4956,-1.5296,-1.5628,-1.6124,-1.7139,-1.7392,-1.7504,-1.7721,-1.7466,-1.715,-1.697,-1.6693,-1.6293,-1.6105,-1.5925,-1.5805,-1.5805,-1.5805,-1.5805,-1.5805,-1.5634,-1.5377,-1.5,-1.4958,-1.4812,-1.4435,-1.4401,-1.4324,-1.4136,-1.4119,-1.4119,-1.4119,-1.4298,-1.4401,-1.4401,-1.459,-1.4684,-1.4684,-1.4872,-1.4958,-1.4966,-1.5343,-1.5514,-1.3932,-1.3637,-1.374,-1.4326,-1.3243,-1.2248,-1.3248,-1.1951,0.0,-1.058,-1.0359,-1.0114,-0.9777,-1.0204,-1.0897,0.0,-1.2461,-1.3415,-1.4186,-1.5255,-1.6007,0.0,-1.6835,0.0,-1.7318,-1.7326,0.0,-1.7326,-1.7326,-1.7326,-1.7326,-1.7326,-1.7326,-1.7326,-1.7326,-1.7326,-1.7326,-1.7326,-1.7326,-1.7326,-1.7326,-1.7326,-1.7326,-1.7326,-1.7326,-1.7326,-1.7326,-1.7326,-1.7333,-1.7419,-1.7426,-1.7512,-1.7613,-1.7606,-1.7576,-1.7415,-1.7546,-1.7761,-1.7154,-1.6885,-1.6715,-1.6513,-1.5861,-1.5137,-1.5137,-1.4713,-1.4196,-1.3366,-1.3782,-1.4364,-1.4468,-1.5047,-1.5869,-1.664,-1.7229,-1.7554,-1.7797,-1.7721,-1.7569,-1.7405,-1.6987,-1.6533,-1.6362,-1.6105,-1.5891,-1.5814,-1.5805,-1.5805,-1.5805,-1.5805,-1.5685,-1.5369,-1.5343,-1.5189,-1.4829,-1.4804,-1.4769,-1.4692,-1.4684,-1.4684,-1.4684,-1.4761,-1.4804,-1.4804,-1.4881,-1.4923,-1.4923,-1.5206,-1.5343,-1.5343,-1.566,-1.5805,-1.3285,-1.3484,-1.4026,-1.4377,-1.3243,-1.2123,-1.2684,0.0,-0.9964,-0.9621,-0.9375,-0.9248,-0.9346,-0.9788,-1.0311,-1.0748,-1.17,-1.26,-1.3074,-1.4163,-1.5094,-1.5848,0.0,0.0,-1.7304,-1.7326,-1.7326,-1.7326,-1.7326,-1.7326,-1.7326,-1.7326,-1.7326,-1.7326,-1.7326,-1.7326,-1.7326,-1.7326,-1.7326,-1.7326,-1.7326,-1.7326,-1.7326,-1.7326,-1.7326,-1.7326,-1.7326,-1.7326,0.0,-1.78,-1.7994,-1.8087,-1.8458,-1.8643,-1.8635,-1.8603,-1.8763,-1.8831,-1.8313,-1.7787,-1.7069,-1.6004,-1.5375,-1.5137,-1.5137,-1.4203,-1.3099,-1.2613,-1.2772,-1.3353,-1.4448,-1.5199,-1.5951,-1.7057,-1.7635,-1.7878,-1.7554,-1.7691,-1.7717,-1.6975,-1.7172,-1.7141,-1.6447,-1.631,-1.6182,-1.5848,-1.5805,-1.5805,-1.5805,-1.5805,-1.5788,-1.5754,-1.5745,-1.5591,-1.5197,-1.5163,-1.5026,-1.4701,-1.4684,-1.4684,-1.4684,-1.4992,-1.5163,-1.5163,-1.5514,-1.5703,-1.5703,-1.5737,-1.5745,-1.5745,-1.5788,-1.5805,-1.3603,-1.3859,-1.426,-1.4194,-1.3243,-1.2255,-1.2193,0.0,-0.986,-0.9369,-0.9188,-0.9007,-0.8788,-0.9331,-0.9882,-1.018,-1.132,-1.2157,-1.2386,-1.3482,-1.4545,-1.5218,-1.5899,0.0,0.0,0.0,-1.7326,-1.7326,-1.7326,-1.7326,-1.7326,-1.7326,-1.7326,-1.7326,-1.7326,-1.7326,-1.7326,-1.7326,-1.7326,-1.7326,-1.7326,-1.7326,-1.7326,-1.7326,-1.7326,-1.7326,-1.7326,-1.7326,0.0,-1.752,-1.7613,-1.7613,-1.78,-1.7893,-1.7893,-1.7893,-1.7895,-1.7942,-1.7553,-1.6944,-1.6234,-1.5511,-1.4669,-1.3818,-1.356,-1.2784,-1.1935,-1.1768,-1.1854,-1.2272,-1.3548,-1.5137,-1.6394,-1.6574,-1.7147,-1.7554,-1.7392,-1.7554,-1.7585,-1.7515,-1.7542,-1.7372,-1.7072,-1.6841,-1.6644,-1.6499,-1.6276,-1.6122,-1.6122,-1.5934,-1.5805,-1.5805,-1.5805,-1.5737,-1.5583,-1.5566,-1.5506,-1.5369,-1.5352,-1.5352,-1.5352,-1.5497,-1.5566,-1.5566,-1.572,-1.5805,-1.5805,-1.5805,-1.5805,-1.5805,-1.5805,-1.5805,-1.3282,-1.3616,-1.4004,-1.3872,-1.2958,-1.2021,-1.1885,-1.076,-0.9616,-0.9221,-0.9004,-0.8794,-0.8421,-0.8945,-0.9493,-0.9636,-1.084,-1.1752,-1.1791,-1.2871,-1.3933,-1.4598,0.0,-1.6162,0.0,-1.7181,-1.7326,-1.7326,-1.7326,-1.7326,-1.7326,-1.7326,-1.7326,-1.7326,-1.7326,-1.7326,-1.7326,-1.7326,-1.7326,-1.7326,-1.7326,-1.7326,-1.7326,-1.7326,-1.7326,-1.7326,-1.7326,-1.7326,0.0,-1.7326,-1.7326,-1.7326,-1.7326,-1.7326,-1.7326,-1.7326,-1.7419,-1.7483,-1.7162,-1.6557,-1.5881,-1.5214,-1.4191,-1.2983,-1.244,-1.1849,-1.1451,-1.1451,-1.157,-1.202,-1.3045,-1.4803,-1.6304,-1.6072,-1.673,-1.7392,-1.7229,-1.7392,-1.7635,-1.7797,-1.7738,-1.7603,-1.7492,-1.7252,-1.7047,-1.6935,-1.6687,-1.6507,-1.6507,-1.6182,-1.5968,-1.5968,-1.5865,-1.5805,-1.5805,-1.5805,-1.5805,-1.5805,-1.5805,-1.5805,-1.5805,-1.5805,-1.5805,-1.5805,-1.5805,-1.5805,-1.5805,-1.5805,-1.5805,-1.5805,-1.5805,-1.5857,-1.205,-1.2526,-1.3104,-1.3418,-1.2284,-1.1253,-1.1889,-1.0453,-0.8997,-0.8989,-0.8684,-0.8381,-0.8216,-0.8762,-0.9167,-0.9043,-1.0173,-1.1165,-1.1264,-1.2262,-1.3295,0.0,0.0,-1.5812,-1.645,-1.6965,-1.7326,-1.7326,-1.7326,0.0,-1.7326,-1.7326,-1.7326,-1.7326,-1.7326,-1.7326,-1.7326,-1.7326,-1.7326,-1.7326,-1.7326,-1.7326,-1.7326,-1.7326,-1.7326,-1.7326,-1.7326,-1.7326,0.0,-1.7326,-1.7326,-1.7326,-1.7326,-1.7326,-1.7326,-1.7326,-1.7613,-1.7994,-1.7512,-1.6921,-1.6288,-1.5094,-1.3995,-1.2962,-1.2318,-1.1881,-1.1698,-1.1698,-1.229,-1.3014,-1.3014,-1.4357,-1.5703,-1.5703,-1.6542,-1.731,-1.6812,-1.7383,-1.7878,-1.7473,-1.7708,-1.7912,-1.7535,-1.7466,-1.7338,-1.6978,-1.6918,-1.691,-1.691,-1.6584,-1.6418,-1.6418,-1.6019,-1.5805,-1.5805,-1.5805,-1.5805,-1.5805,-1.5805,-1.5805,-1.5805,-1.5805,-1.5805,-1.5805,-1.5805,-1.5805,-1.5805,-1.5805,-1.5805,-1.5805,-1.5805,-1.5994,-1.1706,-1.2123,-1.2463,-1.213,-1.1596,-1.0984,-1.0646,-0.9773,-0.9037,-0.8902,-0.8458,-0.8111,-0.8002,-0.8497,-0.8971,-0.9067,-0.9999,-1.0812,-1.0892,0.0,0.0,-1.3466,-1.5141,-1.6454,0.0,0.0,-1.7326,-1.7326,-1.7326,-1.7326,-1.7326,-1.7326,-1.7326,-1.7326,-1.7326,-1.7326,-1.7326,-1.7326,-1.7326,-1.7326,-1.7326,-1.7326,-1.7326,-1.7326,-1.7326,-1.7326,-1.7326,-1.7326,-1.7326,-1.7326,-1.7326,-1.7326,-1.7326,-1.7326,-1.7326,-1.7326,-1.7044,-1.6763,-1.6567,-1.5745,-1.4627,-1.426,-1.3541,-1.2824,-1.2634,-1.2258,-1.1903,-1.1741,-1.2127,-1.2613,-1.2613,-1.3957,-1.5213,-1.4887,-1.565,-1.6582,-1.6656,-1.6894,-1.7221,-1.7716,-1.7878,-1.7997,-1.7877,-1.786,-1.7817,-1.7706,-1.7458,-1.7295,-1.7295,-1.697,-1.6739,-1.6739,-1.6405,-1.6079,-1.5822,-1.5805,-1.5805,-1.5805,-1.5805,-1.5805,-1.5805,-1.5805,-1.5805,-1.5805,-1.5805,-1.5805,-1.5805,-1.6054,-1.631,-1.6567,-1.6567,-1.6764,-1.0798,-1.1128,-1.1324,-1.105,-1.0777,-1.0387,-0.9862,-0.9261,-0.8779,-0.8607,-0.8237,-0.7942,-0.7908,-0.8229,-0.8578,-0.8818,-0.9708,-1.0356,0.0,0.0,0.0,-1.3591,0.0,0.0,0.0,-1.7326,-1.7326,-1.7326,-1.7326,-1.7326,-1.7326,-1.7326,-1.7326,-1.7326,-1.7326,-1.7326,-1.7326,-1.7326,-1.7326,-1.7326,-1.7044,-1.6857,-1.6857,-1.6574,-1.6473,-1.648,-1.6756,-1.6857,0.0,-1.7232,-1.7326,-1.7326,-1.7326,-1.7326,-1.7326,-1.7326,-1.6857,-1.619,-1.619,-1.5235,-1.3902,-1.3902,-1.3431,-1.2764,-1.2764,-1.2495,-1.2118,-1.179,-1.1943,-1.2146,-1.2392,-1.3457,-1.4475,-1.4391,-1.5242,-1.6252,-1.6566,-1.673,-1.6894,-1.7635,-1.7797,-1.7797,-1.7797,-1.7878,-1.804,-1.804,-1.7834,-1.768,-1.768,-1.7355,-1.7132,-1.7132,-1.679,-1.6473,-1.6242,-1.6096,-1.6071,-1.6216,-1.6225,-1.6225,-1.6225,-1.6225,-1.6225,-1.6225,-1.6225,-1.6225,-1.6225,-1.6456,-1.6687,-1.6927,-1.7064,-1.7252,0.0,-0.9644,-0.9854,-1.0148,-0.9815,-0.9343,-0.9398,-0.8853,0.0,-0.8171,-0.7996,-0.7878,-0.7872,-0.7934,-0.8114,-0.8429,-0.9234,0.0,0.0,-1.098,0.0,0.0,-1.4953,0.0,-1.7109,-1.7232,-1.7232,-1.7326,-1.7326,-1.7326,-1.7326,-1.7326,-1.7326,-1.7326,-1.7326,-1.7326,-1.7326,-1.7326,-1.7232,-1.7232,-1.6567,-1.619,-1.6096,-1.5432,-1.5051,0.0,-1.5812,-1.6096,-1.619,-1.6857,-1.7138,-1.7232,-1.7138,-1.7232,-1.7326,-1.7138,-1.6662,-1.6096,-1.6096,-1.5051,-1.3811,-1.3811,-1.3335,-1.2764,-1.2764,-1.2603,-1.2323,-1.1876,-1.1725,-1.1822,-1.2284,-1.2894,-1.3561,-1.4146,-1.5242,-1.617,-1.6574,-1.6656,-1.6812,-1.7229,-1.731,-1.7392,-1.7392,-1.7716,-1.7951,-1.7951,-1.7959,-1.7959,-1.804,-1.7732,-1.7509,-1.7509,-1.7098,-1.6894,-1.6995,-1.6627,-1.6542,-1.6893,-1.6918,-1.6918,-1.6918,-1.6918,-1.6918,-1.6918,-1.6918,-1.6935,-1.6961,-1.6961,-1.697,-1.7004,-1.7355,-1.7509,-0.7553,0.0,-0.8532,-0.858,-0.83,-0.8094,0.0,-0.7953,-0.76,-0.7771,-0.7739,-0.7616,-0.741,-0.7779,-0.8168,-0.8306,-0.8986,-0.974,-1.0414,0.0,0.0,-1.3665,-1.4153,-1.5032,-1.6351,-1.6473,-1.6662,-1.7239,-1.7326,-1.7326,-1.7326,-1.7326,-1.7326,-1.7326,-1.7326,-1.7326,-1.7326,-1.7326,-1.7044,-1.6473,-1.6285,-1.5906,-1.5337,-1.5146,-1.5051,-1.5146,-1.5242,-1.5337,-1.5337,-1.5527,-1.5906,-1.6379,-1.5812,-1.6285,-1.7138,-1.6001,-1.5527,-1.5242,-1.4669,-1.3811,-1.305,-1.305,-1.2953,-1.2764,-1.2764,-1.2603,-1.2393,-1.228,-1.1984,-1.1688,-1.1805,-1.2608,-1.3476,-1.3561,-1.4664,-1.5673,-1.617,-1.6252,-1.6327,-1.682,-1.6902,-1.6984,-1.731,-1.7147,-1.7221,-1.7878,-1.7716,-1.7635,-1.7959,-1.7954,-1.7903,-1.7903,-1.6921,-1.6656,-1.7669,-1.7167,-1.6824,-1.6918,-1.6918,-1.6918,-1.6918,-1.6918,-1.6918,-1.6918,-1.6918,-1.7055,-1.7338,-1.7338,-1.7492,-1.7775,-1.7869,-1.7903,-0.6712,-0.7248,-0.7759,-0.7819,-0.7777,-0.7644,-0.7676,-0.7517,-0.7412,-0.7477,-0.7451,-0.7429,-0.7443,-0.7692,-0.7978,-0.8433,-0.9018,0.0,0.0,0.0,-1.2557,-1.3433,-1.3824,-1.4609,0.0,-1.619,-1.6473,-1.7232,-1.7326,-1.7326,-1.7326,-1.6951,-1.6756,-1.6756,-1.6473,-1.6473,-1.6756,-1.6756,-1.6473,-1.5717,-1.5337,-1.4956,-1.4573,-1.4196,-1.4004,-1.41,-1.4382,-1.4573,-1.4573,-1.4956,-1.5337,-1.5622,-1.5242,-1.5622,-1.619,-1.5432,-1.486,-1.4478,-1.4094,-1.3431,-1.2764,-1.2764,-1.2764,-1.2764,-1.2764,-1.2678,-1.2549,-1.2441,-1.2505,-1.2632,-1.2783,-1.3623,-1.4389,-1.4729,-1.5234,-1.5735,-1.624,-1.6035,-1.5922,-1.6335,-1.6409,-1.6492,-1.6738,-1.6738,-1.6894,-1.7635,-1.7221,-1.7049,-1.7878,-1.7294,-1.696,-1.7367,-1.6458,-1.6257,-1.7269,-1.7012,-1.6946,-1.7354,-1.7432,-1.7432,-1.7432,-1.7432,-1.7432,-1.7432,-1.7432,-1.7526,-1.7732,-1.7732,-1.7834,-1.804,-1.804,-1.804,-0.6322,-0.6737,-0.7206,-0.7489,-0.7558,-0.7506,-0.7286,-0.7306,-0.7312,-0.72,0.0,0.0,-0.77,-0.764,0.0,0.0,0.0,0.0,-1.1341,-1.1668,-1.2185,-1.3286,-1.3564,0.0,-1.5717,-1.5812,-1.619,-1.6951,-1.6951,-1.6951,-1.6951,-1.6379,-1.6001,-1.6001,-1.5432,-1.5337,-1.5805,-1.6001,-1.5622,-1.4956,-1.419,-1.3806,-1.3715,-1.305,-1.2764,-1.2861,0.0,0.0,-1.3811,-1.4484,-1.486,-1.486,-1.4765,-1.486,-1.5051,-1.486,-1.4382,-1.3908,-1.3811,-1.3335,-1.2764,-1.2764,-1.2764,-1.2764,-1.2764,-1.2764,-1.2721,-1.2527,-1.2908,-1.3479,-1.3981,-1.4701,-1.539,-1.6102,-1.6082,-1.6073,-1.6496,-1.6022,-1.5646,-1.6012,-1.5997,-1.5899,-1.5922,-1.6072,-1.6402,-1.6976,-1.6386,-1.6304,-1.7456,-1.6304,-1.5718,-1.6453,-1.5711,-1.5636,-1.6617,-1.6617,-1.6952,-1.7959,-1.804,-1.804,-1.804,-1.804,-1.804,-1.804,-1.804,-1.804,-1.804,-1.804,-1.804,-1.804,-1.804,-1.8066,-0.6065,-0.6304,-0.6488,-0.6917,-0.6938,-0.6881,-0.6939,-0.6867,-0.685,-0.6917,0.0,0.0,0.0,-0.8036,-0.859,0.0,0.0,-1.0638,0.0,0.0,-1.2189,-1.257,0.0,-1.3335,-1.419,-1.4286,-1.4573,-1.5337,-1.5432,-1.5432,-1.5432,-1.5337,-1.5242,-1.5242,-1.5146,-1.486,-1.4286,-1.4956,-1.486,-1.4094,-1.3998,-1.3522,-1.2953,-1.2861,-1.2764,-1.2764,0.0,-1.2953,-1.2953,-1.3147,-1.3528,-1.3998,-1.3431,-1.3908,-1.4956,-1.3624,-1.3431,-1.3811,-1.3147,-1.2861,-1.2764,-1.2764,-1.2764,-1.2764,-1.2764,-1.2764,-1.2754,-1.2721,-1.2661,-1.2781,-1.3485,-1.4037,-1.4578,-1.539,-1.5977,-1.6294,-1.6389,-1.6345,-1.6148,-1.5977,-1.5483,-1.5127,-1.5187,-1.4475,-1.423,-1.5213,-1.497,-1.4977,-1.5726,-1.556,-1.5477,-1.5553,-1.4803,-1.488,-1.6535,-1.6041,-1.6304,-1.787,-1.804,-1.804,-1.804,-1.804,-1.804,-1.804,-1.804,-1.804,-1.804,-1.804,-1.804,-1.804,-1.804,-1.8203,-0.5906,-0.6131,-0.6318,-0.6878,-0.702,-0.7155,-0.7334,-0.7329,-0.7307,-0.7367,0.0,0.0,0.0,0.0,-0.8972,-0.9534,0.0,-1.1187,-1.1661,-1.2027,-1.2334,0.0,0.0,-1.305,-1.3811,-1.3902,-1.419,-1.5051,-1.5051,-1.5051,-1.5051,-1.4669,-1.4478,-1.4478,-1.41,-1.3715,-1.3335,-1.3715,-1.3715,-1.3335,-1.3335,-1.3147,-1.2764,-1.2764,-1.2764,-1.2764,0.0,-1.2764,-1.2764,-1.2764,-1.2953,-1.3238,-1.2953,-1.3244,-1.3811,-1.305,-1.305,-1.3238,-1.2958,-1.2764,-1.2764,-1.2764,-1.2764,-1.2764,-1.2764,-1.305,-1.3431,-1.3431,-1.3634,-1.3921,-1.43,-1.5139,-1.5872,-1.5872,-1.6301,-1.6451,-1.5624,-1.5583,-1.5609,-1.5028,-1.4648,-1.4507,-1.4543,-1.4086,-1.3954,-1.4559,-1.4111,-1.4058,-1.5075,-1.4378,-1.3964,-1.4552,-1.3711,-1.3873,-1.5794,-1.547,-1.5959,-1.787,-1.804,-1.804,-1.804,-1.7797,-1.7797,-1.804,-1.7797,-1.7797,-1.804,-1.8237,-1.8331,-1.834,-1.8287,-1.8305,-0.5651,-0.5993,-0.631,-0.6983,-0.7311,-0.7453,-0.7747,-0.7844,-0.7898,-0.7957,-0.8156,0.0,0.0,-0.8926,0.0,-1.032,-1.1009,-1.158,-1.1989,-1.2258,-1.2501,-1.2732,-1.2764,-1.305,-1.3619,-1.3619,-1.3908,-1.4478,-1.458,-1.458,-1.458,-1.4004,-1.3619,-1.3619,-1.305,-1.2764,-1.2764,-1.2764,-1.2764,-1.2764,-1.2764,-1.2764,-1.2764,-1.2764,-1.2764,-1.2764,-1.2764,-1.2764,-1.2764,-1.2764,-1.2764,-1.2764,-1.2764,-1.2764,-1.2764,-1.2764,-1.2764,-1.2764,-1.2764,-1.2764,-1.2764,-1.2764,-1.2764,-1.2764,-1.2764,-1.3335,-1.3902,-1.3715,-1.4388,-1.5051,-1.5051,-1.5812,-1.6379,-1.6001,-1.6206,-1.6125,-1.5006,-1.4923,-1.502,-1.432,-1.4126,-1.3925,-1.3863,-1.3761,-1.3687,-1.3913,-1.3358,-1.3285,-1.4354,-1.3305,-1.2799,-1.3649,-1.2972,-1.3225,-1.5191,-1.5606,-1.6445,-1.7804,-1.8141,-1.8215,-1.8133,-1.7804,-1.773,-1.7887,-1.7648,-1.7648,-1.7887,-1.8255,-1.8381,-1.8389,-1.8247,-1.8246,-0.5158,-0.5643,-0.6152,-0.7141,-0.7378,-0.7453,-0.7747,-0.7968,-0.8251,-0.8414,-0.8651,0.0,0.0,-0.9577,-1.0353,-1.0853,-1.1348,-1.1758,-1.2102,0.0,-1.2501,-1.2732,-1.2764,-1.2861,-1.2856,-1.2856,-1.2856,-1.2953,-1.2953,-1.2953,-1.2953,-1.2953,-1.2856,-1.2856,-1.2861,-1.2764,-1.2764,-1.2764,-1.2764,-1.2764,-1.2764,-1.2764,-1.2764,-1.2764,-1.2764,-1.2764,-1.2764,-1.2764,-1.2764,-1.2764,-1.2764,-1.2764,-1.2764,-1.2764,-1.2764,-1.2764,-1.2764,-1.2764,-1.2764,-1.2764,-1.2764,-1.2764,-1.2764,-1.2764,-1.2764,-1.3335,-1.3715,-1.305,-1.3908,-1.5051,-1.5051,-1.4573,-1.4286,-1.5051,-1.5229,-1.5216,-1.5121,-1.5102,-1.5006,-1.4651,-1.405,-1.3519,-1.3276,-1.2689,-1.2312,-1.2472,-1.2472,-1.2558,-1.2808,-1.2717,-1.2717,-1.2808,-1.2717,-1.3345,-1.5041,-1.706,-1.8037,-1.7715,-1.8579,-1.8914,-1.8382,-1.8382,-1.8124,-1.7715,-1.7715,-1.7715,-1.7715,-1.7739,-1.7747,-1.7755,-1.7779,-1.7962,-0.5155,-0.5639,-0.6157,-0.7162,-0.7672,-0.7989,-0.8371,-0.8641,-0.8877,-0.9125,-0.9486,0.0,0.0,0.0,-1.0778,-1.0955,-1.151,-1.1946,-1.2129,-1.2382,-1.2662,-1.2754,-1.2764,-1.2764,-1.2764,-1.2764,-1.2764,-1.2764,-1.2764,-1.2764,-1.2764,-1.2764,-1.2764,-1.2764,-1.2764,-1.2764,-1.2764,-1.2764,-1.2764,-1.2764,-1.2764,-1.2764,-1.2764,-1.2764,-1.2764,-1.2764,-1.2764,-1.2764,-1.2764,-1.2764,-1.2764,-1.2764,-1.2764,-1.2764,-1.2764,-1.2764,-1.2764,-1.2764,-1.2764,-1.2764,-1.2764,-1.2764,-1.2764,-1.2861,-1.3335,-1.3715,-1.3908,-1.4196,-1.4292,-1.4382,-1.4382,-1.4478,-1.4573,-1.4382,-1.4765,-1.486,-1.3913,-1.4004,-1.4166,-1.3593,-1.3295,-1.3076,-1.2981,-1.268,-1.2536,-1.239,-1.2368,-1.2406,-1.2523,-1.295,-1.3223,-1.3405,-1.4392,-1.5198,-1.5637,-1.7336,-1.8274,-1.8105,-1.851,-1.8465,-1.7953,-1.7692,-1.7604,-1.7707,-1.7437,-1.7437,-1.7707,-1.7455,-1.7369,-1.728,-1.7221,-1.7294,-0.5074,-0.5648,-0.6243,-0.7178,-0.786,-0.8409,-0.8964,-0.9265,-0.9523,-0.9846,-1.0175,-1.0471,-1.0702,0.0,0.0,0.0,-1.1569,-1.1962,-1.2129,-1.2398,-1.2684,-1.2754,-1.2764,-1.2764,-1.2764,-1.2764,-1.2764,-1.2764,-1.2764,-1.2764,-1.2764,-1.2764,-1.2764,-1.2764,-1.2764,-1.2764,-1.2764,-1.2764,-1.2764,-1.2764,-1.2764,-1.2764,-1.2764,-1.2764,-1.2764,-1.2764,-1.2764,-1.2764,-1.2764,-1.2764,-1.2764,-1.2764,-1.2764,-1.2764,-1.2764,-1.2764,-1.2764,-1.2764,-1.2764,-1.2764,-1.2764,-1.2764,-1.2953,-1.3244,-1.3431,-1.3908,-1.4286,-1.4388,-1.419,-1.3811,-1.3619,-1.4004,-1.4196,-1.3715,-1.4004,-1.41,-1.305,-1.3244,-1.3431,-1.2856,-1.2764,-1.2764,-1.2764,-1.2764,-1.2711,-1.2549,-1.2527,-1.2558,-1.2571,-1.3194,-1.3829,-1.4203,-1.5484,-1.6299,-1.6111,-1.741,-1.819,-1.8001,-1.8232,-1.8193,-1.7846,-1.7303,-1.7124,-1.7578,-1.6764,-1.6764,-1.7578,-1.7054,-1.6974,-1.7165,-1.7115,-1.7037,-0.478,-0.5594,-0.6378,-0.7226,-0.7934,-0.8705,-0.9427,-0.9766,-1.0062,-1.0546,-1.0643,-1.0713,-1.0945,-1.0988,0.0,-1.1311,-1.1548,-1.1779,-1.2102,-1.2258,-1.2501,-1.2732,-1.2764,-1.2764,-1.2764,-1.2764,-1.2764,-1.2764,-1.2764,-1.2764,-1.2764,-1.2764,-1.2764,-1.2764,-1.2764,-1.2764,-1.2764,-1.2764,-1.2764,-1.2764,-1.2764,-1.2764,-1.2764,-1.2764,-1.2764,-1.2764,-1.2764,-1.2764,-1.2764,-1.2764,-1.2764,-1.2764,-1.2764,-1.2764,-1.2764,-1.2764,-1.2764,-1.2764,-1.2764,-1.2764,-1.2764,-1.2764,-1.3335,-1.3715,-1.305,-1.3908,-1.4765,-1.3244,-1.3335,-1.3715,-1.2953,-1.2764,-1.2764,-1.2764,-1.2764,-1.2764,-1.2764,-1.2764,-1.2764,-1.2764,-1.2764,-1.2764,-1.2764,-1.2764,-1.2764,-1.2764,-1.2764,-1.2764,-1.2764,-1.3426,-1.419,-1.5051,-1.5812,-1.619,-1.619,-1.7326,-1.7893,-1.7326,-1.78,-1.8087,-1.8087,-1.7318,-1.7037,-1.7326,-1.5906,-1.5812,-1.7326,-1.6567,-1.6567,-1.7326,-1.7326,-1.7326,-0.5278,-0.5972,-0.6689,-0.7873,-0.8603,-0.9233,-1.0121,-1.025,-1.0363,-1.1009,-1.1054,-1.116,-1.123,-1.1241,0.0,-1.1251,-1.1548,-1.1725,-1.179,-1.2156,-1.2441,-1.2511,-1.2662,-1.2764,-1.2764,-1.2764,-1.2764,-1.2764,-1.2764,-1.2764,-1.2764,-1.2764,-1.2764,-1.2764,-1.2764,-1.2764,-1.2764,-1.2764,-1.2764,-1.2764,-1.2764,-1.2764,-1.2764,-1.2764,-1.2764,-1.2764,-1.2764,-1.2764,-1.2764,-1.2764,-1.2764,-1.2764,-1.2764,-1.2764,-1.2764,-1.2764,-1.2764,-1.2764,-1.2764,-1.2764,-1.2764,-1.2764,-1.2953,-1.3141,-1.3522,-1.3528,-1.3528,-1.3528,-1.3335,-1.305,-1.2861,-1.2764,-1.2764,-1.2764,-1.2764,-1.2764,-1.2764,-1.2764,-1.2764,-1.2764,-1.2764,-1.2764,-1.2764,-1.2764,-1.2764,-1.2764,-1.2764,-1.2953,-1.3522,-1.4286,-1.5051,-1.5812,-1.6567,-1.6951,-1.6951,-1.7326,-1.7232,-1.6574,-1.6669,-1.7044,-1.752,-1.7326,-1.7232,-1.7326,-1.6857,-1.6857,-1.7326,-1.6567,-1.6285,-1.6567,-1.6567,-1.6567,-0.5634,-0.6405,-0.7228,-0.8377,-0.9077,-0.9712,-1.0579,-1.0746,0.0,0.0,-1.1262,-1.1262,-1.1262,-1.1262,0.0,-1.1262,-1.1472,-1.1591,-1.1688,-1.1946,-1.2167,-1.2258,-1.2479,-1.2624,-1.2624,-1.2711,-1.2764,-1.2764,-1.2764,-1.2764,-1.2764,-1.2764,-1.2764,-1.2764,-1.2764,-1.2764,-1.2764,-1.2764,-1.2764,-1.2764,-1.2764,-1.2764,-1.2764,-1.2764,-1.2764,-1.2764,-1.2764,-1.2764,-1.2764,-1.2764,-1.2764,-1.2764,-1.2764,-1.2764,-1.2764,-1.2764,-1.2764,-1.2764,-1.2764,-1.2764,-1.2764,-1.2764,-1.2953,-1.3238,-1.3431,-1.3335,-1.3238,-1.3426,-1.3147,-1.2764,-1.2764,-1.2764,-1.2764,-1.2764,-1.2764,-1.2764,-1.2764,-1.2764,-1.2764,-1.2764,-1.2764,-1.2764,-1.2764,-1.2764,-1.2764,-1.2764,-1.2764,-1.305,-1.3811,-1.4573,-1.5337,-1.6096,-1.6857,-1.7326,-1.7326,-1.7326,-1.6951,-1.6285,-1.6473,-1.6669,-1.6857,-1.6567,-1.6669,-1.7326,-1.6756,-1.6662,-1.7326,-1.6567,-1.6379,-1.6662,-1.6662,-1.6662,-0.5845,-0.6835,-0.7838,-0.8748,-0.9491,-1.0218,-1.0842,-1.1171,-1.1262,-1.1262,0.0,-1.1262,-1.1262,-1.1262,-1.1262,-1.1262,-1.1262,-1.1429,-1.1639,-1.1682,-1.1779,-1.1989,-1.2231,-1.2382,-1.2382,-1.2571,-1.27,-1.27,-1.2721,-1.2732,-1.2732,-1.2754,-1.2764,-1.2764,-1.2764,-1.2764,-1.2764,-1.2764,-1.2764,-1.2764,-1.2764,-1.2764,-1.2764,-1.2764,-1.2764,-1.2764,-1.2764,-1.2764,-1.2764,-1.2764,-1.2764,-1.2764,-1.2764,-1.2764,-1.2764,-1.2764,-1.2764,-1.2764,-1.2764,-1.2764,-1.2764,-1.2764,-1.3238,-1.3715,-1.2953,-1.3238,-1.3619,-1.2953,-1.2764,-1.2764,-1.2764,-1.2764,-1.2764,-1.2764,-1.2764,-1.2764,-1.2764,-1.2764,-1.2764,-1.2764,-1.2764,-1.2764,-1.2764,-1.2764,-1.2764,-1.2764,-1.2764,-1.305,-1.3811,-1.4573,-1.5337,-1.6096,-1.6857,-1.7326,-1.7326,-1.7326,-1.6951,-1.6285,-1.6857,-1.6857,-1.619,-1.5622,-1.5906,-1.7232,-1.6001,-1.6001,-1.7326,-1.6662,-1.6662,-1.7326,-1.7326,-1.7326,-0.594,-0.7067,-0.8197,-0.9022,-1.0078,-1.1036,-1.0993,-1.1171,-1.1262,-1.1262,-1.1262,-1.1262,-1.1262,-1.1262,-1.1262,-1.1262,-1.1262,-1.1283,-1.1418,-1.1585,-1.1715,-1.1768,-1.1984,-1.2124,-1.2124,-1.2265,-1.2297,-1.2297,-1.2382,-1.249,-1.249,-1.2662,-1.2764,-1.2764,-1.2764,-1.2764,-1.2764,-1.2764,-1.2764,-1.2764,-1.2764,-1.2764,-1.2764,-1.2764,-1.2764,-1.2764,-1.2764,-1.2764,-1.2764,-1.2764,-1.2764,-1.2764,-1.2764,-1.2764,-1.2764,-1.2764,-1.2764,-1.2764,-1.2764,-1.2764,-1.2764,-1.2764,-1.2953,-1.305,-1.2861,-1.2953,-1.2953,-1.2856,-1.2764,-1.2764,-1.2764,-1.2764,-1.2764,-1.2764,-1.2764,-1.2764,-1.2764,-1.2764,-1.2764,-1.2764,-1.2764,-1.2764,-1.2764,-1.2764,-1.2764,-1.2764,-1.2764,-1.305,-1.3811,-1.4573,-1.5337,-1.6096,-1.6857,-1.7326,-1.7326,-1.7326,-1.6951,-1.6285,-1.6379,-1.6379,-1.619,-1.6567,-1.6951,-1.7326,-1.6951,-1.6951,-1.7326,-1.7138,-1.7138,-1.7326,-1.7326,-1.7326,-0.5982,-0.7136,-0.8356,-0.9633,-1.0637,-1.123,-1.1192,-1.1257,-1.1262,-1.1262,-1.1262,-1.1262,-1.1262,-1.1262,-1.1262,-1.1262,-1.1262,-1.1262,-1.1262,-1.1456,-1.1532,-1.1532,-1.1741,-1.1881,-1.1881,-1.1978,-1.214,-1.214,-1.2167,-1.2242,-1.2242,-1.2355,-1.242,-1.242,-1.2538,-1.2597,-1.2597,-1.2711,-1.2764,-1.2764,-1.2764,-1.2764,-1.2764,-1.2764,-1.2764,-1.2764,-1.2764,-1.2764,-1.2764,-1.2764,-1.2764,-1.2764,-1.2764,-1.2764,-1.2764,-1.2764,-1.2764,-1.2764,-1.2764,-1.2764,-1.2764,-1.2764,-1.2764,-1.2764,-1.2764,-1.2764,-1.2764,-1.2764,-1.2764,-1.2764,-1.2764,-1.2764,-1.2764,-1.2764,-1.2764,-1.2764,-1.2764,-1.2764,-1.2764,-1.2764,-1.2764,-1.2764,-1.2764,-1.2764,-1.2764,-1.2764,-1.3147,-1.3431,-1.3811,-1.4573,-1.5242,-1.5622,-1.6001,-1.6379,-1.6756,-1.6756,-1.6567,-1.619,-1.6567,-1.6574,-1.619,-1.6951,-1.7326,-1.7326,-1.7326,-1.7326,-1.7326,-1.7326,-1.7326,-1.7326,-1.7326,-1.7326,-0.5941,-0.7101,-0.8448,-1.0113,-1.0875,-1.1182,-1.1134,-1.1171,-1.1289,-1.1289,-1.1322,-1.1262,-1.1262,-1.1262,-1.1262,-1.1262,-1.1262,-1.1262,-1.1262,-1.1262,-1.1262,-1.1262,-1.1521,-1.1639,-1.1639,-1.1817,-1.193,-1.193,-1.1962,-1.1989,-1.1989,-1.2118,-1.214,-1.214,-1.2248,-1.2371,-1.2414,-1.2608,-1.2721,-1.2764,-1.2764,-1.2764,-1.2764,-1.2764,-1.2764,-1.2764,-1.2764,-1.2764,-1.2764,-1.2764,-1.2764,-1.2764,-1.2764,-1.2764,-1.2764,-1.2764,-1.2764,-1.2764,-1.2764,-1.2764,-1.2764,-1.2764,-1.2764,-1.2764,-1.2764,-1.2764,-1.2764,-1.2764,-1.2764,-1.2764,-1.2764,-1.2764,-1.2764,-1.2764,-1.2764,-1.2764,-1.2764,-1.2764,-1.2764,-1.2764,-1.2764,-1.2764,-1.2764,-1.2764,-1.2764,-1.2764,-1.3431,-1.3902,-1.3902,-1.4573,-1.5051,-1.5051,-1.5051,-1.5432,-1.6096,-1.619,-1.6285,-1.6379,-1.6951,-1.7044,-1.6379,-1.6951,-1.7326,-1.7326,-1.7326,-1.7326,-1.7326,-1.7326,-1.7326,-1.7326,-1.7326,-1.7326,-0.5506,-0.6983,-0.8669,-1.0001,-1.039,-1.0487,0.0,0.0,-1.1031,0.0,-1.1203,-1.1262,-1.1262,-1.1262,-1.1262,-1.1262,-1.1262,-1.1262,-1.1262,-1.1262,-1.1262,-1.1262,-1.1289,-1.131,-1.131,-1.1429,-1.1445,-1.1445,-1.1634,-1.1747,-1.1747,-1.1935,-1.214,-1.214,-1.2173,-1.2199,-1.2414,-1.2447,-1.2565,-1.2764,-1.2764,-1.2764,-1.2764,-1.2764,-1.2764,-1.2764,-1.2764,-1.2764,-1.2764,-1.2764,-1.2764,-1.2764,-1.2764,-1.2764,-1.2764,-1.2764,-1.2764,-1.2764,-1.2764,-1.2764,-1.2764,-1.2764,-1.2764,-1.2764,-1.2764,-1.2764,-1.2764,-1.2764,-1.2764,-1.2764,-1.2764,-1.2764,-1.2764,-1.2764,-1.2764,-1.2764,-1.2764,-1.2764,-1.2764,-1.2764,-1.2764,-1.2764,-1.2764,-1.2764,-1.2764,-1.2764,-1.3431,-1.3902,-1.3902,-1.4573,-1.5051,-1.5051,-1.5051,-1.5432,-1.6096,-1.619,-1.6473,-1.7138,-1.7232,-1.7239,-1.7138,-1.7232,-1.7326,-1.7326,-1.7326,-1.7326,-1.7326,-1.7326,-1.7326,-1.7326,-1.7326,-1.7326,-0.5717,-0.6989,-0.8266,-0.9408,-0.9992,-1.032,-1.0423,-1.0724,-1.0982,-1.0982,-1.1069,-1.1187,-1.1241,-1.1262,-1.1262,-1.1262,-1.1262,-1.1262,-1.1262,-1.1262,-1.1262,-1.1262,-1.1262,-1.1262,-1.1262,-1.1262,-1.1262,-1.1262,-1.1445,-1.1505,-1.1505,-1.1602,-1.1661,-1.1661,-1.1785,-1.1903,-1.2016,-1.2145,-1.2328,-1.2571,-1.27,-1.2764,-1.2764,-1.2764,-1.2764,-1.2764,-1.2764,-1.2764,-1.2764,-1.2764,-1.2764,-1.2764,-1.2764,-1.2764,-1.2764,-1.2764,-1.2764,-1.2764,-1.2764,-1.2764,-1.2764,-1.2764,-1.2764,-1.2764,-1.2764,-1.2764,-1.2764,-1.2764,-1.2764,-1.2764,-1.2764,-1.2764,-1.2764,-1.2764,-1.2764,-1.2764,-1.2764,-1.2764,-1.2764,-1.2764,-1.2764,-1.2764,-1.2764,-1.2764,-1.2953,-1.3335,-1.3715,-1.4094,-1.4478,-1.4478,-1.4478,-1.4478,-1.4478,-1.4765,-1.5527,-1.6001,-1.6473,-1.7232,-1.7326,-1.7326,-1.7326,-1.7326,-1.7326,-1.7326,-1.7326,-1.7326,-1.7326,-1.7326,-1.7326,-1.7326,-1.7326,-1.7044,-0.5851,-0.6824,-0.7701,-0.8767,-0.9437,-0.9906,0.0,0.0,-1.081,0.0,-1.0902,-1.1042,-1.1225,-1.1311,-1.1262,-1.1262,-1.1262,-1.1262,-1.1262,-1.1262,-1.1262,-1.1262,-1.1262,-1.1262,-1.1262,-1.1262,-1.1262,-1.1262,-1.1262,-1.1262,-1.1262,-1.1262,-1.1262,-1.1262,-1.1521,-1.1639,-1.1698,-1.193,-1.2172,-1.242,-1.2592,-1.2705,-1.2764,-1.2764,-1.2764,-1.2764,-1.2764,-1.2764,-1.2764,-1.2764,-1.2764,-1.2764,-1.2764,-1.2764,-1.2764,-1.2764,-1.2764,-1.2764,-1.2764,-1.2764,-1.2764,-1.2764,-1.2764,-1.2764,-1.2764,-1.2764,-1.2764,-1.2764,-1.2764,-1.2764,-1.2764,-1.2764,-1.2764,-1.2764,-1.2764,-1.2764,-1.2764,-1.2764,-1.2764,-1.2764,-1.2764,-1.2764,-1.2764,-1.2764,-1.2953,-1.3522,-1.3811,-1.4094,-1.4478,-1.4196,-1.3902,-1.3902,-1.3902,-1.4286,-1.5337,-1.5906,-1.6473,-1.7232,-1.7326,-1.7326,-1.7326,-1.7326,-1.7232,-1.7044,-1.7232,-1.7326,-1.7326,-1.7326,-1.7232,-1.7044,-1.7232,-1.6756,-0.5561,-0.6344,-0.7207,-0.8254,-0.8576,-0.884,0.0,0.0,-1.0331,-1.0331,-1.0681,-1.0988,-1.0999,-1.1192,-1.1262,-1.1262,-1.1262,-1.1262,-1.1262,-1.1262,-1.1262,-1.1262,-1.1262,-1.1262,-1.1262,-1.1262,-1.1262,-1.1262,-1.1262,-1.1262,-1.1262,-1.1262,-1.1262,-1.1262,-1.1278,-1.1478,-1.1698,-1.193,-1.2172,-1.2414,-1.2425,-1.2549,-1.2764,-1.2764,-1.2764,-1.2764,-1.2764,-1.2764,-1.2764,-1.2764,-1.2764,-1.2764,-1.2764,-1.2764,-1.2764,-1.2764,-1.2764,-1.2764,-1.2764,-1.2764,-1.2764,-1.2764,-1.2764,-1.2764,-1.2764,-1.2764,-1.2764,-1.2764,-1.2764,-1.2764,-1.2764,-1.2764,-1.2764,-1.2764,-1.2764,-1.2764,-1.2764,-1.2764,-1.2764,-1.2764,-1.2764,-1.2764,-1.2764,-1.2764,-1.2764,-1.2861,-1.3426,-1.3619,-1.2953,-1.3528,-1.3902,-1.3902,-1.3902,-1.4478,-1.6001,-1.619,-1.6473,-1.7232,-1.7326,-1.7326,-1.7326,-1.7326,-1.6951,-1.6285,-1.6951,-1.7326,-1.7326,-1.7326,-1.6951,-1.6285,-1.6951,-1.6567,-0.5193,0.0,-0.655,-0.7397,-0.7941,-0.8409,-0.8904,-0.9556,-1.0056,-1.0056,-1.0433,-1.0762,-1.0762,-1.0955,-1.1165,-1.1241,-1.1262,-1.1262,-1.1262,-1.1262,-1.1262,-1.1262,-1.1262,-1.1262,-1.1262,-1.1262,-1.1262,-1.1262,-1.1262,-1.1262,-1.1262,-1.1262,-1.1262,-1.1262,-1.1262,-1.1392,-1.1478,-1.1709,-1.1871,-1.1957,-1.2269,-1.2457,-1.2544,-1.2694,-1.2764,-1.2764,-1.2764,-1.2764,-1.2764,-1.2764,-1.2764,-1.2764,-1.2764,-1.2764,-1.2764,-1.2764,-1.2764,-1.2764,-1.2764,-1.2764,-1.2764,-1.2764,-1.2764,-1.2764,-1.2764,-1.2764,-1.2764,-1.2764,-1.2764,-1.2764,-1.2764,-1.2565,-1.2175,-1.1883,-1.1785,-1.1785,-1.1785,-1.2273,-1.2764,-1.2764,-1.2764,-1.2764,-1.2764,-1.2764,-1.2953,-1.3431,-1.3335,-1.3238,-1.3522,-1.3715,-1.3902,-1.3902,-1.4758,-1.5622,-1.619,-1.6662,-1.7044,-1.7232,-1.7326,-1.7326,-1.7326,-1.7326,-1.7138,-1.6951,-1.7138,-1.7044,-1.6574,-1.7044,-1.7138,-1.6951,-1.7138,-1.6473,-0.4954,0.0,0.0,0.0,-0.7381,-0.7958,-0.8301,-0.9001,-0.9588,-0.9663,-1.0062,-1.0444,-1.0606,-1.0702,-1.0859,-1.1176,-1.1225,-1.1257,-1.1251,-1.1262,-1.1262,-1.1262,-1.1262,-1.1262,-1.1262,-1.1262,-1.1262,-1.1262,-1.1262,0.0,-1.1262,-1.1262,-1.1262,-1.1262,-1.1262,-1.1262,-1.1262,-1.1505,-1.1623,-1.1704,-1.2021,-1.2258,-1.242,-1.2576,-1.2689,-1.2764,-1.2764,-1.2764,-1.2764,-1.2764,-1.2764,-1.2764,-1.2764,-1.2764,-1.2764,-1.2764,-1.2764,-1.2764,-1.2764,-1.2764,-1.2764,-1.2764,-1.2764,-1.2764,-1.2764,-1.2662,-1.2565,-1.2565,-1.237,-1.2273,-1.2273,-1.198,-1.1683,-1.1292,-1.1194,-1.1194,-1.1194,-1.178,-1.2273,-1.2273,-1.2273,-1.2273,-1.2467,-1.2565,-1.2759,-1.3431,-1.3335,-1.3335,-1.3806,-1.4094,-1.4382,-1.4669,-1.5615,-1.6285,-1.6567,-1.7044,-1.7232,-1.6951,-1.7138,-1.7232,-1.6951,-1.7138,-1.7138,-1.6951,-1.7138,-1.6951,-1.619,-1.6951,-1.7138,-1.6951,-1.7138,-1.6662,0.0,0.0,0.0,0.0,0.0,0.0,-0.8028,0.0,-0.8915,-0.9141,-0.9572,-1.0051,-1.0509,-1.0423,-1.0428,-1.088,-1.0966,-1.1058,-1.1219,-1.1251,-1.1257,-1.1262,-1.1262,-1.1262,-1.1262,-1.1262,-1.1262,-1.1262,-1.1262,-1.1262,-1.1262,-1.1262,-1.1262,-1.1262,-1.1262,-1.1262,-1.1262,-1.1262,-1.1462,-1.1688,-1.1698,-1.1941,-1.2393,-1.2409,-1.2538,-1.2754,-1.2759,-1.2764,-1.2764,-1.2764,-1.2764,-1.2764,-1.2759,-1.2764,-1.2764,-1.2764,-1.2764,-1.2764,-1.2764,-1.2764,-1.2764,-1.2764,-1.2764,-1.2764,-1.2764,-1.237,-1.198,-1.198,-1.1585,-1.1194,-1.1194,-1.1198,-1.1194,-1.1194,-1.1194,-1.1194,-1.1194,-1.1194,-1.1194,-1.1194,-1.1194,-1.1389,-1.1883,-1.198,-1.2175,-1.2667,-1.3431,-1.3902,-1.3902,-1.4573,-1.5432,-1.6096,-1.619,-1.6473,-1.7232,-1.7326,-1.6951,-1.6285,-1.6943,-1.6951,-1.6285,-1.6951,-1.6951,-1.6285,-1.6951,-1.6951,-1.619,-1.6951,-1.6951,-1.6285,-1.6951,-1.685,-0.4791,0.0,0.0,0.0,0.0,0.0,0.0,0.0,-0.863,-0.8694,-0.9222,-0.9658,-0.961,-0.983,-1.0067,-1.0191,-1.0503,-1.0816,-1.1052,-1.1085,-1.1149,-1.1246,-1.1262,-1.1262,-1.1262,-1.1262,-1.1262,0.0,-1.1262,-1.1262,-1.1262,-1.1262,-1.1262,-1.1262,-1.1262,-1.1262,-1.1262,-1.1262,-1.1381,-1.1451,-1.1618,-1.1768,-1.1908,-1.2258,-1.2452,-1.2522,-1.2302,-1.2175,-1.2273,-1.2662,-1.2764,-1.2764,-1.237,-1.2175,-1.2175,-1.178,-1.1683,-1.1683,-1.1683,-1.1683,-1.1683,-1.1683,-1.1683,-1.1683,-1.1683,-1.159,-1.1389,-1.1389,-1.1292,-1.1096,-1.0703,-1.0605,-1.0511,-1.0117,-1.0019,-1.0019,-1.0019,-1.0019,-1.0314,-1.1096,-1.1194,-1.1292,-1.1389,-1.1389,-1.1585,-1.2175,-1.2657,-1.3232,-1.3806,-1.4867,-1.5724,-1.619,-1.6669,-1.7044,-1.7232,-1.7326,-1.7232,-1.7044,-1.7232,-1.7232,-1.7044,-1.7232,-1.7232,-1.7044,-1.7232,-1.7232,-1.7044,-1.7232,-1.7232,-1.6951,-1.6096,-1.5622,0.0,0.0,0.0,0.0,0.0,0.0,-0.7136,-0.7581,-0.803,0.0,-0.8624,-0.9028,-0.9174,-0.9351,-0.9577,-0.9873,-1.0073,-1.0347,-1.0778,-1.0837,-1.0891,-1.0952,-1.1139,-1.1198,-1.1198,-1.1289,-1.1262,-1.1262,-1.1262,-1.1262,-1.1262,-1.1262,-1.1262,-1.1262,-1.1262,-1.1262,-1.1262,-1.1262,-1.1262,-1.1267,-1.1488,-1.1607,-1.1709,-1.2091,-1.2224,-1.2047,-1.1981,-1.1878,-1.1688,-1.198,-1.2175,-1.2078,-1.178,-1.1683,-1.1585,-1.1292,-1.1194,-1.1194,-1.1194,-1.1194,-1.1194,-1.1194,-1.1194,-1.1194,-1.1194,-1.0998,-1.09,-1.09,-1.0703,-1.0507,-1.0117,-1.0117,-1.0019,-0.9628,-0.9628,-0.9628,-0.9628,-0.9628,-0.9821,-1.0413,-1.0511,-1.0609,-1.0801,-1.09,-1.1194,-1.217,-1.2845,-1.3522,-1.4382,-1.5439,-1.6204,-1.6487,-1.6965,-1.7239,-1.7326,-1.7239,-1.7052,-1.6669,-1.6857,-1.6864,-1.648,-1.6958,-1.7153,-1.7153,-1.7153,-1.7153,-1.7052,-1.7232,-1.7044,-1.6459,-1.5324,-1.4465,-0.5462,-0.5665,0.0,0.0,-0.6295,0.0,-0.6869,-0.7067,-0.7328,0.0,-0.7946,-0.8365,-0.8931,-0.8926,-0.9034,-0.9663,-0.9637,-0.9782,-1.0498,-1.06,-1.0606,-1.0632,-1.0816,-1.0945,-1.0945,-1.1144,-1.1187,-1.1187,-1.1209,-1.1322,-1.1262,-1.1262,-1.1262,-1.1262,-1.1262,-1.1262,-1.1262,-1.1262,-1.1262,-1.1262,-1.1262,-1.1374,-1.1577,-1.1839,-1.1796,-1.1532,-1.1778,-1.1585,-1.1096,-1.1096,-1.1096,-1.1194,-1.1096,-1.1096,-1.1096,-1.0998,-1.0998,-1.0998,-1.0998,-1.0998,-1.0998,-1.0998,-1.0998,-1.0998,-1.0998,-1.0708,-1.0314,-1.0314,-0.992,-0.9628,-0.9628,-0.9628,-0.9628,-0.9628,-0.9628,-0.9628,-0.9628,-0.9628,-0.9628,-0.9628,-0.9628,-0.9723,-1.0216,-1.0408,-1.0993,-1.2365,-1.3426,-1.4286,-1.5242,-1.6109,-1.6683,-1.6885,-1.6979,-1.7066,-1.7239,-1.7059,-1.669,-1.592,-1.6305,-1.6298,-1.5534,-1.6494,-1.6979,-1.6979,-1.6979,-1.6878,-1.6588,-1.7052,-1.6655,-1.5501,-1.4651,-1.3596,-0.5841,-0.6095,-0.6362,-0.6577,0.0,0.0,-0.7079,-0.7177,-0.7281,0.0,-0.7704,-0.7908,-0.8048,-0.8355,-0.863,-0.877,-0.9066,-0.9529,-1.0261,-1.0358,-1.0428,-1.0611,-1.0676,-1.0702,-1.0702,-1.0746,-1.0778,-1.0778,-1.095,-1.1144,-1.1251,-1.1262,-1.1262,-1.1262,-1.1262,-1.1262,-1.1262,-1.1262,-1.1262,-1.1262,-1.1262,-1.111,-1.0804,-1.1302,-1.1241,-1.0748,-1.0743,-1.0609,-1.0511,-1.0117,-1.0408,-1.1194,-1.0703,-1.0609,-1.0507,-1.0117,-0.992,-0.992,-0.992,-0.992,-0.992,-0.992,-0.992,-0.992,-0.992,-0.9821,-0.9727,-0.9727,-0.9727,-0.9628,-0.9628,-0.9628,-0.9628,-0.9628,-0.9628,-0.9628,-0.9628,-0.9628,-0.9628,-0.9628,-0.9628,-0.9628,-0.9727,-1.0502,-1.1272,-1.2058,-1.3323,-1.4484,-1.5343,-1.5927,-1.6407,-1.6683,-1.6683,-1.6683,-1.677,-1.6683,-1.6588,-1.6494,-1.6581,-1.6487,-1.6393,-1.6588,-1.6683,-1.6683,-1.6683,-1.6683,-1.6588,-1.6676,-1.6581,-1.6292,-1.4758,-1.3806,-0.6015,-0.6244,-0.6554,-0.6658,0.0,0.0,0.0,-0.7012,-0.6986,-0.7212,-0.7359,-0.7483,-0.7602,-0.7763,-0.8059,-0.8296,-0.8528,-0.8888,-0.9497,-0.968,-0.9793,-0.9906,-1.0132,-1.0277,-1.0277,-1.0492,-1.0638,-1.0638,-1.074,-1.0918,-1.1155,-1.1165,-1.1225,-1.1262,-1.1262,-1.1262,-1.1262,-1.1262,-1.1262,-1.1262,-1.1084,-1.0814,-1.0559,-1.0716,-1.0562,-1.0218,-1.0232,-1.0125,-1.0019,-0.9727,-0.992,-1.0413,-1.0117,-1.0019,-0.992,-0.9727,-0.9628,-0.9628,-0.9628,-0.9628,-0.9628,-0.9628,-0.9628,-0.9628,-0.9628,-0.9628,-0.9628,-0.9628,-0.9628,-0.9628,-0.9628,-0.9628,-0.9628,-0.9628,-0.9628,-0.9628,-0.9628,-0.9628,-0.9628,-0.9628,-1.0015,-1.04,-1.04,-1.0881,-1.1658,-1.2931,-1.3806,-1.458,-1.554,-1.5832,-1.6123,-1.6407,-1.6407,-1.6494,-1.6588,-1.6494,-1.6407,-1.6407,-1.6305,-1.6204,-1.6204,-1.6305,-1.6407,-1.6407,-1.6407,-1.6305,-1.6204,-1.573,-1.5242,-1.4854,-1.3896,-1.2894,0.0,0.0,0.0,0.0,0.0,-0.6649,0.0,0.0,0.0,-0.7031,-0.7085,0.0,0.0,0.0,0.0,0.0,0.0,0.0,0.0,-0.8818,0.0,-0.9179,-0.9545,-0.9782,-0.9782,-1.0175,-1.0471,-1.0562,-1.0568,-1.067,-1.0907,-1.0961,-1.1074,-1.1273,-1.1241,-1.1262,-1.1262,-1.1176,-1.1176,-1.117,-1.0727,-1.0463,-1.0386,-1.0243,-1.0008,-0.966,-0.9841,-0.9841,-0.9628,-0.9628,-0.9628,-0.9628,-0.9628,-0.9628,-0.9628,-0.9628,-0.9628,-0.9628,-0.9628,-0.9628,-0.9628,-0.9628,-0.9628,-0.9628,-0.9628,-0.9628,-0.9628,-0.9628,-0.9628,-0.9628,-0.9628,-0.9628,-0.9628,-0.9628,-0.9628,-0.9628,-0.9628,-0.9628,-0.9628,-0.9821,-1.0596,-1.117,-1.117,-1.156,-1.2344,-1.4004,-1.449,-1.4873,-1.573,-1.5832,-1.5927,-1.6123,-1.6123,-1.6218,-1.64,-1.6218,-1.6123,-1.6123,-1.5927,-1.5832,-1.5832,-1.6028,-1.6123,-1.6123,-1.6123,-1.6055,-1.5912,-1.4852,-1.3978,-1.3385,-1.2997,-1.184,0.0,0.0,0.0,0.0,-0.7053,0.0,0.0,0.0,-0.6756,-0.7031,0.0,0.0,0.0,0.0,0.0,0.0,0.0,0.0,-0.7914,-0.7941,-0.8269,-0.9104,-0.9254,-0.9287,-0.9287,-0.954,-0.9879,-1.0299,-1.0336,-1.0433,-1.0659,-1.0869,-1.0999,-1.1025,-1.1235,-1.1262,-1.1262,-1.0906,-1.0636,-1.0636,-1.0294,-0.9864,-0.9437,-0.9535,-0.9466,-0.9198,-0.9374,-0.9555,-0.9628,-0.9628,-0.9628,-0.9628,-0.9628,-0.9628,-0.9628,-0.9628,-0.9628,-0.9628,-0.9628,-0.9628,-0.9628,-0.9628,-0.9628,-0.9628,-0.9628,-0.9628,-0.9628,-0.9628,-0.9628,-0.9628,-0.9628,-0.9628,-0.9628,-0.9628,-0.9628,-0.9628,-0.9628,-0.9628,-0.9916,-1.0783,-1.1077,-1.117,-1.117,-1.2732,-1.4004,-1.4298,-1.5064,-1.5635,-1.5825,-1.5832,-1.5832,-1.5832,-1.5832,-1.5832,-1.5927,-1.5832,-1.5832,-1.5832,-1.5832,-1.5832,-1.5832,-1.5832,-1.5832,-1.5832,-1.5832,-1.5959,-1.6219,-1.5133,-1.4538,-1.4335,-1.2448,-1.1567,0.0,0.0,0.0,0.0,0.0,0.0,-0.7328,0.0,-0.688,0.0,0.0,0.0,0.0,0.0,0.0,0.0,-0.7413,0.0,0.0,0.0,-0.7795,0.0,0.0,0.0,-0.9179,-0.9232,-0.931,-0.9506,-0.9644,-0.9737,-0.9735,-1.0095,-1.0352,-1.0228,-1.0449,-1.0564,-1.0564,-1.0386,-1.0207,-1.0207,-0.9777,-0.9519,-0.9262,-0.908,-0.9005,-0.91,-0.9173,-0.9364,-0.9628,-0.9628,-0.9628,-0.9628,-0.9628,-0.9628,-0.9628,-0.9628,-0.9628,-0.9628,-0.9628,-0.9628,-0.9628,-0.9628,-0.9628,-0.9628,-0.9628,-0.9628,-0.9628,-0.9628,-0.9628,-0.9628,-0.9628,-0.9628,-0.9628,-0.9628,-0.9628,-0.9628,-0.9628,-1.0113,-1.069,-1.1077,-1.215,-1.3028,-1.3028,-1.3709,-1.449,-1.5064,-1.554,-1.5832,-1.5832,-1.5832,-1.5832,-1.5832,-1.5832,-1.5832,-1.5832,-1.5832,-1.5832,-1.5832,-1.5832,-1.5905,-1.6079,-1.6086,-1.6166,-1.6333,-1.6339,-1.6098,-1.5513,-1.44,-1.3667,-1.308,-1.2035,-1.1376,-0.7135,0.0,0.0,0.0,0.0,0.0,0.0,0.0,0.0,0.0,0.0,0.0,0.0,0.0,0.0,0.0,0.0,-0.7115,0.0,-0.7128,0.0,0.0,0.0,0.0,0.0,-0.8785,-0.8706,-0.8831,-0.8988,-0.9062,-0.898,-0.9433,-0.969,-0.9554,-0.9762,-0.9981,-1.0038,-0.9864,-0.9777,-0.9781,-0.9345,-0.9087,-0.9087,-0.874,-0.8759,-0.9096,-0.9096,-0.9299,-0.9628,-0.9628,-0.9628,-0.9628,-0.9628,-0.9628,-0.9628,-0.9628,-0.9628,-0.9628,-0.9628,-0.9628,-0.9628,-0.9628,-0.9628,-0.9628,-0.9628,-0.9628,-0.9628,-0.9628,-0.9628,-0.9628,-0.9628,-0.9628,-0.9628,-0.9628,-0.9628,-0.9723,-1.0015,-1.069,-1.1365,-1.195,-1.3221,-1.4394,-1.4682,-1.4682,-1.4968,-1.5737,-1.5832,-1.5832,-1.5832,-1.5832,-1.5832,-1.5832,-1.5832,-1.5832,-1.5832,-1.5832,-1.5865,-1.5945,-1.5952,-1.6086,-1.638,-1.6393,-1.6486,-1.67,-1.64,-1.5821,-1.5077,-1.374,-1.272,-1.2084,-1.1572,-1.1067,0.0,0.0,0.0,-0.722,0.0,0.0,0.0,0.0,-0.6874,0.0,0.0,0.0,0.0,0.0,0.0,0.0,0.0,0.0,0.0,0.0,0.0,0.0,0.0,0.0,0.0,-0.7939,-0.8058,0.0,-0.8399,-0.8528,-0.868,-0.8985,-0.9145,-0.9322,-0.9549,-0.9838,-1.0038,-0.9519,-0.9345,-0.9349,-0.8828,-0.8656,-0.8656,-0.8568,-0.8759,-0.9096,-0.9096,-0.9299,-0.9628,-0.9628,-0.9628,-0.9628,-0.9628,-0.9628,-0.9628,-0.9628,-0.9628,-0.9628,-0.9628,-0.9628,-0.9628,-0.9628,-0.9628,-0.9628,-0.9628,-0.9628,-0.9628,-0.9628,-0.9628,-0.9628,-0.9628,-0.9628,-0.9628,-0.9628,-0.9628,-0.9916,-1.0881,-1.1175,-1.1755,-1.3811,-1.4292,-1.4586,-1.554,-1.5737,-1.573,-1.5832,-1.5832,-1.5832,-1.5832,-1.5832,-1.5832,-1.5832,-1.5832,-1.5832,-1.5832,-1.5832,-1.5952,-1.6239,-1.6259,-1.6386,-1.668,-1.6693,-1.6693,-1.6707,-1.5582,-1.5191,-1.5341,-1.3146,-1.2205,-1.2403,-1.1035,-1.0517,0.0,0.0,-0.7836,-0.7593,0.0,0.0,0.0,0.0,0.0,0.0,0.0,0.0,0.0,0.0,0.0,0.0,0.0,0.0,0.0,0.0,0.0,0.0,0.0,0.0,0.0,0.0,0.0,-0.7389,-0.7668,0.0,-0.7359,-0.8079,-0.8371,-0.8319,-0.8634,-0.8893,-0.9087,-0.8915,-0.8828,-0.8828,-0.8656,-0.8568,-0.8568,-0.8568,-0.8759,-0.9096,-0.9096,-0.9299,-0.9628,-0.9628,-0.9628,-0.9628,-0.9628,-0.9628,-0.9628,-0.9628,-0.9628,-0.9628,-0.9628,-0.9628,-0.9628,-0.9628,-0.9628,-0.9628,-0.9628,-0.9628,-0.9628,-0.9628,-0.9628,-0.9628,-0.9628,-0.9628,-0.9628,-0.9628,-0.9628,-0.9723,-1.0015,-1.1179,-1.2436,-1.3119,-1.4382,-1.5159,-1.4873,-1.4777,-1.5064,-1.573,-1.5255,-1.5064,-1.573,-1.5832,-1.5832,-1.5832,-1.5832,-1.5832,-1.5832,-1.6012,-1.6246,-1.654,-1.656,-1.6693,-1.6987,-1.6266,-1.5937,-1.6118,-1.506,-1.4044,-1.3378,-1.2632,-1.1918,-1.1232,-1.0849,-1.0635,-0.8109,-0.8152,0.0,-0.7816,-0.7664,0.0,-0.725,0.0,-0.7301,0.0,0.0,0.0,0.0,0.0,0.0,0.0,0.0,0.0,0.0,-0.6333,0.0,0.0,0.0,0.0,0.0,0.0,-0.6774,-0.667,-0.6926,0.0,0.0,-0.744,-0.7774,-0.7837,-0.8073,-0.8312,-0.8564,-0.8568,-0.8568,-0.8568,-0.8568,-0.8568,-0.8568,-0.8629,-0.882,-0.91,-0.9161,-0.9356,-0.9628,-0.9628,-0.9628,-0.9628,-0.9628,-0.9628,-0.9628,-0.9628,-0.9628,-0.9628,-0.9628,-0.9628,-0.9628,-0.9628,-0.9628,-0.9628,-0.9628,-0.9628,-0.9628,-0.9628,-0.9628,-0.9628,-0.9628,-0.9628,-0.9628,-0.9628,-0.992,-1.0306,-1.0596,-1.2052,-1.3409,-1.3698,-1.4573,-1.5064,-1.4394,-1.4081,-1.4207,-1.5172,-1.4762,-1.4824,-1.589,-1.6079,-1.6139,-1.6139,-1.6139,-1.6139,-1.6139,-1.6319,-1.6553,-1.6847,-1.6449,-1.6369,-1.6756,-1.5602,-1.5041,-1.5209,-1.4137,-1.3166,-1.2417,-1.1987,-1.1446,-1.0692,-1.0692,-1.0692]},{"header":{"parameterUnit":"m.s-1","parameterCategory":1,"la1":30.6,"la2":29.2853,"lo1":-89.7004,"lo2":-87.6739,"dy":0.0162,"dx":0.0183,"nx":112,"ny":82,"refTime":"2024-06-10T00:00:00:Z","depth":0,"parameterNumber":3,"parameterNumberName":"V-component_of_WINDS"},"data":[0.0,0.0,0.0,0.0,0.0,0.0,0.0,0.0,0.0,0.0,0.0,0.0,0.0,0.0,0.0,0.0,0.0,0.0,0.0,0.0,0.0,0.0,0.0,0.0,0.0,0.0,0.0,0.0,0.0,0.0,0.0,0.0,0.0,0.0,0.0,0.0,0.0,0.0,0.0,0.0,0.0,0.0,0.0,0.0,0.0,0.0,0.0,0.0,0.0,0.0,0.0,0.0,0.0,0.0,0.0,0.0,0.0,0.0,0.0,0.0,0.0,0.0,0.0,0.0,0.0,0.0,0.0,0.0,0.0,0.0,0.0,0.0,0.0,0.0,0.0,0.0,0.0,0.0,0.0,0.0,0.0,0.0,0.0,0.0,0.0,0.0,0.0,0.0,0.0,0.0,1.5791,1.8199,2.0564,2.2223,2.2849,2.161,2.0156,1.861,0.0,0.0,0.0,0.0,0.0,0.0,0.0,0.0,0.0,0.0,0.0,0.0,0.0,0.0,0.0,0.0,0.0,0.0,0.0,0.0,0.0,0.0,0.0,0.0,0.0,0.0,0.0,0.0,0.0,0.0,0.0,0.0,0.0,0.0,0.0,0.0,0.0,0.0,0.0,0.0,0.0,0.0,0.0,0.0,0.0,0.0,0.0,0.0,0.0,0.0,0.0,0.0,0.0,0.0,0.0,0.0,0.0,0.0,0.0,0.0,0.0,0.0,0.0,0.0,0.0,0.0,0.0,0.0,0.0,0.0,0.0,0.0,0.0,0.0,0.0,0.0,0.0,0.0,0.0,0.0,0.0,0.0,0.0,0.0,0.0,0.0,0.0,0.0,0.0,0.0,0.0,0.0,0.0,0.0,0.0,0.0,0.0,0.0,0.0,0.0,0.0,0.0,0.0,0.0,1.6767,1.9717,2.1606,2.2746,2.2977,2.1651,2.0174,1.8669,0.0,0.0,0.0,0.0,0.0,0.0,0.0,0.0,0.0,0.0,0.0,0.0,0.0,0.0,0.0,0.0,0.0,0.0,0.0,0.0,0.0,0.0,0.0,0.0,0.0,0.0,0.0,0.0,0.0,0.0,0.0,0.0,0.0,0.0,0.0,0.0,0.0,0.0,0.0,0.0,0.0,0.0,0.0,0.0,0.0,0.0,0.0,0.0,0.0,0.0,0.0,0.0,0.0,0.0,0.0,0.0,0.0,0.0,0.0,0.0,0.0,0.0,0.0,0.0,0.0,0.0,0.0,0.0,0.0,0.0,0.0,0.0,0.0,0.0,0.0,0.0,0.0,0.0,0.0,0.0,0.0,0.0,0.0,0.0,0.0,0.0,0.0,0.0,0.0,0.0,0.0,0.0,0.0,0.0,0.0,0.0,0.0,0.0,0.0,0.0,0.0,0.0,0.0,1.6049,1.8388,2.0205,2.1856,2.2893,2.2944,2.1628,2.0174,1.8649,1.5623,0.0,0.0,0.0,0.0,0.0,0.0,0.0,0.0,0.0,0.0,0.0,0.0,0.0,0.0,0.0,0.0,0.0,0.0,0.0,0.0,0.0,0.0,0.0,0.0,0.0,0.0,0.0,0.0,0.0,0.0,0.0,0.0,0.0,0.0,0.0,0.0,0.0,0.0,0.0,0.0,0.0,0.0,0.0,0.0,0.0,0.0,0.0,0.0,0.0,0.0,0.0,0.0,0.0,0.0,0.0,0.0,0.0,0.0,0.0,0.0,0.0,0.0,0.0,0.0,0.0,0.0,0.0,0.0,0.0,0.0,0.0,0.0,0.0,0.0,0.0,0.0,0.0,0.0,0.0,0.0,0.0,0.0,0.0,0.0,0.0,0.0,0.0,0.0,0.0,0.0,0.0,0.0,0.0,0.0,0.0,0.0,0.0,0.0,0.0,0.0,0.0,0.0,1.7742,1.9378,2.0308,2.1898,2.2893,2.2927,2.1634,2.0156,1.8649,1.5621,0.0,0.0,0.0,0.0,0.0,0.0,0.0,0.0,0.0,0.0,0.0,0.0,0.0,0.0,0.0,0.0,0.0,0.0,0.0,0.0,0.0,0.0,0.0,0.0,0.0,0.0,0.0,0.0,0.0,0.0,0.0,0.0,0.0,0.0,0.0,0.0,0.0,0.0,0.0,0.0,0.0,0.0,0.0,0.0,0.0,0.0,0.0,0.0,0.0,0.0,0.0,0.0,0.0,0.0,0.0,0.0,0.0,0.0,0.0,0.0,0.0,0.0,0.0,0.0,0.0,0.0,0.0,0.0,0.0,0.0,0.0,0.0,0.0,0.0,0.0,0.0,0.0,0.0,0.0,0.0,0.0,0.0,0.0,0.0,0.0,0.0,0.0,0.0,0.0,0.0,0.0,0.0,0.0,0.0,0.0,0.0,0.0,0.0,0.0,0.0,0.0,0.0,1.7277,1.881,2.0257,2.1848,2.2876,2.307,2.1674,2.0195,1.8782,1.5667,0.0,0.0,0.0,0.0,0.0,0.0,0.0,0.0,0.0,0.0,0.0,0.0,0.0,0.0,0.0,0.0,0.0,0.0,0.0,0.0,0.0,0.0,0.0,0.0,0.0,0.0,0.0,0.0,0.0,0.0,0.0,0.0,0.0,0.0,0.0,0.0,0.0,0.0,0.0,0.0,0.0,0.0,0.0,0.0,0.0,0.0,0.0,0.0,0.0,0.0,0.0,0.0,0.0,0.0,0.0,0.0,0.0,0.0,0.0,0.0,0.0,0.0,0.0,0.0,0.0,0.0,0.0,0.0,0.0,0.0,0.0,0.0,0.0,0.0,0.0,0.0,0.0,0.0,0.0,0.0,0.0,0.0,0.0,0.0,0.0,0.0,0.0,0.0,0.0,0.0,0.0,0.0,0.0,0.0,0.0,0.0,0.0,0.0,0.0,0.0,0.0,0.0,1.8055,1.9581,0.0,2.2317,2.3045,2.3217,2.1839,2.0365,1.8913,0.0,0.0,0.0,0.0,0.0,0.0,0.0,0.0,0.0,0.0,0.0,0.0,0.0,0.0,0.0,0.0,0.0,0.0,0.0,0.0,0.0,0.0,0.0,0.0,0.0,0.0,0.0,0.0,0.0,0.0,0.0,0.0,0.0,0.0,0.0,0.0,0.0,0.0,0.0,0.0,0.0,0.0,0.0,0.0,0.0,0.0,0.0,0.0,0.0,0.0,0.0,0.0,0.0,0.0,0.0,0.0,0.0,0.0,0.0,0.0,0.0,0.0,0.0,0.0,0.0,0.0,0.0,0.0,0.0,0.0,0.0,0.0,0.0,0.0,0.0,0.0,0.0,0.0,0.0,0.0,0.0,0.0,0.0,0.0,0.0,0.0,0.0,0.0,0.0,0.0,0.0,0.0,0.0,0.0,0.0,0.0,0.0,0.0,0.0,0.0,0.0,0.0,1.6795,1.8554,2.0082,0.0,2.259,2.3175,2.336,2.2018,2.0528,1.9075,0.0,0.0,0.0,0.0,0.0,0.0,0.0,0.0,0.0,0.0,0.0,0.0,0.0,0.0,0.0,0.0,0.0,0.0,0.0,0.0,0.0,0.0,0.0,0.0,0.0,0.0,0.0,0.0,0.0,0.0,0.0,0.0,0.0,0.0,0.0,0.0,0.0,0.0,0.0,0.0,0.0,0.0,0.0,0.0,0.0,0.0,0.0,0.0,0.0,0.0,0.0,0.0,0.0,0.0,0.0,0.0,0.0,0.0,0.0,0.0,0.0,0.0,0.0,0.0,0.0,0.0,0.0,0.0,0.0,0.0,0.0,0.0,0.0,0.0,0.0,0.0,0.0,0.0,0.0,0.0,0.0,0.0,0.0,0.0,0.0,0.0,0.0,0.0,0.0,0.0,0.0,0.0,0.0,0.0,0.0,0.0,0.0,0.0,0.0,0.0,0.0,0.0,1.6812,1.8554,2.0122,2.1649,2.2639,2.3271,2.3481,2.2165,2.068,0.0,0.0,0.0,0.0,0.0,0.0,0.0,0.0,0.0,0.0,0.0,0.0,0.0,0.0,0.0,0.0,0.0,0.0,0.0,0.0,0.0,0.0,0.0,0.0,0.0,0.0,0.0,0.0,0.0,0.0,0.0,0.0,0.0,0.0,0.0,0.0,0.0,0.0,0.0,0.0,0.0,0.0,0.0,0.0,0.0,0.0,0.0,0.0,0.0,0.0,0.0,0.0,0.0,0.0,0.0,0.0,0.0,0.0,0.0,0.0,0.0,0.0,0.0,0.0,0.0,0.0,0.0,0.0,0.0,0.0,0.0,0.0,0.0,0.0,0.0,0.0,0.0,0.0,0.0,0.0,0.0,0.0,0.0,0.0,0.0,0.0,0.0,0.0,0.0,0.0,0.0,0.0,0.0,0.0,0.0,0.0,0.0,0.0,0.0,0.0,0.0,0.0,0.0,1.771,1.9444,2.1003,2.2538,2.3052,2.336,2.3549,2.2224,2.0771,1.9326,0.0,0.0,0.0,0.0,0.0,0.0,0.0,0.0,0.0,0.0,0.0,0.0,0.0,0.0,0.0,0.0,0.0,0.0,0.0,0.0,0.0,0.0,0.0,0.0,0.0,0.0,0.0,0.0,0.0,0.0,0.0,0.0,0.0,0.0,0.0,0.0,0.0,0.0,0.0,0.0,0.0,0.0,0.0,0.0,0.0,0.0,0.0,0.0,0.0,0.0,0.0,0.0,0.0,0.0,0.0,0.0,0.0,0.0,0.0,0.0,0.0,0.0,0.0,0.0,0.0,0.0,0.0,0.0,0.0,0.0,0.0,0.0,0.0,0.0,0.0,0.0,0.0,0.0,0.0,0.0,0.0,0.0,0.0,0.0,0.0,0.0,0.0,0.0,0.0,0.0,0.0,0.0,0.0,0.0,0.0,0.0,0.0,0.0,0.0,0.0,0.0,0.0,1.8081,1.9879,2.1427,2.2968,2.3313,2.3476,2.362,2.2343,2.0897,1.9439,0.0,0.0,0.0,0.0,0.0,0.0,0.0,0.0,0.0,0.0,0.0,0.0,0.0,0.0,0.0,0.0,0.0,0.0,0.0,0.0,0.0,0.0,0.0,0.0,0.0,0.0,0.0,0.0,0.0,0.0,0.0,0.0,0.0,0.0,0.0,0.0,0.0,0.0,0.0,0.0,0.0,0.0,0.0,0.0,0.0,0.0,0.0,0.0,0.0,0.0,0.0,0.0,0.0,0.0,0.0,0.0,0.0,0.0,0.0,0.0,0.0,0.0,0.0,0.0,0.0,0.0,0.0,0.0,0.0,0.0,0.0,0.0,0.0,0.0,0.0,0.0,0.0,0.0,0.0,0.0,0.0,0.0,0.0,0.0,0.0,0.0,0.0,0.0,0.0,0.0,0.0,0.0,0.0,0.0,0.0,0.0,0.0,0.0,0.0,0.0,0.0,0.0,1.8099,1.99,2.1494,2.3041,2.343,2.3634,2.3692,2.248,2.1074,1.9611,0.0,0.0,0.0,0.0,0.0,0.0,0.0,0.0,0.0,0.0,0.0,0.0,0.0,0.0,0.0,0.0,0.0,0.0,0.0,0.0,0.0,0.0,0.0,0.0,0.0,0.0,0.0,0.0,0.0,0.0,0.0,0.0,0.0,0.0,0.0,0.0,0.0,0.0,0.0,0.0,0.0,0.0,0.0,0.0,0.0,0.0,0.0,0.0,0.0,0.0,0.0,0.0,0.0,0.0,0.0,0.0,0.0,0.0,0.0,0.0,1.6757,0.0,0.0,0.0,0.0,0.0,0.0,0.0,0.0,0.0,0.0,0.0,0.0,0.0,0.0,0.0,0.0,0.0,0.0,0.0,0.0,0.0,0.0,0.0,0.0,0.0,0.0,0.0,0.0,0.0,0.0,0.0,0.0,0.0,0.0,0.0,0.0,0.0,0.0,0.0,0.0,0.0,1.8169,1.99,2.1516,2.3106,2.3476,2.3638,2.3692,2.2405,2.1259,2.0404,1.7485,0.0,0.0,0.0,0.0,0.0,0.0,0.0,0.0,0.0,0.0,0.0,0.0,0.0,0.0,0.0,0.0,0.0,0.0,0.0,0.0,0.0,0.0,0.0,0.0,0.0,0.0,0.0,0.0,0.0,0.0,0.0,0.0,0.0,0.0,0.0,0.0,0.0,0.0,0.0,0.0,0.0,0.0,0.0,0.0,0.0,0.0,0.0,0.0,0.0,0.0,0.0,0.0,0.0,0.0,0.0,0.0,0.0,0.0,0.0,0.0,1.8785,0.0,0.0,0.0,0.0,0.0,0.0,0.0,0.0,0.0,0.0,0.0,0.0,0.0,0.0,0.0,0.0,0.0,0.0,0.0,0.0,0.0,0.0,0.0,0.0,0.0,0.0,0.0,0.0,0.0,0.0,0.0,0.0,0.0,0.0,0.0,0.0,0.0,0.0,0.0,0.0,1.8766,2.0502,2.2003,2.3212,2.3567,2.3725,2.3795,2.2827,2.1752,2.0659,1.8679,0.0,0.0,0.0,0.0,0.0,0.0,0.0,0.0,0.0,0.0,0.0,0.0,0.0,0.0,0.0,0.0,0.0,0.0,0.0,0.0,0.0,0.0,0.0,0.0,0.0,0.0,0.0,0.0,0.0,0.0,0.0,0.0,0.0,0.0,0.0,0.0,0.0,0.0,0.0,0.0,0.0,0.0,0.0,0.0,0.0,0.0,0.0,0.0,0.0,0.0,0.0,0.0,0.0,2.2732,2.3173,2.3864,2.3882,2.3895,2.3817,2.2486,2.1947,2.1823,1.9584,0.0,0.0,0.0,0.0,0.0,0.0,0.0,0.0,0.0,0.0,0.0,0.0,0.0,0.0,0.0,0.0,0.0,0.0,0.0,0.0,0.0,0.0,0.0,0.0,2.0464,1.9472,1.792,0.0,0.0,0.0,0.0,0.0,0.0,0.0,0.0,0.0,0.0,0.0,1.9433,2.1141,2.2503,2.3312,2.3611,2.3807,2.3876,2.3247,2.2337,2.1081,1.9973,1.8227,0.0,0.0,0.0,0.0,0.0,0.0,0.0,0.0,0.0,0.0,0.0,0.0,0.0,0.0,0.0,0.0,0.0,0.0,0.0,0.0,0.0,0.0,0.0,0.0,0.0,0.0,0.0,0.0,0.0,0.0,0.0,0.0,1.5034,1.5916,0.0,0.0,0.0,0.0,0.0,0.0,0.0,0.0,0.0,0.0,0.0,0.0,0.0,2.2411,2.2571,2.4127,2.526,2.597,2.6843,2.7259,2.7252,2.7381,2.7424,2.742,2.7191,0.0,2.2754,2.1651,0.0,0.0,0.0,0.0,0.0,0.0,0.0,0.0,0.0,0.0,0.0,0.0,0.0,0.0,0.0,0.0,0.0,0.0,0.0,0.0,0.0,0.0,2.1654,2.2617,2.2556,2.2188,0.0,2.0083,1.8428,1.8269,1.6919,0.0,0.0,0.0,0.0,0.0,0.0,0.0,1.9556,2.1097,2.244,2.3312,2.3544,2.3682,2.3795,2.315,2.2682,2.2593,2.0537,1.9154,1.88,1.6091,0.0,0.0,0.0,0.0,0.0,0.0,0.0,0.0,0.0,0.0,0.0,0.0,0.0,0.0,0.0,0.0,0.0,0.0,0.0,0.0,0.0,0.0,0.0,0.0,0.0,0.0,0.0,0.0,0.0,1.4783,1.6269,1.6656,1.7195,1.7337,0.0,0.0,0.0,0.0,0.0,0.0,0.0,0.0,0.0,2.3006,2.4226,2.5081,2.555,2.64,2.6987,2.7277,2.7795,2.8015,2.7958,2.8015,2.8029,2.8048,2.8034,2.7193,2.5719,2.438,2.3837,2.3656,0.0,0.0,0.0,0.0,2.1652,2.2419,2.235,2.2669,2.292,2.1684,0.0,0.0,0.0,0.0,0.0,0.0,0.0,0.0,0.0,0.0,2.4727,2.5116,2.5,2.4777,2.4775,2.381,2.238,0.0,1.9104,1.823,1.8116,0.0,0.0,0.0,0.0,2.0022,2.0872,2.2013,2.287,2.3301,2.3453,2.3571,2.3664,2.3425,2.3109,2.2754,2.1388,2.0197,1.9311,1.7546,1.5931,0.0,0.0,0.0,0.0,0.0,0.0,0.0,0.0,0.0,0.0,0.0,0.0,0.0,0.0,0.0,0.0,0.0,0.0,0.0,0.0,0.0,0.0,0.0,0.0,0.0,0.0,0.0,0.0,1.6579,1.7764,1.7979,1.91,1.949,0.0,0.0,0.0,0.0,0.0,0.0,2.3108,2.3725,2.4591,2.5757,2.6797,2.7612,2.8229,2.853,2.8797,2.897,2.9113,2.9156,2.9124,2.9156,2.9177,2.9177,2.9177,2.9177,2.9022,2.6978,2.6142,2.5948,2.4053,2.3671,2.4094,2.3433,2.3983,2.5024,2.4894,2.5305,2.5631,2.4087,2.3431,2.3008,2.1606,0.0,0.0,0.0,0.0,2.5113,2.5113,2.5968,2.6801,2.6742,2.6664,2.6559,2.6304,2.6267,2.5392,0.0,2.1267,2.0622,2.0315,0.0,0.0,0.0,0.0,2.1266,2.1908,2.2693,2.3193,2.3265,2.336,2.3453,2.3544,2.3598,2.3394,2.2901,2.2022,2.1007,1.9839,1.8669,1.7219,1.5465,0.0,0.0,0.0,0.0,0.0,0.0,0.0,0.0,0.0,0.0,0.0,0.0,0.0,0.0,0.0,0.0,0.0,0.0,0.0,0.0,0.0,0.0,0.0,0.0,0.0,0.0,0.0,0.0,0.0,2.1448,2.1558,0.0,0.0,0.0,0.0,2.3825,2.398,2.5081,2.7535,2.7709,2.7702,2.7676,2.924,3.0062,2.9971,3.0734,3.1492,3.2179,3.2289,3.2308,3.2177,3.2305,3.2367,3.2367,3.2367,3.2367,3.2148,2.9119,2.7862,2.7855,2.7739,2.7662,2.7634,2.7533,2.7539,2.7593,2.7447,2.7427,2.7439,2.7127,2.6395,2.561,2.5518,2.5464,0.0,0.0,2.6098,2.6786,2.6786,2.6686,2.6599,2.6521,2.6909,2.7013,2.6121,2.6458,2.6443,0.0,2.3773,2.2939,2.2112,0.0,2.0701,2.0736,2.1417,2.1943,2.1978,2.2645,2.3144,2.3193,2.3217,2.3265,2.3383,2.3407,2.3481,2.3646,2.2168,2.1327,2.137,1.9153,1.7912,1.7914,1.5605,0.0,0.0,0.0,0.0,0.0,0.0,0.0,0.0,0.0,0.0,0.0,0.0,0.0,0.0,0.0,0.0,0.0,0.0,0.0,0.0,0.0,0.0,0.0,0.0,0.0,0.0,0.0,0.0,2.3446,2.4762,0.0,2.3812,2.435,2.5069,2.5766,2.6334,2.7451,2.925,2.9353,2.9726,3.0532,3.1138,3.1443,3.1391,3.18,3.2138,3.239,3.254,3.2569,3.2523,3.2588,3.26,3.26,3.26,3.26,3.2504,3.1416,3.0637,3.0069,2.9519,2.8951,2.8472,2.8453,2.8434,2.8434,2.8284,2.8245,2.8123,2.7351,2.6876,2.6562,2.6562,2.6544,2.647,2.647,2.693,2.7419,2.7419,2.7633,2.7833,2.7773,2.7814,2.7727,2.7379,2.7441,2.7242,2.61,2.489,2.3919,2.358,2.2828,2.2277,2.2277,2.2522,2.2716,2.2716,2.2944,2.3119,2.3126,2.3144,2.3151,2.3217,2.3241,2.3313,2.343,2.2018,2.1225,2.1363,1.956,1.8364,1.7985,1.7111,1.5817,0.0,0.0,0.0,0.0,0.0,0.0,0.0,0.0,0.0,0.0,0.0,0.0,0.0,0.0,0.0,0.0,0.0,0.0,0.0,0.0,0.0,0.0,0.0,0.0,0.0,0.0,2.5518,2.5538,2.7417,2.8193,2.6904,2.7962,2.8858,2.9178,2.9467,3.0152,3.1317,3.1096,3.1331,3.2165,3.2467,3.2578,3.2536,3.2938,3.3129,3.3129,3.3221,3.3275,3.3275,3.3275,3.3275,3.3275,3.3275,3.3256,3.3238,3.3275,3.2916,3.2272,3.1267,3.0547,3.0071,3.0015,2.9981,2.9962,2.9841,2.9773,2.9625,2.8914,2.8669,2.8649,2.8629,2.859,2.8532,2.841,2.8448,2.8517,2.8406,2.8446,2.8478,2.8402,2.8219,2.8075,2.7964,2.7922,2.7654,2.7069,2.5983,2.5085,2.4725,2.4225,2.3804,2.3541,2.3506,2.3418,2.3137,2.3095,2.3095,2.3095,2.3095,2.3095,2.3095,2.3144,2.3217,2.3289,2.1888,2.1141,2.1303,1.9758,1.8713,1.8302,1.7821,1.6694,1.489,0.0,0.0,0.0,0.0,0.0,0.0,0.0,0.0,0.0,0.0,0.0,0.0,0.0,0.0,0.0,0.0,0.0,0.0,0.0,0.0,0.0,0.0,0.0,2.5369,2.5459,2.6121,2.7901,2.9475,3.0155,2.9516,3.167,3.3384,3.4013,3.3327,3.3182,3.3895,3.3115,3.258,3.2503,3.3242,3.3582,3.3475,3.4245,3.4639,3.4677,3.4677,3.4655,3.4655,3.4658,3.4677,3.4658,3.4639,3.4599,3.4555,3.458,3.4561,3.437,3.314,3.2661,3.2591,3.2409,3.2317,3.226,3.2141,3.2056,3.2014,3.2014,3.1952,3.189,3.1805,3.1782,3.1714,3.1397,3.0754,3.0137,2.9823,2.9148,2.8482,2.8219,2.8138,2.8055,2.7742,2.7701,2.7701,2.7701,2.7162,2.6451,2.5577,2.5419,2.5156,2.4444,2.4321,0.0,2.3242,2.3112,2.3095,2.3095,2.3095,2.3095,2.3095,2.3095,2.3168,2.3289,2.1861,2.1096,2.1319,1.9775,1.8985,1.9135,1.7698,1.6578,1.5821,0.0,0.0,0.0,0.0,0.0,0.0,0.0,0.0,0.0,0.0,0.0,0.0,0.0,0.0,0.0,0.0,0.0,0.0,0.0,0.0,0.0,0.0,2.5034,2.5311,2.746,2.9396,3.0486,3.1968,3.2886,3.2788,3.3187,3.3328,3.3043,3.2794,3.3233,3.449,3.3769,3.3828,3.4894,3.4536,3.4609,3.5202,3.5254,3.5533,3.6112,3.598,3.5903,3.5903,3.6056,3.6112,3.6093,3.5716,3.554,3.5462,3.4846,3.4602,3.4545,3.4201,3.3694,3.3165,3.3125,3.271,3.2144,3.2058,3.2014,3.1995,3.1933,3.189,3.1827,3.1849,3.1672,3.1421,3.1347,3.0875,3.0448,3.0532,3.0127,2.9568,2.9137,2.887,2.8505,2.7853,2.7701,2.7701,2.7701,2.7555,2.7186,2.6402,2.5788,2.5331,2.5121,2.4629,0.0,2.4005,2.347,2.3095,2.3095,2.3095,2.3095,2.3095,2.3095,2.3144,2.3217,2.1794,2.1242,2.1921,2.0421,1.9606,1.9685,1.8752,1.8254,0.0,0.0,0.0,0.0,0.0,0.0,0.0,0.0,0.0,0.0,0.0,0.0,0.0,0.0,0.0,0.0,0.0,0.0,0.0,0.0,0.0,0.0,2.6918,2.7981,2.8687,2.9928,3.138,3.2987,3.4171,3.4778,3.4534,3.5005,3.4978,3.416,3.4407,3.4793,3.5241,3.5147,3.544,3.6213,3.5741,3.5698,3.6106,3.5962,3.6107,3.657,3.6544,3.6517,3.6544,3.6752,3.687,3.6833,3.6433,3.6293,3.6321,3.5708,3.546,0.0,0.0,0.0,0.0,0.0,3.3527,3.3053,3.3047,3.3047,3.3047,3.2985,3.2941,3.2873,3.2781,3.2551,3.2324,3.2173,3.1596,3.1041,3.1182,3.0688,3.0047,2.9768,2.9541,2.9281,2.8807,2.8438,2.8193,2.8193,2.7929,0.0,2.7139,2.6683,2.6262,2.5963,2.5542,2.5015,2.4392,2.3874,2.347,2.313,2.3095,2.3095,2.3095,2.3095,0.0,0.0,0.0,2.1459,2.1688,2.0841,0.0,0.0,0.0,0.0,0.0,0.0,0.0,0.0,1.8495,1.8896,0.0,0.0,0.0,0.0,0.0,0.0,0.0,0.0,0.0,0.0,0.0,0.0,0.0,0.0,0.0,0.0,3.0251,3.1863,3.3639,3.2609,3.2649,3.5182,3.581,3.5818,3.5274,3.6665,3.7222,3.6234,3.6896,3.6923,3.6043,0.0,0.0,0.0,0.0,3.6686,3.6583,3.6583,3.6611,3.6676,3.683,3.6883,3.6883,3.715,3.7267,3.7248,3.6919,3.6907,3.705,3.6789,3.663,3.6482,3.5292,3.482,3.4802,3.4798,3.4697,3.4577,3.4622,0.0,0.0,3.445,3.4386,3.4269,3.3998,3.3815,3.368,3.3379,3.2577,3.1813,3.1813,3.1101,3.0352,3.0279,3.0261,3.0211,3.0124,2.9544,2.9018,2.893,2.8315,2.7806,2.7719,2.7701,2.7473,2.6823,2.6665,2.6104,2.4761,2.4427,2.4015,2.3312,0.0,0.0,2.3095,2.3095,2.3144,2.3193,2.2523,2.1807,2.1149,2.1249,2.1253,2.1121,2.1227,2.131,2.1314,2.1373,2.1488,2.1565,2.1178,2.1007,0.0,0.0,0.0,0.0,0.0,0.0,0.0,0.0,0.0,0.0,0.0,0.0,0.0,0.0,0.0,3.0354,3.1465,3.2976,3.5363,3.4794,3.4585,3.5836,3.5439,3.5325,3.5932,3.6721,3.6877,3.6023,3.648,3.6733,3.6553,3.6684,3.6675,3.6463,3.682,3.7255,3.7679,3.7679,3.7932,3.843,0.0,0.0,3.7931,3.8126,3.8247,3.821,3.7645,3.7452,3.7424,3.6722,3.6544,3.6645,3.6398,3.618,3.6092,3.6456,3.6175,3.5589,3.5567,3.5053,3.4386,3.4173,3.4023,3.3921,3.3895,3.3662,0.0,3.3321,3.2955,3.2581,3.2581,3.2269,3.1859,3.1479,3.1161,3.0826,3.0229,2.9983,2.9685,2.9035,2.8772,2.8456,2.7806,2.7701,2.7648,2.7508,2.6981,2.649,2.6191,2.5068,2.4251,2.4093,2.3488,2.3095,2.3095,2.3095,2.3119,2.3119,2.2961,2.2564,2.1849,2.2394,2.2429,2.1814,2.1819,2.1932,2.2093,2.2114,2.2524,2.3306,2.2587,2.2262,0.0,0.0,0.0,0.0,0.0,0.0,0.0,0.0,0.0,0.0,0.0,2.704,0.0,0.0,3.1468,3.318,3.3465,3.4221,3.6356,3.5899,3.5545,3.6102,3.568,3.5522,3.6017,3.6302,3.6498,3.6498,3.7117,3.7493,3.7493,3.7929,3.8,3.7645,3.7867,3.8025,3.8107,3.8107,3.8248,3.8546,3.8528,3.8446,3.8354,3.859,3.8695,3.8676,3.8254,3.8129,3.8198,3.7676,3.7463,3.7426,3.7426,3.7156,3.6764,3.6986,3.6808,3.6429,3.6186,3.5764,3.5236,3.4531,3.4357,3.4302,3.3799,3.3606,3.3522,3.335,3.3063,3.2795,3.2795,3.2606,3.2335,3.213,3.1925,3.1703,3.1335,3.0931,3.0527,3.0124,2.9755,2.9246,2.8438,2.8298,2.8157,2.7754,2.7385,2.7016,2.6665,2.5928,2.5156,2.4392,2.3927,2.3541,2.3137,2.3095,2.3095,2.3095,2.3095,2.2944,2.2575,2.2909,2.2944,2.2558,2.2558,2.2611,2.2711,2.2711,2.2975,2.3445,2.303,2.2984,0.0,0.0,0.0,0.0,0.0,0.0,0.0,0.0,2.5483,2.8372,2.9832,3.0922,3.1975,3.2669,3.3644,3.5371,3.5162,3.5252,3.6602,3.6073,3.5615,3.5812,3.5725,3.5709,3.5878,3.6047,3.646,3.7268,3.8027,3.8471,3.8421,3.9083,3.9248,3.8773,3.8833,3.8683,3.8274,3.8307,3.8307,3.8274,3.8415,3.8478,3.8446,3.8621,3.8713,3.8683,3.8446,3.8446,3.8634,3.8396,3.8249,3.815,3.8117,3.7819,3.7337,3.7261,3.7143,3.695,3.6638,3.6417,3.6113,3.513,3.5005,3.5037,3.3949,3.3769,3.3835,3.3357,3.3001,3.2813,3.2749,3.2573,3.2406,3.2406,3.2406,3.2406,3.2406,3.1897,3.1388,3.123,3.072,3.0018,2.907,2.8895,2.8631,2.7824,2.7701,2.749,2.6894,2.67,2.6121,2.4901,2.462,2.419,2.34,2.3207,2.3095,2.3095,2.3095,2.3095,2.3095,2.3095,2.3095,2.3095,2.3095,2.3095,2.3095,2.3095,2.319,2.333,2.333,2.3531,2.126,2.2115,2.3007,2.3657,2.4303,2.5391,0.0,0.0,2.9055,3.1005,3.2691,3.3448,3.2328,3.4526,3.6141,3.494,3.5105,3.5453,3.564,3.4822,3.4297,3.4493,3.4648,3.5052,3.5822,3.6535,3.7286,3.8112,3.8745,3.9026,3.8849,3.8942,3.8743,3.8307,3.8683,3.8773,3.8478,3.8713,3.8713,3.8478,3.8478,3.8401,3.8241,3.8072,3.8003,3.7985,3.7792,3.7721,3.7757,3.7721,3.7792,3.7946,3.7879,3.799,3.8144,3.8162,3.7656,3.6997,3.6967,3.6618,3.6148,3.5763,3.5853,3.5852,3.4709,3.4383,3.4208,3.3149,3.2827,3.2749,3.2507,3.2422,3.2406,3.2406,3.2406,3.2406,3.2406,3.2318,3.2055,3.1335,3.1124,3.0598,2.9158,2.8895,2.8631,2.7824,2.7701,2.7666,2.7596,2.7016,2.6542,2.6367,2.57,2.498,2.4233,2.3506,2.3095,2.3095,2.3095,2.3095,2.3095,2.3095,2.3095,2.3095,2.3095,2.3095,2.3095,2.3095,2.347,2.4181,2.4181,2.4189,2.3602,2.375,2.4209,2.6332,2.716,2.8187,3.1027,3.1788,3.2348,3.3987,3.5328,3.6033,3.5404,3.6068,3.6608,0.0,3.5788,3.5321,3.5321,3.5076,3.4903,3.5001,3.4753,3.5127,3.646,3.6892,3.7577,3.8745,3.9051,3.9101,3.8892,3.891,3.8743,3.8368,3.8572,3.8559,3.8322,3.8451,3.8387,3.8138,3.8138,3.8054,3.7846,3.7775,3.7793,3.7899,3.7934,3.7951,3.7951,3.7951,3.802,3.8052,3.7774,3.7845,3.8068,3.8198,3.8008,3.7685,3.7685,3.7517,3.7189,3.6396,3.6331,3.6326,3.5213,3.4979,3.4911,3.382,3.3508,3.3321,3.2596,3.2406,3.2406,3.2406,3.2406,3.2406,3.2406,3.2406,3.23,3.1949,3.1897,3.1545,3.0422,2.9878,2.9334,2.8526,2.7999,2.7701,2.7701,2.7438,2.7087,2.6665,2.5893,2.5279,2.4963,2.4243,2.3786,2.3786,2.3365,2.3095,2.3095,2.3095,2.3095,2.3095,2.3095,2.333,2.3786,2.3786,2.419,2.4927,2.4927,2.5191,2.4972,2.5397,2.6279,2.8791,2.9776,3.0914,3.3858,3.4483,3.4889,3.6461,3.7165,3.7477,3.7294,3.6786,3.6509,3.6869,3.6095,3.5459,3.5459,3.5541,3.5528,3.5347,3.4952,3.5277,3.6769,3.6967,3.7592,3.908,3.9156,3.9017,3.8803,3.8803,3.8775,3.8761,3.8678,3.8689,3.8757,3.8757,3.8687,3.8546,3.8582,3.8528,3.8402,3.8347,3.8384,3.8474,3.8546,3.8491,3.8293,3.8204,3.8043,3.7846,3.754,3.7503,3.7667,3.7809,3.7946,3.8099,3.8099,3.8083,3.7977,3.7144,3.7014,3.6952,3.5806,3.5641,3.5598,3.4512,3.4036,3.3667,3.2914,3.2546,3.2406,3.2406,3.2406,3.2406,3.2406,3.2406,3.2406,3.2406,3.2406,3.2142,3.1335,3.0756,3.0141,2.9351,2.8544,2.7947,2.7719,2.7701,2.749,2.6964,2.6209,2.5735,2.5735,2.5033,2.4594,2.4594,2.4067,2.3734,2.3734,2.3734,2.3734,2.3734,2.3734,2.4015,2.4594,2.4594,2.498,2.5735,2.5735,2.6156,2.4874,2.7224,2.9844,3.0695,3.2107,3.3882,3.6359,3.6322,3.6259,3.8045,3.7814,3.7118,3.6537,3.6417,3.614,3.5393,3.5716,3.6065,3.6065,3.5903,3.555,3.4987,3.4887,3.5293,0.0,3.6604,3.7396,3.908,3.9036,3.8803,3.8541,3.851,3.8798,3.9349,3.9121,3.9355,4.0128,4.0146,4.0146,4.0146,4.033,4.0402,4.0402,4.0293,4.0107,3.9917,3.9686,3.9142,3.8486,3.8214,3.7677,3.7027,3.7009,3.7009,3.7027,3.7009,3.7374,3.7809,3.7809,3.7931,3.8101,3.8083,3.8065,3.7853,3.67,3.6363,3.6132,3.501,3.4108,3.3512,3.3476,3.2932,3.2406,3.2406,3.2406,3.2406,3.2406,3.2406,3.2406,3.2406,3.2406,3.2142,3.1335,3.1177,3.0914,3.0176,2.9386,2.8579,2.7789,2.7701,2.7683,2.7666,2.6999,2.6578,2.6578,2.584,2.5366,2.5366,2.5349,2.5331,2.5331,2.5331,2.5331,2.5331,2.5331,2.5349,2.5366,2.5366,2.5788,2.6578,2.6578,2.6964,2.6736,2.8774,3.0912,3.2252,3.381,3.5349,3.6671,3.6779,3.663,3.6676,3.6072,3.5284,3.4553,3.436,3.4604,3.5453,3.5726,3.6028,3.6635,3.6752,3.6535,3.5784,3.5807,0.0,0.0,0.0,0.0,3.8571,3.818,3.8211,3.9034,3.9107,3.9418,4.0111,4.004,4.0131,4.0402,4.0255,4.0218,4.0236,4.0012,3.9991,4.0179,4.0085,4.0085,4.0179,4.0181,4.0056,3.9787,3.9192,3.8797,3.851,3.7882,3.7667,3.7775,3.7631,3.7792,3.8,3.7862,3.7844,3.7897,3.7897,3.7897,3.7773,3.7017,3.6796,3.66,3.5691,3.5249,3.4811,3.3917,3.3407,3.3038,3.2613,3.2473,3.2406,3.2406,3.2406,3.2406,3.2406,3.2406,3.2318,3.2037,3.1545,3.0949,3.0211,2.9421,2.8614,2.7789,2.7701,2.7701,2.7701,2.7473,2.7332,2.7332,2.663,2.6209,2.6209,2.57,2.5401,2.5401,2.5401,2.5401,2.5401,2.5401,2.5665,2.6209,2.6209,2.6595,2.7332,2.7332,2.7455,2.8344,3.0412,3.2441,3.3212,3.4824,3.629,3.6508,3.6779,3.6671,3.5571,3.4702,3.3888,3.3063,3.2859,3.3262,3.4591,3.5263,3.5912,3.6754,3.7261,3.723,3.6504,3.6534,3.6842,0.0,0.0,0.0,3.8345,3.8214,3.8463,3.9333,3.9641,4.0148,4.0908,4.0872,4.0962,4.1269,4.1101,4.1119,4.125,4.093,4.0853,4.1043,4.0987,4.1063,4.1232,4.1232,4.1051,4.0688,4.0202,3.9625,3.8977,3.8438,3.808,3.7846,3.781,3.7757,3.7756,3.7931,3.7879,3.7703,3.7792,3.7721,3.7559,3.7203,3.7182,3.7097,3.6602,3.6249,3.5807,3.4854,3.4323,3.3847,3.3106,3.2878,3.2722,3.2458,3.2406,3.2406,3.2406,3.2406,3.2406,3.2406,3.1967,3.137,3.0615,3.0053,2.9334,2.8263,2.7877,2.7701,2.7701,2.7701,2.7701,2.7701,2.7262,2.6999,2.6999,2.6507,2.6226,2.6226,2.6226,2.6226,2.6226,2.6226,2.649,2.6999,2.6999,2.7245,2.7701,2.7701,2.7841,2.979,3.2155,3.4315,3.3617,3.5173,3.6707,3.5865,3.6258,3.6313,3.4641,3.3617,3.2769,0.0,0.0,3.2056,3.2773,3.4246,3.5659,3.6584,3.7412,3.7698,0.0,0.0,0.0,0.0,0.0,0.0,3.8478,0.0,3.9387,3.9514,4.0184,4.0944,4.1759,4.1591,4.1836,4.2609,4.2609,4.2709,4.2882,4.2882,4.2882,4.2882,4.2882,4.2882,4.2882,4.2709,4.2042,4.1203,4.1149,4.0121,3.8596,3.8788,3.8269,3.7443,3.7611,3.7427,3.7164,3.8068,3.7982,3.7542,3.7739,3.7595,3.7334,3.7297,3.7447,3.7577,3.7577,3.7041,3.6399,3.6166,3.558,3.4801,3.3811,3.3582,3.3354,3.2616,3.2458,3.2441,3.2406,3.2406,3.2406,3.2406,3.2406,3.2142,3.137,3.123,3.0633,2.9105,2.8228,2.7736,2.7701,2.7701,2.7701,2.7701,2.7701,2.7701,2.7701,2.7701,2.7701,2.7701,2.7701,2.7701,2.7701,2.7701,2.7701,2.7701,2.7701,2.7701,2.7701,2.7736,2.8175,3.2312,3.3754,3.4442,3.397,3.4781,3.5377,3.432,3.3959,3.3327,3.1791,3.0449,2.9179,0.0,0.0,0.0,3.111,3.3224,0.0,3.6561,3.7548,0.0,3.7902,0.0,3.879,3.879,3.9097,0.0,0.0,3.9059,3.926,4.1035,4.1307,4.1778,4.2574,4.2537,4.2607,4.2806,4.2806,4.2786,4.2688,4.2688,4.2747,4.2882,4.2747,4.2747,4.29,4.2862,4.2659,4.2386,4.1809,4.1284,4.0815,4.0257,3.9554,3.8851,3.8922,3.8402,3.7739,3.814,3.7933,3.7595,3.781,3.7828,3.7721,3.7558,3.7447,3.7372,3.7372,3.7306,3.7059,3.6289,3.606,3.5776,3.4765,3.4463,3.4161,3.3371,3.3231,3.3073,3.2511,3.2406,3.2406,3.2406,3.2406,3.2335,3.2125,3.1581,3.0633,2.9105,2.8719,2.8351,2.7754,2.7701,2.7701,2.7701,2.7701,2.7701,2.7701,2.7701,2.7701,2.7701,2.7701,2.7701,2.7701,2.7701,2.7701,2.7701,2.7701,2.7701,2.7701,2.8315,2.8702,3.2893,3.3906,3.4545,3.4335,3.4343,3.4225,3.3517,3.2602,3.1398,2.9728,2.8513,2.7378,2.6136,2.6853,2.8298,0.0,0.0,0.0,3.6456,3.7821,3.8648,0.0,3.9405,0.0,3.9876,4.0274,4.0655,0.0,4.0238,4.0311,4.1651,4.2031,4.2429,4.2882,4.2882,4.2882,4.2882,4.2882,4.2844,4.2747,4.2747,4.2786,4.29,4.2786,4.2786,4.2882,0.0,4.2844,4.275,4.2374,4.1957,4.152,4.118,4.0528,3.9752,3.9479,3.8887,3.815,3.8095,3.7846,3.7613,3.7828,3.7828,3.7757,3.7613,3.7503,3.7466,3.7595,3.7595,3.7452,3.6987,3.6827,3.6558,3.5651,3.531,3.5006,3.4305,3.4093,3.381,3.3038,3.2616,3.2406,3.2406,3.2406,3.2406,3.2406,3.2019,3.1282,3.0071,2.9632,2.9123,2.8315,2.8228,2.807,2.7736,2.7701,2.7701,2.7701,2.7701,2.7701,2.7701,2.7701,2.7701,2.7701,2.7701,2.7701,2.7701,2.8052,2.8228,2.8245,2.9053,2.9597,3.2703,3.3465,3.4431,3.4509,3.384,3.3112,3.296,3.1631,2.9897,2.7966,0.0,2.6241,2.54,2.5975,2.7344,2.9639,0.0,3.3623,3.6047,3.7898,3.9121,3.9514,4.0202,4.0709,4.0818,4.0836,4.1126,4.1832,4.1868,4.1868,4.1868,4.252,4.2882,4.2882,4.2882,4.2882,4.2882,4.2882,4.2882,4.2882,4.2882,4.2882,4.2882,4.2882,4.2882,4.2882,4.2882,4.2824,4.2631,4.2786,4.2332,4.1566,4.1719,4.1212,4.0326,3.9806,3.9155,3.8493,3.8151,3.7829,3.7667,3.7828,3.7739,3.7631,3.7631,3.7649,3.7703,3.8034,3.7897,3.7703,3.7756,3.7559,3.7195,3.6412,3.6121,3.5852,3.5242,3.4868,3.446,3.3651,3.2985,3.2511,3.2423,3.2406,3.2406,3.2406,3.2406,3.2142,3.144,3.0703,2.9948,2.9141,2.907,2.8737,2.7929,2.7859,2.7806,2.7701,2.7701,2.7701,2.7701,2.7789,2.7859,2.7859,2.7964,2.8017,2.8017,2.8719,2.907,2.9088,2.9878,3.0598,3.4021,3.39,3.3695,3.401,3.2997,3.18,3.1452,2.9854,0.0,0.0,2.437,2.3715,2.2946,2.3956,2.5488,2.7228,3.0116,3.2775,3.4551,3.6862,3.8828,0.0,4.1017,4.1759,4.2411,4.2466,0.0,0.0,4.2683,4.2683,4.2683,4.281,4.2882,4.2882,4.2882,4.2882,4.2882,4.2882,4.2882,4.2882,4.2882,4.2882,4.2882,4.2882,4.2882,4.2882,4.2882,0.0,4.2862,4.2709,4.2559,4.2393,4.2235,4.1672,4.0957,4.0831,3.9899,3.8643,3.8576,3.824,3.7828,3.7703,3.7739,3.7864,3.7864,3.7845,3.7877,3.8117,3.815,3.8013,3.7703,3.765,3.7578,3.6988,3.6932,3.6796,3.587,3.5164,3.446,3.3651,3.3388,3.3143,3.2511,3.2406,3.2406,3.2406,3.2406,3.2353,3.2213,3.1493,3.072,2.9983,2.9895,2.9579,2.8754,2.8684,2.8403,2.7736,2.7701,2.7701,2.7701,2.8333,2.8684,2.8684,2.9351,2.9685,2.9685,2.9825,2.9895,2.9913,3.065,3.1072,3.3713,3.3671,3.3653,3.4691,3.2775,3.0783,3.1337,0.0,0.0,0.0,2.317,2.244,2.1702,2.284,0.0,2.6667,2.9428,3.22,3.4722,3.7169,3.9171,4.0383,4.1578,4.2484,0.0,4.2882,4.2882,4.2882,4.2882,4.2882,4.2882,4.2882,4.2882,4.2882,4.2882,4.2882,4.2882,4.2882,4.2882,4.2882,4.2882,4.2882,4.2882,4.2882,4.2882,4.2882,4.2882,4.2882,4.2882,4.2786,4.2747,4.2747,4.267,4.2397,4.2001,4.1566,4.0881,3.9978,3.919,3.8761,3.842,3.7792,3.7828,3.807,3.807,3.8083,3.8162,3.8455,3.8373,3.8212,3.8099,3.7964,3.7756,3.7392,3.7297,3.7114,3.6535,3.5811,3.5162,3.4793,3.4037,3.3406,3.302,3.2651,3.2406,3.2406,3.2406,3.2406,3.2406,3.2055,3.1528,3.0756,3.0668,3.0369,2.9597,2.9527,2.9369,2.8983,2.8947,2.8947,2.8947,2.9316,2.9527,2.9527,2.9913,3.0106,3.0106,3.0492,3.0668,3.0685,3.1458,3.1809,3.3021,3.3334,3.4009,3.5457,3.2777,3.0125,3.1402,2.7985,0.0,2.3081,2.2215,2.1445,2.0849,2.2007,2.3774,0.0,2.8488,3.1224,3.4248,3.6829,3.8885,0.0,4.1669,0.0,4.2864,4.2882,0.0,4.2882,4.2882,4.2882,4.2882,4.2882,4.2882,4.2882,4.2882,4.2882,4.2882,4.2882,4.2882,4.2882,4.2882,4.2882,4.2882,4.2882,4.2882,4.2882,4.2882,4.2882,4.29,4.2844,4.2862,4.2806,4.2786,4.2768,4.2696,4.2044,4.1587,4.1092,3.9928,3.93,3.8905,3.8205,3.8057,3.8183,3.8183,3.8328,3.848,3.8818,3.8651,3.8418,3.8442,3.8198,3.7843,3.7595,3.7372,3.722,3.7105,3.6535,3.6022,3.5884,3.4828,3.3898,3.3547,3.302,3.2581,3.2423,3.2406,3.2406,3.2406,3.2406,3.216,3.151,3.1458,3.1142,3.0404,3.0352,3.0282,3.0124,3.0106,3.0106,3.0106,3.0264,3.0352,3.0352,3.051,3.0598,3.0598,3.1177,3.1458,3.1458,3.2107,3.2406,3.2676,3.3375,3.4715,3.5584,3.2777,3.0007,3.0812,0.0,2.3332,2.1736,2.069,2.0061,1.9929,2.1231,2.2625,2.3584,2.6433,2.9151,3.0988,3.3983,3.6895,3.9224,0.0,0.0,4.2828,4.2882,4.2882,4.2882,4.2882,4.2882,4.2882,4.2882,4.2882,4.2882,4.2882,4.2882,4.2882,4.2882,4.2882,4.2882,4.2882,4.2882,4.2882,4.2882,4.2882,4.2882,4.2882,4.2882,0.0,4.2709,4.2649,4.2609,4.245,4.2369,4.2351,4.2279,4.1652,4.0849,4.0891,3.995,3.8793,3.9118,3.8782,3.8183,3.8183,3.8499,3.8868,3.911,3.9017,3.8781,3.8387,3.8096,3.7808,3.7429,3.7182,3.7066,3.722,3.7091,3.6732,3.6198,3.5802,3.5144,3.3722,3.3441,3.3178,3.2493,3.2406,3.2406,3.2406,3.2406,3.2371,3.23,3.2283,3.1967,3.1159,3.1089,3.0808,3.0141,3.0106,3.0106,3.0106,3.0738,3.1089,3.1089,3.1809,3.2195,3.2195,3.2265,3.2283,3.2283,3.2371,3.2406,3.2841,3.4087,3.5294,3.5131,3.2777,3.0333,2.962,0.0,2.3228,2.1547,2.0517,1.9763,1.9283,2.0474,2.1811,2.2598,2.5426,2.796,2.9179,3.2151,3.5115,3.7667,3.9351,0.0,0.0,0.0,4.2882,4.2882,4.2882,4.2882,4.2882,4.2882,4.2882,4.2882,4.2882,4.2882,4.2882,4.2882,4.2882,4.2882,4.2882,4.2882,4.2882,4.2882,4.2882,4.2882,4.2882,4.2882,0.0,4.2824,4.2786,4.2786,4.2709,4.267,4.267,4.267,4.2415,4.2013,4.1605,4.116,4.069,4.0406,4.0304,4.0129,3.9102,3.9055,3.9343,3.9413,3.9388,3.9219,3.8796,3.8183,3.7703,3.7667,3.741,3.722,3.7297,3.722,3.7076,3.672,3.6166,3.5618,3.5004,3.453,3.4126,3.3828,3.3371,3.3055,3.3055,3.2669,3.2406,3.2406,3.2406,3.2265,3.1949,3.1914,3.1791,3.151,3.1475,3.1475,3.1475,3.1774,3.1914,3.1914,3.223,3.2406,3.2406,3.2406,3.2406,3.2406,3.2406,3.2406,3.2065,3.349,3.4661,3.4335,3.2071,2.9753,2.905,2.5816,2.2653,2.1462,2.0342,1.9409,1.8913,2.0091,2.1322,2.1899,2.4635,2.7028,2.7947,3.0882,3.3846,3.6359,0.0,4.0255,0.0,4.2793,4.2882,4.2882,4.2882,4.2882,4.2882,4.2882,4.2882,4.2882,4.2882,4.2882,4.2882,4.2882,4.2882,4.2882,4.2882,4.2882,4.2882,4.2882,4.2882,4.2882,4.2882,4.2882,0.0,4.2882,4.2882,4.2882,4.2882,4.2882,4.2882,4.2882,4.2844,4.2734,4.2211,4.2032,4.1917,4.1519,4.1508,4.1493,4.0373,4.0001,3.9934,3.9934,3.9696,3.9317,3.8989,3.8314,3.7721,3.7863,3.7577,3.7297,3.7372,3.7297,3.7182,3.7105,3.657,3.6092,3.5864,3.5372,3.4951,3.4723,3.4214,3.3845,3.3845,3.3178,3.2739,3.2739,3.2529,3.2406,3.2406,3.2406,3.2406,3.2406,3.2406,3.2406,3.2406,3.2406,3.2406,3.2406,3.2406,3.2406,3.2406,3.2406,3.2406,3.2406,3.2406,3.2511,2.9826,3.1003,3.2433,3.3212,3.0405,2.7852,2.9427,2.5393,2.1324,2.1306,1.9971,1.8824,1.8896,2.015,2.1209,2.1305,2.3965,2.6303,2.7193,3.0161,3.3114,0.0,0.0,4.0142,4.176,4.2522,4.2882,4.2882,4.2882,0.0,4.2882,4.2882,4.2882,4.2882,4.2882,4.2882,4.2882,4.2882,4.2882,4.2882,4.2882,4.2882,4.2882,4.2882,4.2882,4.2882,4.2882,4.2882,0.0,4.2882,4.2882,4.2882,4.2882,4.2882,4.2882,4.2882,4.2786,4.2649,4.2806,4.2413,4.1886,4.2331,4.2131,4.1745,4.1919,4.1436,4.0797,4.0797,3.9888,3.8896,3.8896,3.84,3.7911,3.7911,3.7596,3.7334,3.754,3.7279,3.7066,3.7259,3.7126,3.6724,3.5952,3.5811,3.5548,3.4811,3.4688,3.467,3.467,3.4003,3.3476,3.3476,3.2845,3.2406,3.2406,3.2406,3.2406,3.2406,3.2406,3.2406,3.2406,3.2406,3.2406,3.2406,3.2406,3.2406,3.2406,3.2406,3.2406,3.2406,3.2406,3.2792,2.8974,3.0196,3.1238,3.0404,2.925,2.8064,2.6853,2.4342,2.209,2.1491,2.0047,1.8878,1.8967,2.0263,2.1526,2.2162,2.444,2.6428,2.7302,0.0,0.0,3.4852,3.8685,4.1506,0.0,0.0,4.2882,4.2882,4.2882,4.2882,4.2882,4.2882,4.2882,4.2882,4.2882,4.2882,4.2882,4.2882,4.2882,4.2882,4.2882,4.2882,4.2882,4.2882,4.2882,4.2882,4.2882,4.2882,4.2882,4.2882,4.2882,4.2882,4.2882,4.2882,4.2882,4.2882,4.2995,4.3105,4.316,4.3259,4.3402,4.3565,4.361,4.3643,4.3699,4.275,4.1511,4.0947,3.9978,3.911,3.911,3.8609,3.8132,3.8281,3.8018,3.7685,3.7631,3.7503,3.7354,3.7143,3.7066,3.69,3.6654,3.6619,3.6531,3.6303,3.5794,3.546,3.546,3.4793,3.4319,3.4319,3.3634,3.2967,3.2441,3.2406,3.2406,3.2406,3.2406,3.2406,3.2406,3.2406,3.2406,3.2406,3.2406,3.2406,3.2406,3.2915,3.3441,3.3968,3.3968,3.4372,2.7066,2.807,2.8748,2.8415,2.7893,2.7059,2.5524,2.3662,2.2005,2.1169,1.9885,1.9056,1.945,2.0626,2.1916,2.3122,2.529,2.7155,0.0,0.0,0.0,3.6351,0.0,0.0,0.0,4.2882,4.2882,4.2882,4.2882,4.2882,4.2882,4.2882,4.2882,4.2882,4.2882,4.2882,4.2882,4.2882,4.2882,4.2882,4.2995,4.3069,4.3069,4.3178,4.3196,4.3214,4.3087,4.3069,0.0,4.292,4.2882,4.2882,4.2882,4.2882,4.2882,4.2882,4.3069,4.3303,4.3303,4.3627,4.4091,4.4091,4.4277,4.4515,4.4515,4.3576,4.2262,4.1116,4.0319,3.9728,3.9303,3.8807,3.846,3.8491,3.8204,3.7828,3.7649,3.7577,3.7503,3.7182,3.7105,3.7105,3.7105,3.7066,3.6987,3.6987,3.6566,3.625,3.625,3.5583,3.5127,3.5127,3.4424,3.3775,3.3301,3.3003,3.295,3.3248,3.3266,3.3266,3.3266,3.3266,3.3266,3.3266,3.3266,3.3266,3.3266,3.374,3.4214,3.4705,3.4986,3.5372,0.0,2.496,2.5339,2.6962,2.6252,2.5157,2.5136,2.3213,0.0,2.0481,1.9667,1.9378,2.0242,2.1221,2.2446,2.4137,2.6442,0.0,0.0,3.2347,0.0,0.0,4.1364,0.0,4.2885,4.292,4.292,4.2882,4.2882,4.2882,4.2882,4.2882,4.2882,4.2882,4.2882,4.2882,4.2882,4.2882,4.292,4.292,4.316,4.3303,4.3338,4.3579,4.3712,0.0,4.3442,4.3338,4.3303,4.3069,4.2957,4.292,4.2957,4.292,4.2882,4.2957,4.3124,4.3338,4.3338,4.3712,4.414,4.414,4.4306,4.4515,4.4515,4.3951,4.2975,4.1417,4.0891,4.0558,3.9562,3.9101,3.8833,3.8603,3.8204,3.7864,3.7667,3.7631,3.754,3.7372,3.7334,3.7297,3.7297,3.7143,3.7009,3.7009,3.7027,3.7027,3.6987,3.6355,3.5899,3.5899,3.5252,3.483,3.4846,3.4091,3.3915,3.4635,3.4688,3.4688,3.4688,3.4688,3.4688,3.4688,3.4688,3.4723,3.4776,3.4776,3.4793,3.4863,3.5583,3.5899,2.2249,0.0,2.3603,2.4063,2.3934,2.3674,0.0,2.2151,2.0741,2.0511,2.0293,2.0235,2.0499,2.2275,2.4062,2.5189,2.7453,2.9755,3.1815,0.0,0.0,4.0841,4.1995,4.2746,4.3159,4.3196,4.3124,4.2938,4.2882,4.2882,4.2882,4.2882,4.2882,4.2882,4.2882,4.2882,4.2882,4.2882,4.2995,4.3196,4.3267,4.3408,4.3612,4.3679,4.3712,4.3679,4.3646,4.3612,4.3612,4.3545,4.3408,4.3232,4.3442,4.3267,4.2957,4.3373,4.3545,4.3646,4.3841,4.414,4.4411,4.4411,4.444,4.4515,4.4515,4.3951,4.3219,4.2825,4.1792,4.076,4.0502,3.9686,3.8862,3.8833,3.8451,3.8072,3.7864,3.7828,3.7775,3.7558,3.7521,3.7484,3.7334,3.741,3.7354,3.7066,3.7143,3.7182,3.7027,3.6812,3.6707,3.6707,3.6288,3.6131,3.6429,3.5197,3.4495,3.4688,3.4688,3.4688,3.4688,3.4688,3.4688,3.4688,3.4688,3.4969,3.5548,3.5548,3.5864,3.6443,3.6636,3.6707,2.1127,2.198,2.2695,2.354,2.3759,2.37,2.3279,2.2467,2.1678,2.1263,2.1189,2.1424,2.2245,2.35,2.5111,2.7158,2.9267,0.0,0.0,0.0,4.0439,4.1965,4.2865,4.3347,0.0,4.3303,4.3196,4.292,4.2882,4.2882,4.2882,4.3032,4.3087,4.3087,4.3196,4.3196,4.3087,4.3087,4.3196,4.3477,4.3612,4.3744,4.3873,4.4017,4.4079,4.4048,4.3936,4.3873,4.3873,4.3744,4.3612,4.3511,4.3646,4.3511,4.3303,4.3579,4.3777,4.3905,4.403,4.4277,4.4515,4.4515,4.4515,4.4515,4.4515,4.4214,4.3764,4.3388,4.2556,4.1642,4.1166,4.0422,3.9803,3.9658,3.9173,3.8701,3.8492,3.8239,3.7969,3.7793,3.7739,3.7703,3.7594,3.7594,3.7503,3.7182,3.7354,3.7411,3.7066,3.7299,3.7431,3.7243,3.7184,3.7166,3.7246,3.6482,3.5931,3.5779,3.5741,3.5741,3.5741,3.5741,3.5741,3.5741,3.5741,3.5934,3.6355,3.6355,3.6566,3.6987,3.6987,3.6987,2.084,2.1529,2.2343,2.3934,2.4342,2.4174,2.3465,2.3172,2.2843,2.216,0.0,0.0,2.4236,2.4991,0.0,0.0,0.0,0.0,3.8908,4.0359,4.1469,4.2789,4.3685,0.0,4.3477,4.3442,4.3303,4.3032,4.3032,4.3032,4.3032,4.3232,4.3373,4.3373,4.3579,4.3612,4.3424,4.3373,4.3511,4.3744,4.3999,4.4121,4.417,4.4411,4.4515,4.4487,0.0,0.0,4.414,4.3923,4.3777,4.3777,4.3809,4.3777,4.3712,4.3777,4.3936,4.4109,4.414,4.4306,4.4515,4.4515,4.4515,4.4515,4.4515,4.4515,4.4364,4.3688,4.3231,4.275,4.1785,4.1227,4.0891,4.0616,4.0056,3.9533,3.9338,3.8921,3.8484,3.8185,3.8149,3.8148,3.7969,3.7863,3.7721,3.7466,3.7685,3.7721,3.7223,3.7721,3.7948,3.7614,3.7929,3.7982,3.7542,3.7542,3.7413,3.7027,3.6987,3.6987,3.6987,3.6987,3.6987,3.6987,3.6987,3.6987,3.6987,3.6987,3.6987,3.6987,3.6987,3.704,2.1687,2.2168,2.244,2.3352,2.3611,2.3607,2.3427,2.2817,2.223,2.2107,0.0,0.0,0.0,2.6912,2.9233,0.0,0.0,3.7099,0.0,0.0,4.216,4.3127,0.0,4.4306,4.3999,4.3968,4.3873,4.3612,4.3579,4.3579,4.3579,4.3612,4.3646,4.3646,4.3679,4.3777,4.3968,4.3744,4.3777,4.403,4.406,4.4229,4.444,4.4487,4.4515,4.4515,0.0,4.444,4.444,4.4383,4.4248,4.406,4.4277,4.4109,4.3744,4.4218,4.4277,4.414,4.4383,4.4487,4.4515,4.4515,4.4515,4.4515,4.4515,4.4515,4.4477,4.4364,4.3792,4.3147,4.2768,4.1952,4.1167,4.0891,4.056,4.0329,4.0311,4.0203,3.9967,3.9298,3.9306,3.9152,3.831,3.846,3.8572,3.8132,3.8249,3.8267,3.7966,3.8034,3.8068,3.8016,3.8314,3.8263,3.7578,3.7791,3.7721,3.7048,3.6987,3.6987,3.6987,3.6987,3.6987,3.6987,3.6987,3.6987,3.6987,3.6987,3.6987,3.6987,3.6987,3.7321,2.1853,2.2297,2.259,2.3791,2.4482,2.4951,2.5367,2.5145,2.4867,2.4869,0.0,0.0,0.0,0.0,3.1034,3.325,0.0,3.9014,4.0666,4.1942,4.3013,0.0,0.0,4.4411,4.414,4.4091,4.3999,4.3712,4.3712,4.3712,4.3712,4.3841,4.3905,4.3905,4.4048,4.417,4.4306,4.417,4.417,4.4306,4.4306,4.4383,4.4515,4.4515,4.4515,4.4515,0.0,4.4515,4.4515,4.4515,4.444,4.4335,4.444,4.4354,4.414,4.4411,4.4411,4.4335,4.4458,4.4515,4.4515,4.4515,4.4515,4.4515,4.4515,4.4411,4.4277,4.4277,4.3908,4.349,4.3367,4.275,4.2171,4.2171,4.165,4.1234,4.1512,4.1131,4.0662,4.0463,4.0519,4.0404,3.9955,4.0056,3.9958,3.92,3.9301,3.9154,3.8271,3.8455,3.8628,3.841,3.8718,3.864,3.7895,3.805,3.7826,3.7048,3.6987,3.6987,3.6987,3.7105,3.7105,3.6987,3.7105,3.7105,3.6987,3.7391,3.7584,3.7602,3.8126,3.8594,2.1658,2.2173,2.2754,2.4554,2.5496,2.6207,2.7017,2.7355,2.7542,2.7749,2.8444,0.0,0.0,3.1128,0.0,3.5991,3.8394,4.0384,4.1811,4.275,4.3595,4.4402,4.4515,4.4411,4.4199,4.4199,4.4109,4.3905,4.3892,4.3892,4.3892,4.4079,4.4199,4.4199,4.4411,4.4515,4.4515,4.4515,4.4515,4.4515,4.4515,4.4515,4.4515,4.4515,4.4515,4.4515,4.4515,4.4515,4.4515,4.4515,4.4515,4.4515,4.4515,4.4515,4.4515,4.4515,4.4515,4.4515,4.4515,4.4515,4.4515,4.4515,4.4515,4.4515,4.4515,4.4306,4.4091,4.417,4.3955,4.3712,4.3712,4.3442,4.3232,4.3373,4.2775,4.2283,4.2673,4.2143,4.1548,4.1588,4.1613,4.1619,4.1433,4.1427,4.1204,4.0406,4.0511,4.0288,3.9171,3.9478,3.9686,3.9361,3.963,3.9526,3.8813,3.8627,3.8277,3.775,3.7611,3.7554,3.7594,3.775,3.7807,3.7711,3.7845,3.7845,3.7711,3.8272,3.8536,3.8554,3.9354,3.9807,2.1077,2.1821,2.296,2.5321,2.5944,2.6207,2.7017,2.7786,2.8538,2.9345,3.0171,0.0,0.0,3.34,3.6104,3.785,3.9577,4.1004,4.186,0.0,4.3595,4.4402,4.4515,4.4487,4.4468,4.4468,4.4468,4.444,4.444,4.444,4.444,4.444,4.4468,4.4468,4.4487,4.4515,4.4515,4.4515,4.4515,4.4515,4.4515,4.4515,4.4515,4.4515,4.4515,4.4515,4.4515,4.4515,4.4515,4.4515,4.4515,4.4515,4.4515,4.4515,4.4515,4.4515,4.4515,4.4515,4.4515,4.4515,4.4515,4.4515,4.4515,4.4515,4.4515,4.4306,4.417,4.4411,4.4109,4.3712,4.3712,4.3873,4.3968,4.3712,4.3609,4.3572,4.3605,4.355,4.3273,4.2548,4.2607,4.2552,4.1789,4.1829,4.19,4.1771,4.1771,4.1725,4.1568,4.1595,4.1595,4.1568,4.1595,4.1378,4.0771,3.9947,3.958,3.9789,3.9393,3.9212,3.9421,3.9421,3.954,3.9789,3.9789,3.9789,3.9789,3.9843,3.986,3.9878,3.9932,4.0342,2.1681,2.2205,2.2978,2.5396,2.6754,2.7862,2.9194,3.0133,3.0959,3.1823,3.3081,0.0,0.0,0.0,3.7587,3.8206,4.014,4.1661,4.1954,4.3182,4.4158,4.4477,4.4515,4.4515,4.4515,4.4515,4.4515,4.4515,4.4515,4.4515,4.4515,4.4515,4.4515,4.4515,4.4515,4.4515,4.4515,4.4515,4.4515,4.4515,4.4515,4.4515,4.4515,4.4515,4.4515,4.4515,4.4515,4.4515,4.4515,4.4515,4.4515,4.4515,4.4515,4.4515,4.4515,4.4515,4.4515,4.4515,4.4515,4.4515,4.4515,4.4515,4.4515,4.4487,4.4306,4.417,4.4109,4.4017,4.3986,4.3936,4.3936,4.3905,4.3873,4.3936,4.3809,4.3777,4.4128,4.4079,4.3924,4.3778,4.3829,4.3793,4.3474,4.3502,4.3361,4.2854,4.2779,4.2565,4.194,4.1707,4.1622,4.1564,4.1212,4.0921,4.0735,4.0594,4.0566,4.0663,3.9921,3.9598,3.9854,3.9971,4.0009,4.0006,4.0103,4.0103,4.0006,4.0628,4.0919,4.0957,4.1574,4.2009,2.176,2.2445,2.3299,2.5452,2.7411,2.9326,3.126,3.2311,3.3212,3.4339,3.5484,3.6517,3.7324,0.0,0.0,0.0,4.0347,4.1717,4.1954,4.3238,4.4233,4.4477,4.4515,4.4515,4.4515,4.4515,4.4515,4.4515,4.4515,4.4515,4.4515,4.4515,4.4515,4.4515,4.4515,4.4515,4.4515,4.4515,4.4515,4.4515,4.4515,4.4515,4.4515,4.4515,4.4515,4.4515,4.4515,4.4515,4.4515,4.4515,4.4515,4.4515,4.4515,4.4515,4.4515,4.4515,4.4515,4.4515,4.4515,4.4515,4.4515,4.4515,4.444,4.4354,4.4277,4.4109,4.3968,4.3955,4.3999,4.414,4.4199,4.4079,4.4017,4.417,4.4079,4.4048,4.4411,4.4354,4.4277,4.4468,4.4515,4.4515,4.4515,4.4515,4.4327,4.3764,4.3688,4.3436,4.2781,4.2491,4.2247,4.2143,4.169,4.1378,4.1431,4.1517,4.1586,4.1647,4.0949,4.0624,4.0799,4.1011,4.1086,4.0915,4.1234,4.1234,4.0915,4.1685,4.2013,4.1957,4.263,4.2976,2.1126,2.2438,2.4011,2.5622,2.7898,3.0359,3.2874,3.4057,3.509,3.6779,3.7117,3.7361,3.8169,3.8319,0.0,3.9445,4.0272,4.1079,4.186,4.275,4.3595,4.4402,4.4515,4.4515,4.4515,4.4515,4.4515,4.4515,4.4515,4.4515,4.4515,4.4515,4.4515,4.4515,4.4515,4.4515,4.4515,4.4515,4.4515,4.4515,4.4515,4.4515,4.4515,4.4515,4.4515,4.4515,4.4515,4.4515,4.4515,4.4515,4.4515,4.4515,4.4515,4.4515,4.4515,4.4515,4.4515,4.4515,4.4515,4.4515,4.4515,4.4515,4.4306,4.417,4.4411,4.4109,4.3809,4.4354,4.4306,4.417,4.444,4.4515,4.4515,4.4515,4.4515,4.4515,4.4515,4.4515,4.4515,4.4515,4.4515,4.4515,4.4515,4.4515,4.4515,4.4515,4.4515,4.4515,4.4515,4.4258,4.3999,4.3712,4.3442,4.3303,4.3303,4.2882,4.267,4.2882,4.2709,4.2609,4.2609,4.2864,4.2976,4.2882,4.3408,4.3442,4.2882,4.316,4.316,4.2882,4.2882,4.2882,2.2635,2.3733,2.5181,2.7915,3.0002,3.2198,3.5296,3.5747,3.6141,3.8394,3.8869,3.892,3.9164,3.9201,0.0,3.9564,4.0272,4.0891,4.1116,4.2393,4.3388,4.3632,4.4158,4.4515,4.4515,4.4515,4.4515,4.4515,4.4515,4.4515,4.4515,4.4515,4.4515,4.4515,4.4515,4.4515,4.4515,4.4515,4.4515,4.4515,4.4515,4.4515,4.4515,4.4515,4.4515,4.4515,4.4515,4.4515,4.4515,4.4515,4.4515,4.4515,4.4515,4.4515,4.4515,4.4515,4.4515,4.4515,4.4515,4.4515,4.4515,4.4515,4.444,4.4364,4.4229,4.4248,4.4248,4.4248,4.4306,4.4411,4.4487,4.4515,4.4515,4.4515,4.4515,4.4515,4.4515,4.4515,4.4515,4.4515,4.4515,4.4515,4.4515,4.4515,4.4515,4.4515,4.4515,4.444,4.4229,4.3968,4.3712,4.3442,4.316,4.3032,4.3032,4.2882,4.292,4.3178,4.3142,4.2995,4.2824,4.2882,4.292,4.2882,4.3069,4.3069,4.2882,4.316,4.3267,4.316,4.316,4.316,2.3695,2.4993,2.6513,2.9457,3.1654,3.3869,3.6892,3.7474,0.0,0.0,3.9602,3.9602,3.9602,3.9602,0.0,3.9602,4.0009,4.0422,4.076,4.1661,4.2431,4.275,4.352,4.4026,4.4026,4.4327,4.4515,4.4515,4.4515,4.4515,4.4515,4.4515,4.4515,4.4515,4.4515,4.4515,4.4515,4.4515,4.4515,4.4515,4.4515,4.4515,4.4515,4.4515,4.4515,4.4515,4.4515,4.4515,4.4515,4.4515,4.4515,4.4515,4.4515,4.4515,4.4515,4.4515,4.4515,4.4515,4.4515,4.4515,4.4515,4.4515,4.444,4.4335,4.4277,4.4306,4.4335,4.4258,4.4383,4.4515,4.4515,4.4515,4.4515,4.4515,4.4515,4.4515,4.4515,4.4515,4.4515,4.4515,4.4515,4.4515,4.4515,4.4515,4.4515,4.4515,4.4515,4.4411,4.414,4.3873,4.3612,4.3338,4.3069,4.2882,4.2882,4.2882,4.3032,4.3267,4.3196,4.3142,4.3069,4.316,4.3142,4.2882,4.3087,4.3124,4.2882,4.316,4.3232,4.3124,4.3124,4.3124,2.4347,2.6193,2.8026,3.0509,3.31,3.5634,3.7812,3.8957,3.9602,3.9602,0.0,3.9602,3.9602,3.9602,3.9602,3.9602,3.9602,3.9858,4.0591,4.0741,4.1079,4.1811,4.2656,4.3182,4.3182,4.3839,4.4289,4.4289,4.4364,4.4402,4.4402,4.4477,4.4515,4.4515,4.4515,4.4515,4.4515,4.4515,4.4515,4.4515,4.4515,4.4515,4.4515,4.4515,4.4515,4.4515,4.4515,4.4515,4.4515,4.4515,4.4515,4.4515,4.4515,4.4515,4.4515,4.4515,4.4515,4.4515,4.4515,4.4515,4.4515,4.4515,4.4335,4.417,4.444,4.4335,4.4199,4.444,4.4515,4.4515,4.4515,4.4515,4.4515,4.4515,4.4515,4.4515,4.4515,4.4515,4.4515,4.4515,4.4515,4.4515,4.4515,4.4515,4.4515,4.4515,4.4515,4.4411,4.414,4.3873,4.3612,4.3338,4.3069,4.2882,4.2882,4.2882,4.3032,4.3267,4.3069,4.3069,4.3303,4.3511,4.3408,4.292,4.3373,4.3373,4.2882,4.3124,4.3124,4.2882,4.2882,4.2882,2.4505,2.7081,2.9811,3.2258,3.5735,3.8488,3.8338,3.8957,3.9602,3.9602,3.9602,3.9602,3.9602,3.9602,3.9602,3.9602,3.9602,3.9677,3.9821,4.0403,4.0854,4.1041,4.1792,4.228,4.228,4.2423,4.2535,4.2535,4.3182,4.3557,4.3557,4.4158,4.4515,4.4515,4.4515,4.4515,4.4515,4.4515,4.4515,4.4515,4.4515,4.4515,4.4515,4.4515,4.4515,4.4515,4.4515,4.4515,4.4515,4.4515,4.4515,4.4515,4.4515,4.4515,4.4515,4.4515,4.4515,4.4515,4.4515,4.4515,4.4515,4.4515,4.444,4.4411,4.4487,4.444,4.444,4.4468,4.4515,4.4515,4.4515,4.4515,4.4515,4.4515,4.4515,4.4515,4.4515,4.4515,4.4515,4.4515,4.4515,4.4515,4.4515,4.4515,4.4515,4.4515,4.4515,4.4411,4.414,4.3873,4.3612,4.3338,4.3069,4.2882,4.2882,4.2882,4.3032,4.3267,4.3232,4.3232,4.3303,4.316,4.3032,4.2882,4.3032,4.3032,4.2882,4.2957,4.2957,4.2882,4.2882,4.2882,2.4917,2.7346,3.0132,3.4156,3.7404,3.9489,3.9032,3.9258,3.9602,3.9602,3.9602,3.9602,3.9602,3.9602,3.9602,3.9602,3.9602,3.9602,3.9602,3.9952,4.0215,4.0215,4.0947,4.1436,4.1436,4.1773,4.1991,4.1991,4.2431,4.2693,4.2693,4.3088,4.3313,4.3313,4.3726,4.3933,4.3933,4.4327,4.4515,4.4515,4.4515,4.4515,4.4515,4.4515,4.4515,4.4515,4.4515,4.4515,4.4515,4.4515,4.4515,4.4515,4.4515,4.4515,4.4515,4.4515,4.4515,4.4515,4.4515,4.4515,4.4515,4.4515,4.4515,4.4515,4.4515,4.4515,4.4515,4.4515,4.4515,4.4515,4.4515,4.4515,4.4515,4.4515,4.4515,4.4515,4.4515,4.4515,4.4515,4.4515,4.4515,4.4515,4.4515,4.4515,4.4515,4.4515,4.4383,4.4277,4.414,4.3873,4.3646,4.3511,4.3373,4.3232,4.3087,4.3087,4.316,4.3303,4.316,4.3178,4.3303,4.3032,4.2882,4.2882,4.2882,4.2882,4.2882,4.2882,4.2882,4.2882,4.2882,4.2882,2.4746,2.7214,3.0208,3.5562,3.7925,3.8995,3.9151,3.9282,3.937,3.937,3.9483,3.9602,3.9602,3.9602,3.9602,3.9602,3.9602,3.9602,3.9602,3.9602,3.9602,3.9602,4.0178,4.0591,4.0591,4.121,4.1605,4.1605,4.1717,4.1811,4.1811,4.1916,4.1991,4.1991,4.2712,4.3144,4.3294,4.397,4.4364,4.4515,4.4515,4.4515,4.4515,4.4515,4.4515,4.4515,4.4515,4.4515,4.4515,4.4515,4.4515,4.4515,4.4515,4.4515,4.4515,4.4515,4.4515,4.4515,4.4515,4.4515,4.4515,4.4515,4.4515,4.4515,4.4515,4.4515,4.4515,4.4515,4.4515,4.4515,4.4515,4.4515,4.4515,4.4515,4.4515,4.4515,4.4515,4.4515,4.4515,4.4515,4.4515,4.4515,4.4515,4.4515,4.4515,4.4515,4.4277,4.4091,4.4091,4.3873,4.3712,4.3712,4.3712,4.3579,4.3338,4.3303,4.3267,4.3232,4.3032,4.2995,4.3232,4.3032,4.2882,4.2882,4.2882,4.2882,4.2882,4.2882,4.2882,4.2882,4.2882,4.2882,2.25,2.676,3.1525,3.5168,3.6235,3.6573,0.0,0.0,3.8469,0.0,3.907,3.9602,3.9602,3.9602,3.9602,3.9602,3.9602,3.9602,3.9602,3.9602,3.9602,3.9602,3.9695,3.9771,3.9771,3.9858,3.9915,3.9915,4.0572,4.0966,4.0966,4.1623,4.1991,4.1991,4.2104,4.2543,4.3294,4.3407,4.382,4.4515,4.4515,4.4515,4.4515,4.4515,4.4515,4.4515,4.4515,4.4515,4.4515,4.4515,4.4515,4.4515,4.4515,4.4515,4.4515,4.4515,4.4515,4.4515,4.4515,4.4515,4.4515,4.4515,4.4515,4.4515,4.4515,4.4515,4.4515,4.4515,4.4515,4.4515,4.4515,4.4515,4.4515,4.4515,4.4515,4.4515,4.4515,4.4515,4.4515,4.4515,4.4515,4.4515,4.4515,4.4515,4.4515,4.4515,4.4277,4.4091,4.4091,4.3873,4.3712,4.3712,4.3712,4.3579,4.3338,4.3303,4.3196,4.2957,4.292,4.2938,4.2957,4.292,4.2882,4.2882,4.2882,4.2882,4.2882,4.2882,4.2882,4.2882,4.2882,4.2882,2.2306,2.6314,3.0319,3.3083,3.4846,3.5991,3.6348,3.7399,3.83,3.83,3.8601,3.9014,3.9526,3.9602,3.9602,3.9602,3.9602,3.9602,3.9602,3.9602,3.9602,3.9602,3.9602,3.9602,3.9602,3.9602,3.9602,3.9602,3.9915,4.0121,4.0121,4.0459,4.0666,4.0666,4.1098,4.1511,4.1905,4.2355,4.2994,4.3839,4.4289,4.4515,4.4515,4.4515,4.4515,4.4515,4.4515,4.4515,4.4515,4.4515,4.4515,4.4515,4.4515,4.4515,4.4515,4.4515,4.4515,4.4515,4.4515,4.4515,4.4515,4.4515,4.4515,4.4515,4.4515,4.4515,4.4515,4.4515,4.4515,4.4515,4.4515,4.4515,4.4515,4.4515,4.4515,4.4515,4.4515,4.4515,4.4515,4.4515,4.4515,4.4515,4.4515,4.4515,4.444,4.4306,4.417,4.403,4.3905,4.3905,4.3905,4.3905,4.3905,4.3809,4.3545,4.3373,4.3196,4.292,4.2882,4.2882,4.2882,4.2882,4.2882,4.2882,4.2882,4.2882,4.2882,4.2882,4.2882,4.2882,4.2882,4.2995,2.2029,2.5246,2.8246,3.0828,3.2912,3.4545,0.0,0.0,3.7699,0.0,3.8019,3.8507,3.9145,3.9445,3.9602,3.9602,3.9602,3.9602,3.9602,3.9602,3.9602,3.9602,3.9602,3.9602,3.9602,3.9602,3.9602,3.9602,3.9602,3.9602,3.9602,3.9602,3.9602,3.9602,4.0178,4.0591,4.0797,4.1605,4.2449,4.3313,4.3914,4.4308,4.4515,4.4515,4.4515,4.4515,4.4515,4.4515,4.4515,4.4515,4.4515,4.4515,4.4515,4.4515,4.4515,4.4515,4.4515,4.4515,4.4515,4.4515,4.4515,4.4515,4.4515,4.4515,4.4515,4.4515,4.4515,4.4515,4.4515,4.4515,4.4515,4.4515,4.4515,4.4515,4.4515,4.4515,4.4515,4.4515,4.4515,4.4515,4.4515,4.4515,4.4515,4.4515,4.444,4.4229,4.414,4.403,4.3905,4.4017,4.4091,4.4091,4.4091,4.3968,4.3612,4.3408,4.3196,4.292,4.2882,4.2882,4.2882,4.2882,4.292,4.2995,4.292,4.2882,4.2882,4.2882,4.292,4.2995,4.292,4.3087,2.0752,2.3069,2.5769,2.9025,2.9908,3.0828,0.0,0.0,3.6028,3.6028,3.7249,3.8319,3.8357,3.9032,3.9602,3.9602,3.9602,3.9602,3.9602,3.9602,3.9602,3.9602,3.9602,3.9602,3.9602,3.9602,3.9602,3.9602,3.9602,3.9602,3.9602,3.9602,3.9602,3.9602,3.9658,4.0027,4.0797,4.1605,4.2449,4.3294,4.3332,4.3764,4.4515,4.4515,4.4515,4.4515,4.4515,4.4515,4.4515,4.4515,4.4515,4.4515,4.4515,4.4515,4.4515,4.4515,4.4515,4.4515,4.4515,4.4515,4.4515,4.4515,4.4515,4.4515,4.4515,4.4515,4.4515,4.4515,4.4515,4.4515,4.4515,4.4515,4.4515,4.4515,4.4515,4.4515,4.4515,4.4515,4.4515,4.4515,4.4515,4.4515,4.4515,4.4515,4.4515,4.4487,4.4258,4.4199,4.444,4.4248,4.4091,4.4091,4.4091,4.3905,4.3373,4.3303,4.3196,4.292,4.2882,4.2882,4.2882,4.2882,4.3032,4.3267,4.3032,4.2882,4.2882,4.2882,4.3032,4.3267,4.3032,4.316,1.9213,0.0,2.3032,2.5796,2.7693,2.9326,3.1053,3.3325,3.5071,3.5071,3.6385,3.753,3.753,3.8206,3.8939,3.9526,3.9602,3.9602,3.9602,3.9602,3.9602,3.9602,3.9602,3.9602,3.9602,3.9602,3.9602,3.9602,3.9602,3.9602,3.9602,3.9602,3.9602,3.9602,3.9602,3.9727,4.0027,4.0835,4.1398,4.1698,4.2787,4.3444,4.3745,4.4271,4.4515,4.4515,4.4515,4.4515,4.4515,4.4515,4.4515,4.4515,4.4515,4.4515,4.4515,4.4515,4.4515,4.4515,4.4515,4.4515,4.4515,4.4515,4.4515,4.4515,4.4515,4.4515,4.4515,4.4515,4.4515,4.4515,4.4515,4.4551,4.4659,4.4738,4.4764,4.4764,4.4764,4.4632,4.4515,4.4515,4.4515,4.4515,4.4515,4.4515,4.444,4.4277,4.4306,4.4335,4.4229,4.417,4.4091,4.4091,4.3791,4.3511,4.3303,4.3124,4.2995,4.292,4.2882,4.2882,4.2882,4.2882,4.2957,4.3032,4.2957,4.2995,4.3178,4.2995,4.2957,4.3032,4.2957,4.3196,1.8488,0.0,0.0,0.0,2.574,2.7525,2.895,3.1391,3.3438,3.37,3.509,3.6423,3.6986,3.7324,3.7868,3.8976,3.9145,3.9258,3.9564,3.9602,3.9602,3.9602,3.9602,3.9602,3.9602,3.9602,3.9602,3.9602,3.9602,0.0,3.9602,3.9602,3.9602,3.9602,3.9602,3.9602,3.9602,4.0121,4.0534,4.0816,4.1924,4.275,4.3313,4.3857,4.4252,4.4515,4.4515,4.4515,4.4515,4.4515,4.4515,4.4515,4.4515,4.4515,4.4515,4.4515,4.4515,4.4515,4.4515,4.4515,4.4515,4.4515,4.4515,4.4515,4.4515,4.4524,4.4551,4.4551,4.4605,4.4632,4.4632,4.4712,4.477,4.487,4.4895,4.4895,4.4895,4.4745,4.4632,4.4632,4.4632,4.4632,4.4578,4.4551,4.4496,4.4277,4.4306,4.4306,4.4121,4.403,4.3936,4.3841,4.3493,4.3267,4.316,4.2995,4.292,4.3032,4.2957,4.292,4.3032,4.2957,4.2957,4.3032,4.2957,4.3032,4.3303,4.3032,4.2957,4.3032,4.2957,4.3124,0.0,0.0,0.0,0.0,0.0,0.0,2.7769,0.0,3.1091,3.1879,3.3381,3.5052,3.6648,3.6348,3.6366,3.7943,3.8244,3.8563,3.9451,3.9564,3.9583,3.9602,3.9602,3.9602,3.9602,3.9602,3.9602,3.9602,3.9602,3.9602,3.9602,3.9602,3.9602,3.9602,3.9602,3.9602,3.9602,3.9602,3.9971,4.076,4.0797,4.1642,4.3219,4.3275,4.3726,4.4477,4.4496,4.4515,4.4515,4.4515,4.4515,4.4515,4.4496,4.4515,4.4515,4.4515,4.4515,4.4515,4.4515,4.4515,4.4515,4.4515,4.4515,4.4515,4.4515,4.4605,4.4712,4.4712,4.4796,4.4895,4.4895,4.4914,4.4895,4.4895,4.4895,4.4895,4.4895,4.4895,4.4895,4.4895,4.4895,4.4846,4.4738,4.4712,4.4659,4.4542,4.4277,4.4091,4.4091,4.3873,4.3579,4.3338,4.3303,4.3196,4.292,4.2882,4.3032,4.3267,4.3014,4.3032,4.3267,4.3032,4.3032,4.3267,4.3032,4.3032,4.3303,4.3032,4.3032,4.3267,4.3032,4.305,1.8693,0.0,0.0,0.0,0.0,0.0,0.0,0.0,3.0096,3.0321,3.2161,3.3682,3.3513,3.4282,3.5108,3.554,3.6629,3.7718,3.8544,3.8657,3.8882,3.9545,3.9602,3.9602,3.9602,3.9602,3.9602,0.0,3.9602,3.9602,3.9602,3.9602,3.9602,3.9602,3.9602,3.9602,3.9602,3.9602,3.969,3.9934,4.0516,4.1041,4.1529,4.275,4.3426,4.367,4.4361,4.4659,4.4632,4.4524,4.4515,4.4515,4.4605,4.4659,4.4659,4.4745,4.477,4.477,4.477,4.477,4.477,4.477,4.477,4.477,4.477,4.4815,4.4846,4.4846,4.487,4.4919,4.5014,4.5038,4.508,4.517,4.5192,4.5192,4.5192,4.5192,4.5125,4.4919,4.4895,4.487,4.4846,4.4846,4.4796,4.4659,4.4505,4.4317,4.4121,4.3795,4.3495,4.3303,4.3142,4.2995,4.292,4.2882,4.292,4.2995,4.292,4.292,4.2995,4.292,4.292,4.2995,4.292,4.292,4.2995,4.292,4.292,4.3032,4.3338,4.3511,0.0,0.0,0.0,0.0,0.0,0.0,2.5302,2.6881,2.8236,0.0,3.0077,3.1485,3.1992,3.2611,3.34,3.4433,3.5127,3.6085,3.7587,3.7793,3.7981,3.8512,3.8845,3.9051,3.9051,3.937,3.9602,3.9602,3.9602,3.9602,3.9602,3.9602,3.9602,3.9602,3.9602,3.9602,3.9602,3.9602,3.9602,3.962,4.0065,4.0478,4.0835,4.2168,4.2983,4.3439,4.4327,4.4719,4.4789,4.4712,4.4659,4.4685,4.4745,4.477,4.4796,4.487,4.4895,4.4895,4.4895,4.4895,4.4895,4.4895,4.4895,4.4895,4.4895,4.4943,4.4967,4.4967,4.5014,4.5061,4.517,4.517,4.5192,4.5297,4.5297,4.5297,4.5297,4.5297,4.5235,4.5103,4.508,4.5057,4.4991,4.4967,4.4895,4.464,4.443,4.4229,4.3936,4.3597,4.3339,4.3232,4.3068,4.2938,4.2882,4.2938,4.3013,4.3142,4.3069,4.3087,4.3214,4.305,4.2994,4.2994,4.2994,4.2994,4.3013,4.292,4.2995,4.3159,4.3575,4.3868,2.2752,2.2722,0.0,0.0,2.3912,0.0,2.4768,2.5483,2.6202,0.0,2.7711,2.8932,3.1147,3.1128,3.1504,3.37,3.3607,3.4113,3.661,3.6967,3.6986,3.708,3.7718,3.8169,3.8169,3.8863,3.9339,3.9339,3.9414,3.9483,3.9602,3.9602,3.9602,3.9602,3.9602,3.9602,3.9602,3.9602,3.9602,3.9602,3.9602,3.9996,4.071,4.163,4.2535,4.3416,4.4341,4.4796,4.4919,4.4919,4.4919,4.4895,4.4919,4.4919,4.4919,4.4943,4.4943,4.4943,4.4943,4.4943,4.4943,4.4943,4.4943,4.4943,4.4943,4.5033,4.5125,4.5125,4.5213,4.5297,4.5297,4.5297,4.5297,4.5297,4.5297,4.5297,4.5297,4.5297,4.5297,4.5297,4.5297,4.5256,4.5148,4.5084,4.4924,4.4587,4.4258,4.3968,4.3646,4.3375,4.3178,4.3141,4.3104,4.3049,4.2938,4.3031,4.3196,4.3444,4.3322,4.3304,4.3563,4.3251,4.3104,4.3104,4.3104,4.3123,4.3214,4.3013,4.3105,4.3471,4.3786,4.4125,2.4328,2.4447,2.4601,2.5433,0.0,0.0,2.5744,2.5879,2.6032,0.0,2.6866,2.758,2.8068,2.9138,3.0096,3.0584,3.1616,3.3231,3.5784,3.6122,3.6366,3.7005,3.723,3.7324,3.7324,3.7474,3.7587,3.7587,3.8188,3.8863,3.9564,3.9602,3.9602,3.9602,3.9602,3.9602,3.9602,3.9602,3.9602,3.9602,3.9602,3.9726,3.9972,4.1456,4.2322,4.2711,4.4322,4.5057,4.508,4.517,4.5084,4.4895,4.5014,4.5057,4.5061,4.517,4.5213,4.5213,4.5213,4.5213,4.5213,4.5213,4.5213,4.5213,4.5213,4.5235,4.5275,4.5275,4.5275,4.5297,4.5297,4.5297,4.5297,4.5297,4.5297,4.5297,4.5297,4.5297,4.5297,4.5297,4.5297,4.5297,4.5275,4.5042,4.4795,4.461,4.4269,4.3923,4.3631,4.3463,4.3305,4.3178,4.3178,4.3178,4.3123,4.3178,4.3214,4.3251,4.3196,4.3232,4.3268,4.3214,4.3178,4.3178,4.3178,4.3178,4.3214,4.316,4.3196,4.3286,4.3791,4.4121,2.6314,2.626,2.6285,2.6702,0.0,0.0,0.0,2.5721,2.5405,2.5362,2.5665,2.6097,2.651,2.7296,2.8106,2.8932,2.9739,3.0997,3.3118,3.3757,3.4151,3.4545,3.5334,3.5841,3.5841,3.6592,3.7099,3.7099,3.7455,3.8075,3.8901,3.8939,3.9145,3.9602,3.9602,3.9602,3.9602,3.9602,3.9602,3.9602,3.9631,3.9665,3.9754,4.1066,4.1973,4.256,4.3881,4.4748,4.5192,4.5275,4.5213,4.5103,4.517,4.5192,4.5213,4.5275,4.5297,4.5297,4.5297,4.5297,4.5297,4.5297,4.5297,4.5297,4.5297,4.5297,4.5297,4.5297,4.5297,4.5297,4.5297,4.5297,4.5297,4.5297,4.5297,4.5297,4.5297,4.5297,4.5297,4.5297,4.5173,4.5045,4.5045,4.4891,4.4676,4.4365,4.4121,4.3892,4.3582,4.3497,4.3411,4.3305,4.3305,4.3251,4.3214,4.3251,4.3305,4.3305,4.3322,4.3339,4.3339,4.3322,4.3305,4.3305,4.3305,4.3322,4.3339,4.3513,4.3646,4.3758,4.4072,4.4599,0.0,0.0,0.0,0.0,0.0,2.6422,0.0,0.0,0.0,2.4723,2.4707,0.0,0.0,0.0,0.0,0.0,0.0,0.0,0.0,3.0753,0.0,3.2011,3.3287,3.4113,3.4113,3.5484,3.6517,3.6836,3.6855,3.7211,3.8037,3.8225,3.8619,3.9314,3.9526,3.9602,3.9602,3.9626,3.9626,3.9607,3.9689,3.9739,3.98,4.0704,4.1686,4.269,4.349,4.4391,4.5297,4.5297,4.5297,4.5297,4.5297,4.5297,4.5297,4.5297,4.5297,4.5297,4.5297,4.5297,4.5297,4.5297,4.5297,4.5297,4.5297,4.5297,4.5297,4.5297,4.5297,4.5297,4.5297,4.5297,4.5297,4.5297,4.5297,4.5297,4.5297,4.5297,4.5297,4.5235,4.5,4.48,4.48,4.4701,4.4511,4.4079,4.3942,4.3814,4.3513,4.3497,4.3463,4.3411,4.3411,4.3376,4.3286,4.3376,4.3411,4.3411,4.3463,4.3497,4.3497,4.3446,4.3411,4.3411,4.3411,4.352,4.3718,4.4068,4.4333,4.4475,4.459,4.5375,0.0,0.0,0.0,0.0,2.9099,0.0,0.0,0.0,2.4779,2.4723,0.0,0.0,0.0,0.0,0.0,0.0,0.0,0.0,2.7599,2.7693,2.8838,3.1748,3.2274,3.2386,3.2386,3.3269,3.4451,3.5916,3.6047,3.6385,3.7174,3.7906,3.8357,3.845,3.9183,3.9602,3.9602,3.9661,3.9693,3.9693,3.9804,3.9933,4.0076,4.0895,4.1833,4.2812,4.3633,4.4473,4.5297,4.5297,4.5297,4.5297,4.5297,4.5297,4.5297,4.5297,4.5297,4.5297,4.5297,4.5297,4.5297,4.5297,4.5297,4.5297,4.5297,4.5297,4.5297,4.5297,4.5297,4.5297,4.5297,4.5297,4.5297,4.5297,4.5297,4.5297,4.5297,4.5297,4.5194,4.4915,4.4843,4.48,4.48,4.4402,4.4079,4.4005,4.3749,4.3548,4.3479,4.3497,4.3497,4.3497,4.3497,4.3497,4.3463,4.3497,4.3497,4.3497,4.3497,4.3497,4.3497,4.3497,4.3497,4.3497,4.3497,4.3846,4.4562,4.4901,4.5077,4.5121,4.5658,4.6392,0.0,0.0,0.0,0.0,0.0,0.0,2.8083,0.0,2.5676,0.0,0.0,0.0,0.0,0.0,0.0,0.0,2.5853,0.0,0.0,0.0,2.7186,0.0,0.0,0.0,3.2011,3.2463,3.3009,3.3705,3.4193,3.4816,3.5708,3.7027,3.797,3.8508,3.9339,3.9773,3.9773,3.98,3.9826,3.9826,3.9954,4.0036,4.0117,4.0538,4.1475,4.2813,4.3157,4.4055,4.5297,4.5297,4.5297,4.5297,4.5297,4.5297,4.5297,4.5297,4.5297,4.5297,4.5297,4.5297,4.5297,4.5297,4.5297,4.5297,4.5297,4.5297,4.5297,4.5297,4.5297,4.5297,4.5297,4.5297,4.5297,4.5297,4.5297,4.5297,4.5297,4.5151,4.4957,4.4843,4.4565,4.4336,4.4336,4.4151,4.3942,4.3749,4.3582,4.3497,4.3497,4.3497,4.3497,4.3497,4.3497,4.3497,4.3497,4.3497,4.3497,4.3497,4.3497,4.3699,4.4176,4.4195,4.4415,4.4874,4.4892,4.5145,4.57,4.6022,4.651,4.7165,4.6959,4.7384,3.3566,0.0,0.0,0.0,0.0,0.0,0.0,0.0,0.0,0.0,0.0,0.0,0.0,0.0,0.0,0.0,0.0,2.5227,0.0,2.5487,0.0,0.0,0.0,0.0,0.0,3.1148,3.1393,3.1845,3.241,3.324,3.4414,3.583,3.7135,3.8319,3.9153,3.9662,3.9889,3.9933,3.9954,3.9973,4.0077,4.0157,4.0157,4.0253,4.1208,4.2794,4.2794,4.3749,4.5297,4.5297,4.5297,4.5297,4.5297,4.5297,4.5297,4.5297,4.5297,4.5297,4.5297,4.5297,4.5297,4.5297,4.5297,4.5297,4.5297,4.5297,4.5297,4.5297,4.5297,4.5297,4.5297,4.5297,4.5297,4.5297,4.5297,4.5256,4.5173,4.4957,4.4751,4.4599,4.4279,4.3974,4.3878,4.3878,4.3781,4.3532,4.3497,4.3497,4.3497,4.3497,4.3497,4.3497,4.3497,4.3497,4.3497,4.3497,4.3589,4.3809,4.3828,4.4195,4.5002,4.5039,4.5296,4.5883,4.5992,4.6276,4.675,4.714,4.789,4.892,4.8201,4.8419,0.0,0.0,0.0,3.2569,0.0,0.0,0.0,0.0,2.6344,0.0,0.0,0.0,0.0,0.0,0.0,0.0,0.0,0.0,0.0,0.0,0.0,0.0,0.0,0.0,0.0,2.8627,2.9303,0.0,3.1072,3.1826,3.3564,3.4433,3.5683,3.739,3.83,3.9094,3.9889,4.0036,4.0077,4.0096,4.0234,4.0291,4.0291,4.031,4.1208,4.2794,4.2794,4.3749,4.5297,4.5297,4.5297,4.5297,4.5297,4.5297,4.5297,4.5297,4.5297,4.5297,4.5297,4.5297,4.5297,4.5297,4.5297,4.5297,4.5297,4.5297,4.5297,4.5297,4.5297,4.5297,4.5297,4.5297,4.5297,4.5297,4.5297,4.5194,4.4891,4.4819,4.465,4.414,4.3986,4.391,4.3582,4.3532,4.3513,4.3497,4.3497,4.3497,4.3497,4.3497,4.3497,4.3497,4.3497,4.3497,4.3497,4.3497,4.3828,4.4617,4.4672,4.5021,4.5828,4.5865,4.5865,4.5902,4.6234,4.6754,4.7568,4.822,4.8951,4.9746,4.9267,4.948,0.0,0.0,3.5713,3.4606,0.0,0.0,0.0,0.0,0.0,0.0,0.0,0.0,0.0,0.0,0.0,0.0,0.0,0.0,0.0,0.0,0.0,0.0,0.0,0.0,0.0,0.0,0.0,2.8572,2.9649,0.0,3.1255,3.3653,3.5551,3.6766,3.8156,3.9299,4.0157,4.0215,4.0234,4.0234,4.0291,4.031,4.031,4.031,4.1208,4.2794,4.2794,4.3749,4.5297,4.5297,4.5297,4.5297,4.5297,4.5297,4.5297,4.5297,4.5297,4.5297,4.5297,4.5297,4.5297,4.5297,4.5297,4.5297,4.5297,4.5297,4.5297,4.5297,4.5297,4.5297,4.5297,4.5297,4.5297,4.5297,4.5297,4.5256,4.5173,4.4838,4.4465,4.4289,4.3936,4.3716,4.3814,4.3846,4.3749,4.3513,4.3682,4.3749,4.3513,4.3497,4.3497,4.3497,4.3497,4.3497,4.3497,4.3993,4.4635,4.5443,4.5498,4.5865,4.6673,4.6908,4.7289,4.7826,4.8129,4.8577,4.9068,4.9286,4.9644,5.0144,4.9968,5.0034,3.8151,3.7943,0.0,3.5997,3.4571,0.0,3.2041,0.0,3.0706,0.0,0.0,0.0,0.0,0.0,0.0,0.0,0.0,0.0,0.0,2.4709,0.0,0.0,0.0,0.0,0.0,0.0,2.6673,2.7001,2.8305,0.0,0.0,3.288,3.5066,3.6871,3.798,3.9107,4.0291,4.031,4.031,4.031,4.031,4.031,4.031,4.0597,4.1495,4.2813,4.31,4.4017,4.5297,4.5297,4.5297,4.5297,4.5297,4.5297,4.5297,4.5297,4.5297,4.5297,4.5297,4.5297,4.5297,4.5297,4.5297,4.5297,4.5297,4.5297,4.5297,4.5297,4.5297,4.5297,4.5297,4.5297,4.5297,4.5297,4.5213,4.5087,4.5,4.4591,4.4202,4.4114,4.3873,4.3749,4.3974,4.4321,4.4383,4.3753,4.4119,4.4304,4.3954,4.4176,4.4342,4.4342,4.4342,4.4342,4.4342,4.4837,4.548,4.6287,4.6451,4.6872,4.7647,4.8017,4.8441,4.8982,4.9302,4.957,4.9803,4.9929,5.0076,5.0302,5.0302,5.0302]}]]